[[{"header":{"parameterUnit":"m.s-1","parameterCategory":1,"la1":30.6,"la2":29.2853,"lo1":-89.7004,"lo2":-87.6739,"dy":0.0162,"dx":0.0183,"nx":112,"ny":82,"refTime":"2024-06-13T18:00:00:Z","depth":0,"parameterNumber":2,"parameterNumberName":"U-component_of_WINDS"},"data":[0.0,0.0,0.0,0.0,0.0,0.0,0.0,0.0,0.0,0.0,0.0,0.0,0.0,0.0,0.0,0.0,0.0,0.0,0.0,0.0,0.0,0.0,0.0,0.0,0.0,0.0,0.0,0.0,0.0,0.0,0.0,0.0,0.0,0.0,0.0,0.0,0.0,0.0,0.0,0.0,0.0,0.0,0.0,0.0,0.0,0.0,0.0,0.0,0.0,0.0,0.0,0.0,0.0,0.0,0.0,0.0,0.0,0.0,0.0,0.0,0.0,0.0,0.0,0.0,0.0,0.0,0.0,0.0,0.0,0.0,0.0,0.0,0.0,0.0,0.0,0.0,0.0,0.0,0.0,0.0,0.0,0.0,0.0,0.0,0.0,0.0,0.0,0.0,0.0,0.0,0.0,-1.2348,-1.3315,-1.3771,-1.3528,-1.3247,-1.2684,-1.1811,0.0,0.0,0.0,0.0,0.0,0.0,0.0,0.0,0.0,0.0,0.0,0.0,0.0,0.0,0.0,0.0,0.0,0.0,0.0,0.0,0.0,0.0,0.0,0.0,0.0,0.0,0.0,0.0,0.0,0.0,0.0,0.0,0.0,0.0,0.0,0.0,0.0,0.0,0.0,0.0,0.0,0.0,0.0,0.0,0.0,0.0,0.0,0.0,0.0,0.0,0.0,0.0,0.0,0.0,0.0,0.0,0.0,0.0,0.0,0.0,0.0,0.0,0.0,0.0,0.0,0.0,0.0,0.0,0.0,0.0,0.0,0.0,0.0,0.0,0.0,0.0,0.0,0.0,0.0,0.0,0.0,0.0,0.0,0.0,0.0,0.0,0.0,0.0,0.0,0.0,0.0,0.0,0.0,0.0,0.0,0.0,0.0,0.0,0.0,0.0,0.0,0.0,0.0,0.0,-1.1187,-1.2824,-1.3685,-1.3965,-1.3538,-1.3096,-1.26,-1.2073,0.0,0.0,0.0,0.0,0.0,0.0,0.0,0.0,0.0,0.0,0.0,0.0,0.0,0.0,0.0,0.0,0.0,0.0,0.0,0.0,0.0,0.0,0.0,0.0,0.0,0.0,0.0,0.0,0.0,0.0,0.0,0.0,0.0,0.0,0.0,0.0,0.0,0.0,0.0,0.0,0.0,0.0,0.0,0.0,0.0,0.0,0.0,0.0,0.0,0.0,0.0,0.0,0.0,0.0,0.0,0.0,0.0,0.0,0.0,0.0,0.0,0.0,0.0,0.0,0.0,0.0,0.0,0.0,0.0,0.0,0.0,0.0,0.0,0.0,0.0,0.0,0.0,0.0,0.0,0.0,0.0,0.0,0.0,0.0,0.0,0.0,0.0,0.0,0.0,0.0,0.0,0.0,0.0,0.0,0.0,0.0,0.0,0.0,0.0,0.0,0.0,0.0,0.0,-1.152,-1.2058,-1.3326,-1.3911,-1.3997,-1.3549,-1.3064,-1.2602,-1.2127,-1.0723,0.0,0.0,0.0,0.0,0.0,0.0,0.0,0.0,0.0,0.0,0.0,0.0,0.0,0.0,0.0,0.0,0.0,0.0,0.0,0.0,0.0,0.0,0.0,0.0,0.0,0.0,0.0,0.0,0.0,0.0,0.0,0.0,0.0,0.0,0.0,0.0,0.0,0.0,0.0,0.0,0.0,0.0,0.0,0.0,0.0,0.0,0.0,0.0,0.0,0.0,0.0,0.0,0.0,0.0,0.0,0.0,0.0,0.0,0.0,0.0,0.0,0.0,0.0,0.0,0.0,0.0,0.0,0.0,0.0,0.0,0.0,0.0,0.0,0.0,0.0,0.0,0.0,0.0,0.0,0.0,0.0,0.0,0.0,0.0,0.0,0.0,0.0,0.0,0.0,0.0,0.0,0.0,0.0,0.0,0.0,0.0,0.0,0.0,0.0,0.0,0.0,0.0,-1.2501,-1.2834,-1.3702,-1.404,-1.3997,-1.3549,-1.301,-1.2503,-1.204,-1.0432,0.0,0.0,0.0,0.0,0.0,0.0,0.0,0.0,0.0,0.0,0.0,0.0,0.0,0.0,0.0,0.0,0.0,0.0,0.0,0.0,0.0,0.0,0.0,0.0,0.0,0.0,0.0,0.0,0.0,0.0,0.0,0.0,0.0,0.0,0.0,0.0,0.0,0.0,0.0,0.0,0.0,0.0,0.0,0.0,0.0,0.0,0.0,0.0,0.0,0.0,0.0,0.0,0.0,0.0,0.0,0.0,0.0,0.0,0.0,0.0,0.0,0.0,0.0,0.0,0.0,0.0,0.0,0.0,0.0,0.0,0.0,0.0,0.0,0.0,0.0,0.0,0.0,0.0,0.0,0.0,0.0,0.0,0.0,0.0,0.0,0.0,0.0,0.0,0.0,0.0,0.0,0.0,0.0,0.0,0.0,0.0,0.0,0.0,0.0,0.0,0.0,0.0,-1.2363,-1.3042,-1.3739,-1.404,-1.3997,-1.3549,-1.2845,-1.2231,-1.1758,-1.0153,0.0,0.0,0.0,0.0,0.0,0.0,0.0,0.0,0.0,0.0,0.0,0.0,0.0,0.0,0.0,0.0,0.0,0.0,0.0,0.0,0.0,0.0,0.0,0.0,0.0,0.0,0.0,0.0,0.0,0.0,0.0,0.0,0.0,0.0,0.0,0.0,0.0,0.0,0.0,0.0,0.0,0.0,0.0,0.0,0.0,0.0,0.0,0.0,0.0,0.0,0.0,0.0,0.0,0.0,0.0,0.0,0.0,0.0,0.0,0.0,0.0,0.0,0.0,0.0,0.0,0.0,0.0,0.0,0.0,0.0,0.0,0.0,0.0,0.0,0.0,0.0,0.0,0.0,0.0,0.0,0.0,0.0,0.0,0.0,0.0,0.0,0.0,0.0,0.0,0.0,0.0,0.0,0.0,0.0,0.0,0.0,0.0,0.0,0.0,0.0,0.0,0.0,-1.2535,-1.3118,0.0,-1.4137,-1.3997,-1.3549,-1.2988,-1.2384,-1.1736,0.0,0.0,0.0,0.0,0.0,0.0,0.0,0.0,0.0,0.0,0.0,0.0,0.0,0.0,0.0,0.0,0.0,0.0,0.0,0.0,0.0,0.0,0.0,0.0,0.0,0.0,0.0,0.0,0.0,0.0,0.0,0.0,0.0,0.0,0.0,0.0,0.0,0.0,0.0,0.0,0.0,0.0,0.0,0.0,0.0,0.0,0.0,0.0,0.0,0.0,0.0,0.0,0.0,0.0,0.0,0.0,0.0,0.0,0.0,0.0,0.0,0.0,0.0,0.0,0.0,0.0,0.0,0.0,0.0,0.0,0.0,0.0,0.0,0.0,0.0,0.0,0.0,0.0,0.0,0.0,0.0,0.0,0.0,0.0,0.0,0.0,0.0,0.0,0.0,0.0,0.0,0.0,0.0,0.0,0.0,0.0,0.0,0.0,0.0,0.0,0.0,0.0,-1.221,-1.2684,-1.3236,0.0,-1.4191,-1.3997,-1.3549,-1.2999,-1.2373,-1.1617,0.0,0.0,0.0,0.0,0.0,0.0,0.0,0.0,0.0,0.0,0.0,0.0,0.0,0.0,0.0,0.0,0.0,0.0,0.0,0.0,0.0,0.0,0.0,0.0,0.0,0.0,0.0,0.0,0.0,0.0,0.0,0.0,0.0,0.0,0.0,0.0,0.0,0.0,0.0,0.0,0.0,0.0,0.0,0.0,0.0,0.0,0.0,0.0,0.0,0.0,0.0,0.0,0.0,0.0,0.0,0.0,0.0,0.0,0.0,0.0,0.0,0.0,0.0,0.0,0.0,0.0,0.0,0.0,0.0,0.0,0.0,0.0,0.0,0.0,0.0,0.0,0.0,0.0,0.0,0.0,0.0,0.0,0.0,0.0,0.0,0.0,0.0,0.0,0.0,0.0,0.0,0.0,0.0,0.0,0.0,0.0,0.0,0.0,0.0,0.0,0.0,0.0,-1.2219,-1.2799,-1.3358,-1.4116,-1.4191,-1.3997,-1.3549,-1.2824,-1.2067,0.0,0.0,0.0,0.0,0.0,0.0,0.0,0.0,0.0,0.0,0.0,0.0,0.0,0.0,0.0,0.0,0.0,0.0,0.0,0.0,0.0,0.0,0.0,0.0,0.0,0.0,0.0,0.0,0.0,0.0,0.0,0.0,0.0,0.0,0.0,0.0,0.0,0.0,0.0,0.0,0.0,0.0,0.0,0.0,0.0,0.0,0.0,0.0,0.0,0.0,0.0,0.0,0.0,0.0,0.0,0.0,0.0,0.0,0.0,0.0,0.0,0.0,0.0,0.0,0.0,0.0,0.0,0.0,0.0,0.0,0.0,0.0,0.0,0.0,0.0,0.0,0.0,0.0,0.0,0.0,0.0,0.0,0.0,0.0,0.0,0.0,0.0,0.0,0.0,0.0,0.0,0.0,0.0,0.0,0.0,0.0,0.0,0.0,0.0,0.0,0.0,0.0,0.0,-1.2432,-1.2399,-1.2687,-1.4056,-1.345,-1.314,-1.3671,-1.2687,-1.1903,-1.1595,0.0,0.0,0.0,0.0,0.0,0.0,0.0,0.0,0.0,0.0,0.0,0.0,0.0,0.0,0.0,0.0,0.0,0.0,0.0,0.0,0.0,0.0,0.0,0.0,0.0,0.0,0.0,0.0,0.0,0.0,0.0,0.0,0.0,0.0,0.0,0.0,0.0,0.0,0.0,0.0,0.0,0.0,0.0,0.0,0.0,0.0,0.0,0.0,0.0,0.0,0.0,0.0,0.0,0.0,0.0,0.0,0.0,0.0,0.0,0.0,0.0,0.0,0.0,0.0,0.0,0.0,0.0,0.0,0.0,0.0,0.0,0.0,0.0,0.0,0.0,0.0,0.0,0.0,0.0,0.0,0.0,0.0,0.0,0.0,0.0,0.0,0.0,0.0,0.0,0.0,0.0,0.0,0.0,0.0,0.0,0.0,0.0,0.0,0.0,0.0,0.0,0.0,-1.1949,-1.2092,-1.243,-1.3488,-1.2943,-1.272,-1.3203,-1.2318,-1.1548,-1.112,0.0,0.0,0.0,0.0,0.0,0.0,0.0,0.0,0.0,0.0,0.0,0.0,0.0,0.0,0.0,0.0,0.0,0.0,0.0,0.0,0.0,0.0,0.0,0.0,0.0,0.0,0.0,0.0,0.0,0.0,0.0,0.0,0.0,0.0,0.0,0.0,0.0,0.0,0.0,0.0,0.0,0.0,0.0,0.0,0.0,0.0,0.0,0.0,0.0,0.0,0.0,0.0,0.0,0.0,0.0,0.0,0.0,0.0,0.0,0.0,0.0,0.0,0.0,0.0,0.0,0.0,0.0,0.0,0.0,0.0,0.0,0.0,0.0,0.0,0.0,0.0,0.0,0.0,0.0,0.0,0.0,0.0,0.0,0.0,0.0,0.0,0.0,0.0,0.0,0.0,0.0,0.0,0.0,0.0,0.0,0.0,0.0,0.0,0.0,0.0,0.0,0.0,-1.1117,-1.184,-1.2357,-1.2692,-1.2609,-1.2497,-1.2429,-1.182,-1.111,-1.0336,0.0,0.0,0.0,0.0,0.0,0.0,0.0,0.0,0.0,0.0,0.0,0.0,0.0,0.0,0.0,0.0,0.0,0.0,0.0,0.0,0.0,0.0,0.0,0.0,0.0,0.0,0.0,0.0,0.0,0.0,0.0,0.0,0.0,0.0,0.0,0.0,0.0,0.0,0.0,0.0,0.0,0.0,0.0,0.0,0.0,0.0,0.0,0.0,0.0,0.0,0.0,0.0,0.0,0.0,0.0,0.0,0.0,0.0,0.0,0.0,-0.9363,0.0,0.0,0.0,0.0,0.0,0.0,0.0,0.0,0.0,0.0,0.0,0.0,0.0,0.0,0.0,0.0,0.0,0.0,0.0,0.0,0.0,0.0,0.0,0.0,0.0,0.0,0.0,0.0,0.0,0.0,0.0,0.0,0.0,0.0,0.0,0.0,0.0,0.0,0.0,0.0,0.0,-1.1352,-1.1274,-1.153,-1.2814,-1.1979,-1.1705,-1.2571,-1.1655,-1.0973,-1.0908,-0.987,0.0,0.0,0.0,0.0,0.0,0.0,0.0,0.0,0.0,0.0,0.0,0.0,0.0,0.0,0.0,0.0,0.0,0.0,0.0,0.0,0.0,0.0,0.0,0.0,0.0,0.0,0.0,0.0,0.0,0.0,0.0,0.0,0.0,0.0,0.0,0.0,0.0,0.0,0.0,0.0,0.0,0.0,0.0,0.0,0.0,0.0,0.0,0.0,0.0,0.0,0.0,0.0,0.0,0.0,0.0,0.0,0.0,0.0,0.0,0.0,-1.0033,0.0,0.0,0.0,0.0,0.0,0.0,0.0,0.0,0.0,0.0,0.0,0.0,0.0,0.0,0.0,0.0,0.0,0.0,0.0,0.0,0.0,0.0,0.0,0.0,0.0,0.0,0.0,0.0,0.0,0.0,0.0,0.0,0.0,0.0,0.0,0.0,0.0,0.0,0.0,0.0,-1.067,-1.0891,-1.128,-1.2162,-1.1648,-1.1483,-1.2078,-1.1325,-1.0757,-1.0661,-0.9984,0.0,0.0,0.0,0.0,0.0,0.0,0.0,0.0,0.0,0.0,0.0,0.0,0.0,0.0,0.0,0.0,0.0,0.0,0.0,0.0,0.0,0.0,0.0,0.0,0.0,0.0,0.0,0.0,0.0,0.0,0.0,0.0,0.0,0.0,0.0,0.0,0.0,0.0,0.0,0.0,0.0,0.0,0.0,0.0,0.0,0.0,0.0,0.0,0.0,0.0,0.0,0.0,0.0,-1.2101,-1.2163,-1.2253,-1.2156,-1.2051,-1.1979,-1.1386,-1.1012,-1.0791,-1.0794,0.0,0.0,0.0,0.0,0.0,0.0,0.0,0.0,0.0,0.0,0.0,0.0,0.0,0.0,0.0,0.0,0.0,0.0,0.0,0.0,0.0,0.0,0.0,0.0,-1.1289,-1.1297,0.0,0.0,0.0,0.0,0.0,0.0,0.0,0.0,0.0,0.0,0.0,0.0,-1.004,-1.0777,-1.1338,-1.1524,-1.1516,-1.15,-1.15,-1.1029,-1.0626,-1.03,-1.0096,-0.9594,0.0,0.0,0.0,0.0,0.0,0.0,0.0,0.0,0.0,0.0,0.0,0.0,0.0,0.0,0.0,0.0,0.0,0.0,0.0,0.0,0.0,0.0,0.0,0.0,0.0,0.0,0.0,0.0,0.0,0.0,0.0,0.0,-0.9401,-0.9401,0.0,0.0,0.0,0.0,0.0,0.0,0.0,0.0,0.0,0.0,0.0,0.0,0.0,-1.1653,-1.1689,-1.2081,-1.2281,-1.2299,-1.2672,-1.2845,-1.2865,-1.2845,-1.2852,-1.2853,-1.2872,0.0,-1.1125,-1.1122,0.0,0.0,0.0,0.0,0.0,0.0,0.0,0.0,0.0,0.0,0.0,0.0,0.0,0.0,0.0,0.0,0.0,0.0,0.0,0.0,0.0,0.0,-1.2303,-1.1931,-1.2028,-1.206,0.0,-1.0992,-1.0298,-0.9535,-0.9347,0.0,0.0,0.0,0.0,0.0,0.0,0.0,-1.0724,-1.12,-1.1533,-1.1749,-1.1598,-1.15,-1.15,-1.1179,-1.087,-1.0658,-1.0189,-0.9772,-0.9477,-0.8886,0.0,0.0,0.0,0.0,0.0,0.0,0.0,0.0,0.0,0.0,0.0,0.0,0.0,0.0,0.0,0.0,0.0,0.0,0.0,0.0,0.0,0.0,0.0,0.0,0.0,0.0,0.0,0.0,0.0,-0.9646,-0.9985,-0.9646,-0.9978,-1.0073,0.0,0.0,0.0,0.0,0.0,0.0,0.0,0.0,0.0,-1.2135,-1.2515,-1.2712,-1.2712,-1.3031,-1.3268,-1.3295,-1.3533,-1.3676,-1.3709,-1.3532,-1.3505,-1.3622,-1.3478,-1.3091,-1.2501,-1.201,-1.1608,-1.1314,0.0,0.0,0.0,0.0,-1.1548,-1.1589,-1.1615,-1.1493,0.0,-1.1143,0.0,0.0,0.0,0.0,0.0,0.0,0.0,0.0,0.0,0.0,-1.2857,-1.2661,-1.2767,-1.2865,-1.2604,-1.219,-1.1535,0.0,-1.0322,-1.0186,-0.9404,0.0,0.0,0.0,0.0,-1.0209,-1.0911,-1.1281,-1.1573,-1.179,-1.1733,-1.1654,-1.1654,-1.1419,-1.1183,-1.1005,-1.0582,-1.0243,-0.9941,-0.9437,-0.8909,0.0,0.0,0.0,0.0,0.0,0.0,0.0,0.0,0.0,0.0,0.0,0.0,0.0,0.0,0.0,0.0,0.0,0.0,0.0,0.0,0.0,0.0,0.0,0.0,0.0,0.0,0.0,0.0,-1.0412,-1.0629,-1.0073,-1.0629,-1.0785,0.0,0.0,0.0,0.0,0.0,0.0,-1.2417,-1.2725,-1.2956,-1.3071,-1.3437,-1.3627,-1.3627,-1.3842,-1.4068,-1.4183,-1.4224,-1.4299,-1.4407,-1.4133,-1.4072,-1.417,-1.3953,-1.3768,-1.3675,-1.2813,-1.2368,-1.2182,-1.1944,-1.1952,-1.2114,-1.2308,-1.2287,-1.2237,-1.2411,-1.2364,-1.2165,-1.1649,-1.1846,-1.2084,-1.1201,0.0,0.0,0.0,0.0,-1.2783,-1.3066,-1.3279,-1.3352,-1.3254,-1.3376,-1.3441,-1.3214,-1.3068,-1.2605,0.0,-1.1248,-1.1053,-1.0097,0.0,0.0,0.0,0.0,-1.062,-1.1082,-1.1378,-1.1622,-1.179,-1.1806,-1.1806,-1.1806,-1.1565,-1.137,-1.1203,-1.0891,-1.0601,-1.0333,-0.9957,-0.951,-0.9016,0.0,0.0,0.0,0.0,0.0,0.0,0.0,0.0,0.0,0.0,0.0,0.0,0.0,0.0,0.0,0.0,0.0,0.0,0.0,0.0,0.0,0.0,0.0,0.0,0.0,0.0,0.0,0.0,0.0,-1.1172,-1.1655,0.0,0.0,0.0,0.0,-1.2196,-1.2792,-1.3186,-1.3322,-1.3749,-1.4037,-1.405,-1.417,-1.4251,-1.4251,-1.4401,-1.4482,-1.4489,-1.4593,-1.4667,-1.4674,-1.4654,-1.4572,-1.4489,-1.4475,-1.4306,-1.4037,-1.3282,-1.2785,-1.2479,-1.2329,-1.2186,-1.2108,-1.2265,-1.2363,-1.2438,-1.2224,-1.1989,-1.1923,-1.2594,-1.2867,-1.2975,-1.3103,-1.3083,0.0,0.0,-1.3815,-1.3863,-1.4094,-1.4151,-1.4034,-1.3666,-1.3714,-1.3782,-1.3467,-1.3386,-1.3158,0.0,-1.1971,-1.1701,-1.1435,0.0,-1.0547,-1.1025,-1.0875,-1.0867,-1.1403,-1.1676,-1.1798,-1.1806,-1.1806,-1.1806,-1.1806,-1.1443,-1.1203,-1.1195,-1.0891,-1.068,-1.0664,-1.0349,-0.9991,-0.9567,-0.9032,0.0,0.0,0.0,0.0,0.0,0.0,0.0,0.0,0.0,0.0,0.0,0.0,0.0,0.0,0.0,0.0,0.0,0.0,0.0,0.0,0.0,0.0,0.0,0.0,0.0,0.0,0.0,0.0,-1.2203,-1.2705,0.0,-1.2404,-1.2637,-1.301,-1.3452,-1.3676,-1.3989,-1.4431,-1.4608,-1.4738,-1.4833,-1.4936,-1.5011,-1.5011,-1.516,-1.514,-1.5092,-1.5147,-1.512,-1.5025,-1.5025,-1.4943,-1.4808,-1.4808,-1.4692,-1.4475,-1.4109,-1.3668,-1.3179,-1.3173,-1.2996,-1.2819,-1.288,-1.2834,-1.2819,-1.2717,-1.2642,-1.2679,-1.3385,-1.3401,-1.3254,-1.3819,-1.3802,-1.3677,-1.3993,-1.4083,-1.4123,-1.4294,-1.4343,-1.4273,-1.4144,-1.416,-1.418,-1.3945,-1.3798,-1.3604,-1.3204,-1.275,-1.2288,-1.1768,-1.1557,-1.1414,-1.1411,-1.1454,-1.1633,-1.1979,-1.2077,-1.2069,-1.1955,-1.1939,-1.1898,-1.1815,-1.1549,-1.1354,-1.1203,-1.0997,-1.0846,-1.0696,-1.0461,-1.0168,-0.9803,-0.9404,-0.8834,0.0,0.0,0.0,0.0,0.0,0.0,0.0,0.0,0.0,0.0,0.0,0.0,0.0,0.0,0.0,0.0,0.0,0.0,0.0,0.0,0.0,0.0,0.0,0.0,0.0,-1.2651,-1.3146,-1.3004,-1.3565,-1.3824,-1.3418,-1.3648,-1.4,-1.4391,-1.4466,-1.469,-1.5092,-1.5167,-1.5242,-1.5337,-1.5438,-1.5486,-1.5486,-1.5539,-1.5539,-1.5486,-1.5486,-1.5404,-1.5262,-1.5262,-1.5208,-1.512,-1.512,-1.5059,-1.4911,-1.4801,-1.4475,-1.4061,-1.3858,-1.362,-1.3397,-1.3397,-1.3308,-1.3173,-1.3111,-1.3043,-1.3062,-1.3522,-1.3586,-1.3581,-1.4104,-1.4274,-1.4286,-1.4445,-1.4485,-1.451,-1.4586,-1.4611,-1.4594,-1.4538,-1.4484,-1.4473,-1.4302,-1.4123,-1.3961,-1.3847,-1.335,-1.2865,-1.2425,-1.241,-1.2402,-1.2166,-1.2328,-1.2507,-1.2564,-1.2523,-1.2418,-1.2231,-1.2127,-1.2052,-1.1874,-1.1695,-1.1484,-1.1211,-1.1062,-1.0911,-1.0704,-1.0582,-1.0353,-1.0079,-0.9738,-0.9299,-0.8769,0.0,0.0,0.0,0.0,0.0,0.0,0.0,0.0,0.0,0.0,0.0,0.0,0.0,0.0,0.0,0.0,0.0,0.0,0.0,0.0,0.0,0.0,0.0,-1.2596,-1.3186,-1.3626,-1.3626,-1.4275,-1.459,-1.4163,-1.4516,-1.4835,-1.503,-1.5173,-1.5269,-1.5425,-1.5574,-1.5607,-1.5607,-1.5607,-1.5607,-1.5607,-1.5607,-1.56,-1.56,-1.56,-1.5519,-1.5418,-1.5425,-1.5418,-1.5418,-1.5418,-1.5418,-1.5404,-1.5255,-1.5106,-1.4969,-1.437,-1.3994,-1.3815,-1.3815,-1.3714,-1.3545,-1.3288,-1.3132,-1.3016,-1.3016,-1.3464,-1.4005,-1.4005,-1.4462,-1.4968,-1.5006,-1.5006,-1.5006,-1.5006,-1.5006,-1.4958,-1.4757,-1.4716,-1.4667,-1.4444,-1.431,-1.4196,-1.4225,-1.3793,-1.3427,-1.3419,-1.341,-1.3402,-1.3402,-1.3402,0.0,-1.3124,-1.2921,-1.2775,-1.2629,-1.2418,-1.2239,-1.203,-1.1874,-1.1614,-1.1228,-1.1062,-1.0911,-1.0704,-1.0696,-1.0607,-1.0409,-1.0079,-0.964,-0.9129,0.0,0.0,0.0,0.0,0.0,0.0,0.0,0.0,0.0,0.0,0.0,0.0,0.0,0.0,0.0,0.0,0.0,0.0,0.0,0.0,0.0,-1.3044,-1.358,-1.3308,-1.3916,-1.443,-1.459,-1.497,-1.5221,-1.5208,-1.5276,-1.5452,-1.5649,-1.5697,-1.5786,-1.5886,-1.5934,-1.5961,-1.5961,-1.5961,-1.5961,-1.5961,-1.5961,-1.5906,-1.584,-1.584,-1.5716,-1.5533,-1.5683,-1.5676,-1.5526,-1.5526,-1.5526,-1.5519,-1.5411,-1.5323,-1.5242,-1.4746,-1.4401,-1.4177,-1.4177,-1.3903,-1.3572,-1.3532,-1.3403,-1.3363,-1.3692,-1.3753,-1.3804,-1.4407,-1.4555,-1.463,-1.493,-1.5006,-1.5006,-1.5006,-1.5006,-1.499,-1.4941,-1.4933,-1.4846,-1.4667,-1.4594,-1.4521,-1.4383,-1.414,-1.3872,-1.3612,-1.3457,-1.3402,-1.3402,-1.3402,0.0,-1.3337,-1.3133,-1.3003,-1.2954,-1.271,-1.2507,-1.245,-1.1898,-1.1533,-1.1427,-1.1013,-1.0829,-1.0919,-1.0789,-1.0607,-1.0409,-1.0209,-1.004,0.0,0.0,0.0,0.0,0.0,0.0,0.0,0.0,0.0,0.0,0.0,0.0,0.0,0.0,0.0,0.0,0.0,0.0,0.0,0.0,0.0,0.0,-1.3939,-1.4394,-1.438,-1.4692,-1.5004,-1.5221,-1.5452,-1.5655,-1.5811,-1.5825,-1.5859,-1.599,-1.6058,-1.6083,-1.6171,-1.6232,-1.6266,-1.6266,-1.6266,-1.6266,-1.6266,-1.6266,-1.6218,-1.613,-1.6076,-1.5967,-1.5825,-1.5894,-1.5854,-1.573,-1.573,-1.5764,-1.5805,-1.5594,-1.554,0.0,0.0,0.0,0.0,0.0,-1.4136,-1.3849,-1.372,-1.362,-1.3582,-1.4034,-1.4109,-1.4077,-1.4611,-1.4759,-1.4764,-1.4946,-1.5006,-1.5006,-1.5006,-1.5006,-1.5006,-1.5006,-1.5006,-1.4974,-1.4838,-1.4757,-1.4676,-1.457,-1.4408,0.0,-1.3974,-1.3823,-1.3734,-1.3807,-1.3815,-1.379,-1.3752,-1.3547,-1.3376,-1.3222,-1.2987,-1.2759,-1.2613,-1.2117,0.0,0.0,0.0,-1.1045,-1.1078,-1.0972,0.0,0.0,0.0,0.0,0.0,0.0,0.0,0.0,-1.0357,-1.0487,0.0,0.0,0.0,0.0,0.0,0.0,0.0,0.0,0.0,0.0,0.0,0.0,0.0,0.0,0.0,0.0,-1.493,-1.5289,-1.5438,-1.5357,-1.5377,-1.5635,-1.5791,-1.599,-1.609,-1.611,-1.611,-1.613,-1.6259,-1.6334,-1.6334,0.0,0.0,0.0,0.0,-1.6524,-1.6524,-1.6524,-1.6524,-1.6517,-1.6395,-1.6259,-1.6123,-1.6024,-1.5956,-1.5949,-1.5915,-1.599,-1.6062,-1.5778,-1.573,-1.5833,-1.535,-1.5146,-1.4969,-1.4502,-1.4326,-1.4258,-1.3944,0.0,0.0,-1.4091,-1.4302,-1.4434,-1.4672,-1.494,-1.5072,-1.5049,-1.5047,-1.5063,-1.5039,-1.5047,-1.5063,-1.5039,-1.5039,-1.5031,-1.5006,-1.4846,-1.4741,-1.4741,-1.4549,-1.4427,-1.4427,-1.4302,-1.4229,-1.4346,-1.4346,-1.4318,-1.4164,-1.3985,-1.3758,-1.35,0.0,0.0,-1.271,-1.2442,-1.2174,-1.1888,-1.1663,-1.1484,-1.1292,-1.13,-1.1411,-1.1557,-1.1835,-1.1924,-1.1809,-1.2142,-1.2158,-1.188,-1.1171,-1.1005,0.0,0.0,0.0,0.0,0.0,0.0,0.0,0.0,0.0,0.0,0.0,0.0,0.0,0.0,0.0,-1.4586,-1.5134,-1.5601,-1.5792,-1.5852,-1.5935,-1.5867,-1.5947,-1.6096,-1.6252,-1.6266,-1.6313,-1.6429,-1.6463,-1.6483,-1.6483,-1.651,-1.6524,-1.6524,-1.6524,-1.6524,-1.6524,-1.6524,-1.6524,-1.6524,0.0,0.0,-1.6429,-1.6286,-1.6225,-1.6205,-1.601,-1.599,-1.6069,-1.5886,-1.5757,-1.5649,-1.5309,-1.5146,-1.4989,-1.4733,-1.4502,-1.4292,-1.4231,-1.4027,-1.3783,-1.3746,-1.3672,-1.3741,-1.436,-1.4479,0.0,-1.504,-1.5293,-1.5374,-1.5189,-1.5293,-1.5374,-1.5181,-1.5148,-1.5147,-1.5039,-1.4982,-1.4958,-1.4958,-1.4773,-1.4651,-1.4651,-1.4391,-1.4225,-1.4221,-1.4099,-1.3993,-1.3961,-1.3763,-1.369,-1.379,-1.3376,-1.3124,-1.3239,-1.2653,-1.228,-1.2207,-1.1997,-1.1884,-1.1843,-1.1989,-1.2044,-1.19,-1.1965,-1.1981,-1.1949,-1.2199,-1.2345,-1.2433,-1.1863,-1.176,0.0,0.0,0.0,0.0,0.0,0.0,0.0,0.0,0.0,0.0,0.0,-1.3566,-1.4089,0.0,-1.4889,-1.5337,-1.5601,-1.5798,-1.5996,-1.6085,-1.6105,-1.6024,-1.6103,-1.6225,-1.63,-1.6374,-1.6442,-1.6466,-1.654,-1.6615,-1.6748,-1.6815,-1.689,-1.6971,-1.6971,-1.6971,-1.6971,-1.6971,-1.6931,-1.6856,-1.6781,-1.6707,-1.6581,-1.6483,-1.6374,-1.63,-1.6151,-1.6083,-1.6076,-1.6051,-1.5791,-1.5472,-1.5438,-1.5276,-1.5059,-1.4909,-1.476,-1.4618,-1.4462,-1.4258,-1.4048,-1.4114,-1.4161,-1.4235,-1.4736,-1.4929,-1.5041,-1.5272,-1.5408,-1.5496,-1.5359,-1.5408,-1.5456,-1.5359,-1.5335,-1.5286,-1.5139,-1.5106,-1.5074,-1.5023,-1.4933,-1.4838,-1.4838,-1.4619,-1.4416,-1.4318,-1.4156,-1.4042,-1.4042,-1.388,-1.3739,-1.3739,-1.3496,-1.3368,-1.3402,-1.2881,-1.2499,-1.232,-1.2304,-1.2255,-1.2143,-1.2345,-1.2393,-1.2296,-1.2354,-1.2443,-1.2564,-1.2751,-1.2881,-1.2995,-1.2727,-1.2653,0.0,0.0,0.0,0.0,0.0,0.0,0.0,-1.2634,-1.3159,-1.3727,-1.4122,-1.455,-1.5276,-1.5384,-1.5527,-1.6042,-1.6092,-1.6064,-1.611,-1.6123,-1.6117,-1.6083,-1.6218,-1.632,-1.6347,-1.6483,-1.6578,-1.6605,-1.6696,-1.689,-1.7019,-1.7161,-1.729,-1.7419,-1.7419,-1.7419,-1.7419,-1.7419,-1.7344,-1.7188,-1.7073,-1.6944,-1.6736,-1.6639,-1.6503,-1.6395,-1.6334,-1.6239,-1.6123,-1.6062,-1.5805,-1.5466,-1.5512,-1.5425,-1.5167,-1.5098,-1.5037,-1.4976,-1.4652,-1.4462,-1.4357,-1.4522,-1.4679,-1.4773,-1.5033,-1.5293,-1.5504,-1.5425,-1.5433,-1.5489,-1.5537,-1.5593,-1.561,-1.5577,-1.5536,-1.5424,-1.5237,-1.5173,-1.5139,-1.5031,-1.5006,-1.5006,-1.5006,-1.4884,-1.4692,-1.4476,-1.4343,-1.4229,-1.4229,-1.4066,-1.3904,-1.3723,-1.365,-1.3536,-1.3419,-1.3108,-1.2783,-1.2532,-1.2678,-1.2694,-1.2523,-1.2678,-1.2751,-1.2751,-1.2865,-1.3011,-1.3149,-1.3336,-1.3425,-1.3425,-1.3533,-1.3443,-1.1171,-1.1701,-1.2046,-1.2245,-1.2463,-1.2903,0.0,-1.4049,-1.4258,-1.4726,-1.5052,-1.5289,-1.5391,-1.5723,-1.6049,-1.6252,-1.6374,-1.6408,-1.63,-1.6286,-1.6232,-1.6096,-1.6218,-1.6361,-1.6483,-1.6581,-1.673,-1.6917,-1.706,-1.7148,-1.7168,-1.7311,-1.7405,-1.7419,-1.7419,-1.7419,-1.7419,-1.7419,-1.7344,-1.7195,-1.7175,-1.7093,-1.6951,-1.6795,-1.6662,-1.6635,-1.6422,-1.63,-1.6259,-1.6037,-1.5778,-1.5553,-1.5486,-1.533,-1.5181,-1.5167,-1.5079,-1.4989,-1.4728,-1.4572,-1.4441,-1.4251,-1.4178,-1.4226,-1.4358,-1.4419,-1.4556,-1.5031,-1.525,-1.5451,-1.5707,-1.5861,-1.5902,-1.578,-1.5626,-1.5424,-1.5237,-1.5114,-1.5031,-1.5006,-1.5006,-1.5006,-1.5006,-1.499,-1.4917,-1.4708,-1.4484,-1.4371,-1.4371,-1.4253,-1.4176,-1.416,-1.3795,-1.3536,-1.3419,-1.337,-1.3329,-1.3288,-1.3305,-1.3305,-1.3288,-1.3305,-1.3313,-1.3313,-1.3337,-1.3353,-1.3378,-1.3522,-1.3577,-1.3585,-1.3937,-1.3904,-1.2493,-1.2942,-1.3071,-1.3087,-1.3566,-1.4106,-1.4326,-1.4623,-1.4916,-1.5282,-1.5527,-1.5723,-1.59,-1.609,-1.6259,-1.6408,-1.6483,-1.6469,-1.6327,-1.6307,-1.6252,-1.6096,-1.6218,-1.6368,-1.651,-1.6608,-1.6797,-1.7087,-1.7161,-1.727,-1.7392,-1.7467,-1.7589,-1.767,-1.7684,-1.7684,-1.7684,-1.7684,-1.7602,-1.7406,-1.7406,-1.7331,-1.71,-1.7039,-1.6863,-1.6554,-1.6402,-1.6259,-1.6164,-1.6042,-1.5845,-1.5587,-1.5519,-1.5398,-1.5181,-1.5181,-1.5147,-1.5059,-1.4821,-1.4654,-1.4552,-1.4299,-1.4318,-1.4468,-1.4415,-1.4703,-1.5089,-1.5219,-1.5491,-1.5777,-1.5869,-1.595,-1.5983,-1.5951,-1.5837,-1.5707,-1.5424,-1.5342,-1.522,-1.5047,-1.5006,-1.5006,-1.5006,-1.5006,-1.4982,-1.4909,-1.4708,-1.4557,-1.4557,-1.444,-1.4286,-1.4225,-1.4042,-1.3839,-1.3555,-1.353,-1.3482,-1.341,-1.3474,-1.3482,-1.341,-1.3474,-1.353,-1.353,-1.353,-1.3579,-1.3677,-1.3758,-1.3812,-1.3961,-1.4107,-1.4099,-1.3363,-1.3729,-1.391,-1.3842,-1.4455,-1.4991,-1.4855,-1.5106,-1.5438,-1.571,-1.5845,-1.6044,-1.6259,-1.6341,-1.6415,-1.6506,-1.6619,-1.6585,-1.6395,-1.6368,-1.63,-1.6103,-1.6178,-1.63,-1.6449,-1.6588,-1.6804,-1.7114,-1.7209,-1.7372,-1.7575,-1.7629,-1.7758,-1.7915,-1.7915,-1.7915,-1.7915,-1.7915,-1.7792,-1.7595,-1.7595,-1.7453,-1.7256,-1.7209,-1.6992,-1.6639,-1.6449,-1.6307,-1.6198,-1.6117,-1.5927,-1.5696,-1.5607,-1.5479,-1.5242,-1.5201,-1.5181,-1.5147,-1.4889,-1.4728,-1.4654,-1.4441,-1.4479,-1.4538,-1.4371,-1.4791,-1.5291,-1.5236,-1.5505,-1.5875,-1.5966,-1.6007,-1.6007,-1.6007,-1.5966,-1.5861,-1.5642,-1.5512,-1.5358,-1.509,-1.5039,-1.5006,-1.5006,-1.5006,-1.5006,-1.5006,-1.4901,-1.4781,-1.4781,-1.4619,-1.4403,-1.427,-1.4245,-1.4123,-1.3779,-1.3755,-1.3717,-1.3565,-1.3644,-1.3652,-1.3522,-1.3644,-1.3706,-1.3755,-1.3755,-1.388,-1.405,-1.405,-1.4115,-1.4245,-1.4245,-1.4278,-1.3295,-1.3722,-1.4319,-1.4448,-1.4835,-1.5248,-1.5492,-1.5723,-1.5928,-1.6035,-1.6069,-1.6123,-1.6279,-1.6422,-1.6564,-1.6669,-1.687,-1.6863,-1.6558,-1.6517,-1.6408,-1.6117,-1.6083,-1.6151,-1.63,-1.6527,-1.6815,-1.6978,-1.7249,-1.7426,-1.7595,-1.7772,-1.786,-1.7915,-1.7915,-1.7915,-1.7915,-1.7915,-1.7792,-1.7595,-1.7595,-1.7514,-1.7405,-1.7263,-1.7107,-1.6951,-1.6646,-1.651,-1.6483,-1.6198,-1.6037,-1.5881,-1.5689,-1.554,-1.5384,-1.5235,-1.5181,-1.516,-1.5064,-1.4869,-1.4667,-1.4557,-1.4407,-1.4238,-1.3933,-1.4137,-1.4543,-1.4685,-1.5051,-1.5505,-1.5883,-1.6007,-1.6007,-1.6007,-1.591,-1.5821,-1.5804,-1.5496,-1.5205,-1.5197,-1.509,-1.5006,-1.5006,-1.5006,-1.5006,-1.5006,-1.4998,-1.4998,-1.4998,-1.4806,-1.4589,-1.4411,-1.4387,-1.4351,-1.4172,-1.42,-1.4083,-1.3896,-1.3888,-1.3888,-1.3888,-1.3888,-1.3977,-1.4192,-1.42,-1.4245,-1.4379,-1.4379,-1.4379,-1.4387,-1.4387,-1.4484,-1.3994,-1.4462,-1.4896,-1.4943,-1.5343,-1.5704,-1.5757,-1.59,-1.6037,-1.599,-1.5852,-1.5805,-1.5803,-1.5981,-1.6157,-1.6415,-1.6754,-1.691,-1.6648,-1.6842,-1.6781,-1.6293,-1.6313,-1.632,-1.6171,-1.6341,-1.6646,-1.7087,-1.7216,-1.7419,-1.7772,-1.7846,-1.7914,-1.8002,-1.9615,-1.9708,-1.8165,-1.9674,-1.9578,-1.7935,-1.9305,-1.9012,-1.7466,-1.8848,-1.852,-1.6815,-1.6612,-1.6469,-1.6368,-1.6164,-1.5934,-1.571,-1.5607,-1.5486,-1.5255,-1.5201,-1.5181,-1.516,-1.5064,-1.4936,-1.4848,-1.4597,-1.4482,-1.4411,-1.4312,-1.4572,-1.4975,-1.5142,-1.5463,-1.5866,-1.6145,-1.6088,-1.6031,-1.6186,-1.6039,-1.5918,-1.5837,-1.5683,-1.552,-1.5245,-1.5148,-1.5106,-1.5023,-1.5006,-1.5006,-1.5006,-1.5006,-1.5006,-1.5006,-1.4949,-1.4814,-1.4635,-1.4611,-1.4546,-1.4359,-1.4351,-1.4282,-1.4261,-1.4217,-1.4205,-1.4091,-1.4083,-1.4115,-1.4217,-1.4217,-1.4261,-1.4395,-1.4318,-1.4318,-1.4395,-1.4395,-1.4427,-1.457,-1.4964,-1.5289,-1.5445,-1.5731,-1.5969,-1.5915,-1.5976,-1.5976,-1.5717,-1.554,-1.5445,-1.5289,-1.5438,-1.5717,-1.6083,-1.6483,-1.6761,-1.6822,-1.6998,-1.6958,-1.6517,-1.6493,-1.6479,-1.6341,-1.7111,-1.7513,-1.7133,-1.7263,-1.7507,-1.7902,-1.797,-1.7989,-1.8091,-1.9636,-1.9766,-1.8321,-1.9729,-1.9618,-1.8058,-1.9346,-1.907,-1.7473,-1.8854,-1.8526,-1.6822,-1.6615,-1.6925,-1.7524,-1.7364,-1.7496,-1.782,-1.7043,-1.6572,-1.6238,-1.5483,-1.5181,-1.5167,-1.5079,-1.5057,-1.4936,-1.474,-1.4604,-1.4493,-1.4458,-1.4665,-1.4948,-1.501,-1.5262,-1.5611,-1.5887,-1.5881,-1.5866,-1.6145,-1.6088,-1.5975,-1.5894,-1.5821,-1.5707,-1.5472,-1.5286,-1.5164,-1.5082,-1.5047,-1.5006,-1.5006,-1.5006,-1.5006,-1.5006,-1.5006,-1.4958,-1.4814,-1.4797,-1.4724,-1.4508,-1.4492,-1.4468,-1.4395,-1.4395,-1.4346,-1.427,-1.427,-1.4302,-1.4367,-1.4367,-1.4424,-1.4492,-1.4481,-1.4481,-1.4492,-1.4492,-1.4562,-1.5037,-1.5215,-1.5513,-1.5847,-1.6024,-1.6042,-1.5935,-1.5901,-1.5772,-1.5323,-1.5261,-1.5158,-1.476,-1.494,-1.5341,-1.5918,-1.6216,-1.6548,-1.7088,-1.7117,-1.7017,-1.6892,-1.693,-1.693,-1.6917,-1.8875,-1.927,-1.7216,0.0,-1.7971,-1.8088,-1.8232,-1.8265,-1.8111,-1.8366,-1.8435,-1.8335,-1.8179,-1.8023,-1.7915,-1.8033,-1.782,-1.7419,-1.7527,-1.7363,-1.6971,-1.6763,-1.7785,-1.9533,-1.9306,-2.0211,-2.1488,-1.957,-1.863,-1.8167,-1.6216,-1.5509,-1.5509,-1.5509,-1.5279,-1.5023,-1.501,-1.476,-1.4496,-1.4377,-1.4393,-1.4508,-1.4393,-1.4528,-1.4826,-1.528,-1.5404,-1.552,-1.5891,-1.6007,-1.6007,-1.6007,-1.591,-1.5821,-1.5812,-1.5488,-1.5197,-1.5197,-1.509,-1.5006,-1.5006,-1.5006,-1.5006,-1.5006,-1.5006,-1.5006,-1.5006,-1.5006,-1.4941,-1.4732,-1.4724,-1.4643,-1.4435,-1.4419,-1.4419,-1.4411,-1.4411,-1.4492,-1.4708,-1.4708,-1.4716,-1.4724,-1.4917,-1.4909,-1.4708,-1.4708,-1.4797,-1.5235,-1.5601,-1.5927,-1.6051,-1.6056,-1.6042,-1.5935,-1.5901,-1.5772,-1.5323,-1.6056,-1.6295,-1.4578,-1.5709,-1.7119,-1.7742,-1.7263,-1.7457,-1.9354,-1.8496,-1.8197,-1.9535,-1.9748,-1.9725,-1.9571,-2.0248,-1.979,-1.7629,-2.0682,-2.2056,-2.0709,-2.0888,-2.02,-1.8466,-2.0194,-2.033,-1.8477,-1.8213,-1.8023,-1.7922,-1.961,-1.9384,-1.7473,-1.9225,-1.8894,-1.6971,-1.6763,-1.6917,-1.7312,-1.717,-1.7212,-1.7528,-1.8319,-1.8534,-1.8498,-1.929,-1.9593,-1.9593,-1.9593,-1.7662,-1.5092,-1.4869,-1.4701,-1.4656,-1.4597,-1.4641,-1.4678,-1.4899,-1.5038,-1.5093,-1.522,-1.5417,-1.5576,-1.575,-1.5897,-1.6007,-1.6007,-1.5966,-1.5934,-1.5796,-1.5488,-1.5197,-1.5197,-1.509,-1.5006,-1.5006,-1.5006,-1.5006,-1.5006,-1.5006,-1.5006,-1.5006,-1.5006,-1.499,-1.4941,-1.4941,-1.4917,-1.483,-1.4868,-1.4773,-1.4643,-1.4635,-1.4659,-1.4708,-1.4708,-1.4773,-1.4941,-1.4814,-1.4749,-1.4708,-1.4708,-1.4732,-1.556,-1.5839,-1.6083,-1.6083,-1.6078,-1.5956,-1.567,-1.5561,-1.5519,-1.5573,-1.5683,-1.566,-1.5425,-1.6244,-1.7113,-1.7525,-1.7604,-1.8326,-2.0466,-1.9862,-1.9698,-2.0981,-2.1097,-2.0633,-1.9554,-2.1429,-2.2281,-2.1158,-2.145,-2.1226,-2.0177,-2.0335,-1.9846,-1.8531,-1.9841,-2.033,-1.9842,-1.8664,-1.9059,-2.0921,-2.0168,-2.0031,-2.0396,-2.0663,-2.047,-1.9871,0.0,-2.0182,-2.0866,-2.0679,-2.0421,-2.0102,-2.0076,-1.9383,-1.8403,-1.8497,-1.8524,-1.8617,-1.9491,-1.8338,-1.6449,-1.6272,-1.553,-1.4692,-1.4709,-1.4583,-1.4489,-1.4664,-1.4672,-1.47,-1.5092,-1.5323,-1.5528,-1.5871,-1.6068,-1.6096,-1.6023,-1.6007,-1.595,-1.5853,-1.561,-1.5447,-1.5335,-1.5277,-1.5204,-1.5204,-1.5139,-1.5082,-1.5082,-1.5055,-1.5006,-1.5006,-1.5006,-1.5006,-1.5006,-1.5006,-1.5006,-1.5006,-1.5006,-1.4958,-1.483,-1.4822,-1.4822,-1.4822,-1.4822,-1.483,-1.4854,-1.483,-1.4781,-1.4708,-1.4789,-1.4822,-1.5956,-1.6058,-1.611,-1.611,-1.6003,-1.5738,-1.5323,-1.5011,-1.5108,-1.5902,-1.4929,-1.4538,-1.6605,-1.6823,-1.6718,-1.6908,-1.8095,-1.9602,-2.1297,-2.121,-2.1416,-2.2494,-2.2159,-2.1222,-1.9711,-2.326,-2.5611,-2.5543,-2.155,-1.9324,-1.9744,-1.9897,-1.9798,-1.9441,-1.9427,-2.0275,-2.2063,-2.0001,-2.0954,-2.478,-2.0748,-2.0746,-2.4196,-2.2104,-2.2056,-2.3625,-2.3597,-2.4551,-2.6065,-2.5822,-2.5472,-2.4931,-2.2996,-2.1054,-1.9042,-1.739,-1.6759,-1.6993,-1.8702,-1.8934,-1.8516,-1.8491,-1.7126,-1.5528,-1.544,-1.5015,-1.4559,-1.4495,-1.4174,-1.4071,-1.4872,-1.5079,-1.529,-1.6003,-1.6199,-1.6176,-1.6072,-1.6023,-1.5958,-1.5837,-1.5829,-1.5723,-1.5577,-1.5528,-1.5512,-1.5512,-1.5343,-1.5229,-1.5205,-1.5082,-1.5006,-1.5006,-1.5006,-1.5006,-1.5006,-1.5006,-1.5006,-1.5006,-1.5006,-1.5006,-1.5006,-1.5006,-1.5006,-1.5006,-1.5006,-1.4895,-1.4741,-1.4895,-1.4925,-1.4749,-1.4933,-1.5006,-1.6198,-1.6252,-1.6273,-1.6273,-1.5879,-1.5432,-1.5228,-1.4731,-1.4589,-1.5716,-1.5644,-1.5739,-1.6782,-1.807,-1.9084,-1.956,-2.0955,-2.2452,-2.3676,-2.2487,-2.2985,-2.6992,-2.5877,-2.5419,-2.702,-2.7915,-2.7665,-2.5863,-2.4936,-2.532,-2.7275,-2.7609,-2.6724,-2.451,-2.431,-2.4336,-2.4486,-2.3928,-2.4056,-2.478,-2.4019,-2.3945,-2.451,-2.3861,-2.371,-2.3937,-2.3715,0.0,-2.3917,-2.3653,-2.342,-2.3238,-2.3926,-2.3989,-2.3707,-2.464,-2.4944,-2.499,-2.5366,-2.3331,-2.0575,-2.0455,-2.0171,-1.978,-1.9446,-1.822,-1.688,-1.6649,-1.5462,-1.4234,-1.4286,-1.4555,-1.4902,-1.5298,-1.5578,-1.5798,-1.6184,-1.6104,-1.5999,-1.5966,-1.5878,-1.5804,-1.5731,-1.561,-1.5512,-1.5512,-1.5488,-1.5375,-1.5221,-1.5082,-1.5006,-1.5006,-1.5006,-1.5006,-1.5006,-1.5006,-1.5006,-1.5006,-1.5006,-1.5006,-1.5006,-1.5006,-1.5006,-1.5006,-1.5006,-1.499,-1.4958,-1.499,-1.499,-1.4958,-1.499,-1.5006,-1.6246,-1.6252,-1.6191,-1.6191,-1.5737,-1.5215,-1.4903,-1.4258,-1.4049,-1.5135,-1.4701,-1.4626,-1.6377,-1.7954,-1.9121,-1.9418,-2.0488,-2.2355,-2.5364,-2.2954,-2.2875,-2.8338,-2.7004,-2.6106,-2.7422,-2.8667,-2.8989,-2.7911,-2.9039,-2.9106,-2.7732,-2.7776,-2.717,-2.5817,-2.5618,-2.5954,-2.6958,-2.5538,-2.6028,-2.8425,-2.5974,-2.5904,-2.7874,-2.6533,-2.641,-2.7212,-2.7104,0.0,-2.6916,-2.6667,-2.5769,-2.4613,-2.5029,-2.4361,-2.3203,-2.3913,-2.4034,-2.4075,-2.5126,-2.4247,-2.2658,-2.2602,-2.1113,-1.9488,-2.0338,-1.9865,-1.892,-1.8787,-1.8032,-1.7028,-1.6241,-1.6181,-1.6186,-1.5772,-1.5903,-1.6201,-1.6404,-1.6381,-1.6324,-1.6324,-1.6251,-1.6236,-1.6236,-1.604,-1.5926,-1.5926,-1.5764,-1.5585,-1.5367,-1.5309,-1.5179,-1.5023,-1.5006,-1.5006,-1.5006,-1.5006,-1.5006,-1.5006,-1.5006,-1.5006,-1.5006,-1.5006,-1.5006,-1.5006,-1.5006,-1.5006,-1.5006,-1.5006,-1.5006,-1.5006,-1.5006,-1.5006,-1.6205,-1.6198,-1.613,-1.613,-1.5608,-1.4984,-1.4597,-1.3838,-1.3502,-1.4593,-1.3525,-1.3226,-1.5895,-1.755,-1.8608,-1.8834,-1.9922,-2.2238,-2.644,-2.3235,-2.2787,-2.9194,-2.7484,-2.628,-2.7553,-2.9399,-3.0473,-3.0473,-3.2287,-3.1701,-2.7894,-2.7677,-2.7566,-2.7336,-2.7115,-2.7798,-2.9424,-2.7332,-2.8156,-3.1754,-2.8048,-2.7984,-3.1031,-2.9108,-2.9003,-3.0298,-3.0238,0.0,0.0,-2.9912,-2.8676,-2.6937,-2.6509,-2.4945,-2.2976,-2.2813,-2.2593,-2.2596,-2.4156,-2.443,-2.4156,-2.4567,-2.251,-1.9979,-2.0672,-2.0894,-2.0852,-2.0406,-2.0068,-1.9656,-1.8523,-1.8261,-1.7956,-1.6703,-1.673,-1.6966,-1.6542,-1.6534,-1.6584,-1.6584,-1.6584,-1.661,-1.6527,-1.643,-1.6341,-1.6259,-1.604,-1.5813,-1.5593,-1.5569,-1.5447,-1.5153,-1.5088,-1.5047,-1.5006,-1.5039,-1.5025,-1.5025,-1.5096,-1.5104,-1.5025,-1.5025,-1.5025,-1.5025,-1.5025,-1.5025,-1.5025,-1.5025,-1.5025,-1.5025,-1.5025,-1.5025,-1.613,-1.6191,-1.6286,-1.6286,-1.5527,-1.4687,-1.455,-1.3512,-1.2954,-1.4264,-1.3274,-1.3007,-1.5885,-1.7398,-1.8508,-1.9299,-2.174,-2.4281,-2.6454,-2.3531,-2.3847,-3.1056,-2.846,-2.7827,-3.2287,-3.2904,-3.3028,-3.3028,-3.3252,-3.322,-3.2747,-3.2747,-3.2629,-3.2368,-3.2053,-3.1944,-3.1869,-3.1391,-3.1368,-3.1807,-3.1368,-3.1213,-3.1348,-3.0898,-3.0634,-3.0564,-3.0322,0.0,0.0,-2.9912,-2.9535,-2.9049,-2.8535,-2.7902,-2.7203,-2.6955,-2.6695,-2.647,-2.6664,-2.5594,-2.4385,-2.6152,-2.6458,-2.5468,-2.1803,-2.1846,-2.2692,-2.0665,-2.0025,-1.9873,-1.9743,-1.97,-1.9305,-1.7733,-1.806,-1.8179,-1.6353,-1.6321,-1.6584,-1.6584,-1.6584,-1.6527,-1.6357,-1.6454,-1.6446,-1.608,-1.6178,-1.6129,-1.5796,-1.5788,-1.5675,-1.5488,-1.5278,-1.5147,-1.5023,-1.5122,-1.5173,-1.5173,-1.5335,-1.5351,-1.5181,-1.5173,-1.5173,-1.5173,-1.5173,-1.5173,-1.5173,-1.5173,-1.5173,-1.5173,-1.5173,-1.5173,-1.611,-1.6198,-1.6151,-1.6056,-1.5384,-1.4606,-1.4319,-1.3342,-1.2615,-1.3065,-1.2613,-1.2478,-1.3692,-1.5319,-1.711,-1.9104,-1.9263,-2.0945,-2.6167,-2.1604,-2.1105,-3.0171,-2.7895,-2.7692,-3.3094,-3.3473,-3.3376,-3.3376,-3.3376,-3.3376,-3.3376,-3.3376,-3.334,-3.3263,-3.2821,-3.2531,-3.2435,-3.2012,-3.1807,-3.1807,-3.1638,-3.1409,-3.1143,-3.0877,-3.0624,-3.0371,-3.0262,0.0,0.0,-3.0093,-2.9888,-2.9598,-2.9236,-2.8765,-2.8246,-2.7811,-2.7486,-2.7244,-2.7042,-2.647,-2.5776,-2.5354,-2.6049,-2.6685,-2.5003,-2.4079,-2.3605,-2.3721,-2.2768,-2.1685,-2.1605,-2.0958,-2.0236,-1.9803,-2.0269,-2.0292,-1.8657,-1.8432,-1.8268,-1.7109,-1.6901,-1.6877,-1.6803,-1.6674,-1.6527,-1.6389,-1.6332,-1.617,-1.5861,-1.5959,-1.5943,-1.5553,-1.5408,-1.5374,-1.5301,-1.5366,-1.5367,-1.5367,-1.5472,-1.544,-1.5367,-1.5367,-1.5367,-1.5367,-1.5367,-1.5367,-1.5367,-1.5254,-1.5197,-1.5197,-1.5122,-1.513,-1.5832,-1.5995,-1.5967,-1.582,-1.5228,-1.4566,-1.4116,-1.3295,-1.2569,-1.2338,-1.2203,-1.22,-1.2271,-1.3945,-1.6134,-1.8834,-1.755,-1.8709,-2.5996,-2.0472,-1.9101,-2.8365,-2.6237,-2.6206,-3.1888,-3.3004,-3.3376,-3.3376,-3.3376,-3.3376,-3.3376,-3.3376,-3.3376,-3.3376,-3.2912,-3.2592,-3.2592,-3.2073,-3.1807,-3.1807,-3.1529,-3.1252,-3.0986,-3.0733,-3.0467,-3.0214,-3.0214,0.0,0.0,-3.0214,-3.0008,-2.9658,-2.9477,-2.9031,-2.8439,-2.798,-2.7642,-2.7377,-2.7078,-2.6981,-2.6755,-2.5411,-2.5867,-2.6981,-2.6981,-2.5874,-2.4677,-2.531,-2.4273,-2.2954,-2.2815,-2.2014,-2.1332,-2.1575,-2.2126,-2.2179,-2.0612,-2.0515,-2.0134,-1.8278,-1.7928,-1.7745,-1.7126,-1.6868,-1.6698,-1.6592,-1.6519,-1.6357,-1.6048,-1.6186,-1.6162,-1.5788,-1.5659,-1.5594,-1.5528,-1.5561,-1.5593,-1.5593,-1.5642,-1.565,-1.5593,-1.5593,-1.5593,-1.5593,-1.5593,-1.5593,-1.5593,-1.5463,-1.5398,-1.539,-1.526,-1.5277,-1.5194,-1.5568,-1.5833,-1.5486,-1.5025,-1.4539,-1.3937,-1.3383,-1.2873,-1.2379,-1.2291,-1.2291,-1.2291,-1.3875,-1.6022,-1.8603,-1.7706,-1.9123,-2.6045,-2.0795,-1.8916,-2.5922,-2.3425,-2.3242,-2.8619,-3.1732,-3.3376,-3.3376,-3.3376,0.0,-3.3376,-3.3376,-3.3376,-3.3376,-3.2912,-3.2592,-3.2592,-3.2073,-3.1807,-3.1807,-3.1529,-3.1252,-3.0986,-3.0733,-3.0467,-3.0214,0.0,0.0,0.0,-3.0214,-2.99,-2.9405,-2.9405,-2.891,-2.8174,-2.7908,-2.7642,-2.7377,-2.7078,-2.6981,-2.6981,-2.6981,-2.6981,-2.6981,-2.6981,-2.6801,-2.6181,-2.4261,-2.3537,-2.3211,-2.2965,-2.29,-2.2847,-2.2611,-2.3299,-2.346,-2.1597,-2.1932,-2.2019,-2.0211,-1.9873,-1.9209,-1.7145,-1.6955,-1.6982,-1.6633,-1.6687,-1.6736,-1.6592,-1.6414,-1.63,-1.6292,-1.6104,-1.5853,-1.5545,-1.5675,-1.5812,-1.5812,-1.5902,-1.5959,-1.5821,-1.5812,-1.5812,-1.5812,-1.5812,-1.5812,-1.5812,-1.5812,-1.5804,-1.5804,-1.5804,-1.5804,-1.4496,-1.4753,-1.4862,-1.457,-1.4306,-1.395,-1.3498,-1.3085,-1.2732,-1.2488,-1.2359,-1.2318,-1.242,-1.2933,-1.4782,-1.9112,-1.7056,-1.7233,-2.3823,-2.1172,-2.0531,-2.595,-2.8454,-3.0388,-3.1913,-3.3008,-3.3626,-3.3432,-3.3376,-3.3376,-3.3376,-3.3376,-3.3335,-3.3111,-3.2785,-3.2495,-3.2326,-3.1976,-3.1807,-3.1807,-3.1336,-3.1083,-3.0986,-3.0539,-3.0298,0.0,0.0,0.0,0.0,-3.0214,-2.9996,-2.9658,-2.9477,-2.9139,-2.8681,-2.8041,-2.7763,-2.763,-2.7138,-2.6981,-2.6981,-2.6981,-2.6981,-2.6981,-2.6981,-2.6003,-2.4697,-2.3944,-2.4442,-2.4948,-2.3533,-2.4173,-2.491,-2.3798,-2.4806,-2.56,-2.4185,-2.4096,-2.378,-2.2093,-2.176,-2.1135,-1.9234,-1.8858,-1.8346,-1.6951,-1.6768,-1.6744,-1.66,-1.6641,-1.659,-1.6503,-1.6446,-1.6267,-1.5869,-1.5885,-1.5959,-1.5959,-1.5975,-1.5983,-1.5918,-1.5959,-1.5959,-1.5959,-1.5959,-1.5959,-1.5959,-1.5837,-1.5812,-1.5812,-1.5902,-1.6024,-1.379,-1.415,-1.4285,-1.4048,-1.3871,-1.3612,-1.3261,-1.299,-1.2759,-1.2549,-1.2433,-1.24,-1.2488,-1.2596,-1.3933,-1.7736,-1.6019,-1.6101,-2.1552,-2.0853,-2.1342,-2.5481,-2.9549,-3.1976,-3.1883,-3.2963,-3.3569,-3.3432,-3.3335,-3.3263,-3.3263,-3.3147,-3.3009,-3.2688,-3.2628,-3.2519,-3.235,-3.1988,-3.1759,-3.1638,-3.1203,-3.095,-3.0829,-3.0407,-3.0214,0.0,0.0,0.0,0.0,-3.0105,-2.99,-2.9622,-2.9357,-2.9103,-2.8789,-2.8186,-2.7896,-2.7751,-2.7283,-2.7066,-2.6981,-2.6981,-2.6981,-2.6981,-2.6981,-2.6152,-2.5002,-2.4108,-2.4598,-2.509,-2.3784,-2.4342,-2.5175,-2.4883,-2.5898,-2.6709,-2.5945,-2.5909,-2.5564,-2.3855,-2.354,-2.3021,-2.1373,-2.1012,-2.0563,-1.9475,-1.8645,-1.8079,-1.8001,-1.7293,-1.6768,-1.6698,-1.6625,-1.6487,-1.6267,-1.6145,-1.6104,-1.6104,-1.6104,-1.6104,-1.6104,-1.6104,-1.6072,-1.6007,-1.6072,-1.6104,-1.6104,-1.6097,-1.604,-1.5975,-1.6089,-1.612,0.0,-1.3607,-1.3905,-1.3707,-1.3592,-1.3471,-1.3166,-1.3057,0.0,-1.2549,-1.2494,-1.2515,-1.2556,-1.2766,-1.3514,-1.5256,-1.4865,-1.5661,-1.9525,-2.0258,-2.165,-2.4991,-2.7753,-2.9382,-2.9315,-3.1827,-3.3376,-3.3376,-3.3147,-3.2978,-3.2978,-3.2779,-3.2483,-3.2242,-3.2447,-3.2555,-3.2531,-3.2036,-3.165,-3.1384,-3.1107,-3.0841,-3.06,-3.0334,-3.0214,0.0,0.0,0.0,0.0,-2.9936,-2.9658,-2.9381,-2.9139,-2.8874,-2.8584,-2.8306,-2.8041,-2.7775,-2.751,-2.7198,-2.6981,-2.6981,-2.6981,-2.6981,-2.6981,-2.6981,-2.6606,-2.4807,-2.4293,-2.4193,-2.384,-2.3832,-2.4273,-2.5707,-2.6499,-2.6851,-2.6739,-2.7046,-2.6915,-2.5358,-2.5082,-2.4679,-2.349,-2.3272,-2.3337,-2.3466,-2.1825,-2.0504,-2.0485,-1.8479,-1.7074,-1.6998,-1.6816,-1.6667,-1.66,-1.643,-1.6324,-1.6324,-1.6324,-1.6366,-1.6525,-1.6408,-1.6285,-1.6254,-1.6285,-1.6324,-1.6324,-1.6495,-1.6503,-1.6341,-1.6341,-1.6259,-1.2104,0.0,-1.2671,-1.2554,-1.2623,-1.2691,0.0,-1.2562,-1.2698,-1.24,-1.2427,-1.2644,-1.3105,-1.2874,-1.3722,-1.7201,-1.5898,-1.5658,-1.9069,-2.1893,-2.4779,-2.7953,-3.0754,-3.1639,-2.978,-3.1892,-3.3376,-3.3376,-3.3147,-3.2978,-3.2978,-3.2779,-3.2555,-3.2495,-3.2362,-3.2193,-3.2,-3.1662,-3.1457,-3.1384,-3.0914,-3.066,-3.06,-3.0334,-3.0214,0.0,0.0,0.0,-3.0214,-3.0141,-2.9839,-2.9393,-2.9332,-2.9031,-2.8584,-2.8306,-2.8041,-2.7775,-2.751,-2.7198,-2.6981,-2.6981,-2.6981,-2.6981,-2.6981,-2.6981,-2.6891,-2.647,-2.6334,-2.5946,-2.441,-2.5082,-2.5944,-2.4867,-2.5818,-2.6594,-2.5204,-2.5024,-2.4989,-2.4759,-2.4713,-2.4757,-2.4988,-2.4988,-2.4604,-2.3632,-2.3057,-2.2652,-2.2473,-2.0852,-1.9548,-1.9193,-1.8006,-1.7088,-1.6768,-1.6625,-1.6511,-1.6511,-1.6511,-1.7138,-1.8553,-1.7264,-1.7163,-1.849,-1.7205,-1.6511,-1.6511,-1.656,-1.6633,-1.6679,-1.6679,-1.6663,-1.1698,-1.2101,-1.2488,-1.252,-1.2635,-1.2724,-1.2628,-1.2549,-1.2501,-1.2406,-1.2393,-1.2569,-1.3105,-1.3098,-1.3707,-1.5888,-1.5428,-1.6075,-1.9638,-2.1882,-2.4731,-2.9058,-3.0846,-3.1612,-3.1432,-3.2623,-3.3376,-3.3376,-3.3014,-3.284,-3.284,-3.2447,-3.2229,-3.2229,-3.2097,-3.2012,-3.1988,-3.159,-3.1324,-3.1203,-3.0805,-3.0539,-3.0419,-3.0286,-3.0214,0.0,0.0,0.0,-3.002,-3.002,-2.9707,-2.9224,-2.9224,-2.8982,-2.8608,-2.8451,-2.8222,-2.7968,-2.7824,-2.7534,-2.7162,-2.7162,-2.7078,-2.6981,-2.6981,-2.6981,-2.6981,-2.6981,-2.6981,-2.6755,-2.5685,-2.6197,-2.6755,-2.5685,-2.6243,-2.6707,-2.5739,-2.5523,-2.5623,-2.5802,-2.5831,-2.6021,-2.6608,-2.6653,-2.6512,-2.6163,-2.5267,-2.4652,-2.4749,-2.31,-2.1818,-2.1575,-1.9867,-1.9044,-1.9831,-1.8001,-1.6787,-1.6714,-1.6706,-1.7126,-1.8091,-1.7212,-1.7545,-1.9401,-1.7716,-1.7293,-1.8191,-1.7416,-1.7031,-1.693,-1.693,-1.6841,-1.1701,-1.225,-1.2793,-1.2766,-1.2901,-1.3009,-1.3037,-1.2724,-1.242,-1.2515,-1.244,-1.2508,-1.3043,-1.337,-1.3612,-1.3795,-1.5038,-1.7269,-2.1012,-2.2092,-2.4311,-2.9197,-3.0102,-3.0936,-3.2691,-3.3152,-3.3376,-3.3376,-3.2917,-3.2628,-3.2592,-3.2133,-3.1855,-3.1807,-3.1807,-3.1916,-3.2133,-3.1602,-3.1191,-3.0938,-3.0672,-3.0431,-3.0214,-3.0214,-3.0214,-3.0214,0.0,0.0,-2.9803,-2.9839,-2.955,-2.9067,-2.9067,-2.891,-2.8681,-2.8644,-2.8439,-2.8198,-2.8162,-2.7848,-2.7473,-2.7391,-2.7268,-2.7042,-2.6994,-2.6981,-2.6981,-2.6981,-2.6981,-2.6981,-2.6981,-2.6981,-2.6981,-2.6981,-2.6981,-2.6936,-2.6606,-2.6561,-2.6638,-2.6758,-2.6811,-2.7035,-2.7806,-2.794,-2.8195,-2.8963,-2.7573,-2.6551,-2.6961,-2.5211,-2.3941,-2.392,-2.2077,-2.157,-2.3355,-2.0166,-1.7989,-1.7844,-1.7221,-1.6849,-1.6849,-1.7134,-1.7914,-1.9244,-1.7885,-1.801,-1.971,-1.8279,-1.7441,-1.7193,-1.7193,-1.7015,-1.2081,-1.2637,-1.2901,-1.204,-1.24,-1.2873,-1.2383,-1.2594,-1.2867,-1.2718,-1.2638,-1.2835,-1.3531,-1.3559,-1.377,-1.478,-1.74,-2.0367,-2.3601,-2.6182,-2.8167,-2.9239,-3.1452,-3.2163,-3.0417,-3.2163,-3.3376,-3.3376,-3.313,-3.2821,-3.2592,-3.2302,-3.2036,-3.1819,-3.1807,-3.1831,-3.1867,-3.1324,-3.0926,-3.066,-3.0407,-3.025,-3.0214,-3.0214,-3.0214,-3.0214,0.0,-3.0057,-2.9815,-3.0057,-2.9827,-2.9344,-2.9344,-2.9188,-2.8922,-2.8657,-2.8439,-2.8174,-2.7944,-2.7824,-2.7715,-2.7498,-2.7343,-2.7317,-2.7054,-2.6981,-2.6981,-2.6981,-2.6981,-2.6981,-2.6981,-2.6981,-2.6981,-2.6981,-2.6981,-2.6561,-2.4898,-2.4567,-2.4556,-2.4615,-2.4604,-2.5241,-2.7394,-2.7768,-2.7915,-2.852,-2.8346,-2.8187,-2.8423,-2.6941,-2.5881,-2.589,-2.4297,-2.3336,-2.3476,-2.2903,-2.2496,-2.2465,-1.9069,-1.7071,-1.7071,-1.8699,-1.9008,-1.7742,-1.7604,-1.7657,-1.7997,-1.7714,-1.757,-1.7514,-1.7514,-1.7453,-1.187,-1.242,-1.2759,-1.204,-1.2758,-1.3506,-1.3105,-1.299,-1.3071,-1.324,-1.3139,-1.3173,-1.3844,-1.4122,-1.4611,-1.5723,-1.7149,-1.922,-2.2379,-2.2879,-2.4559,-2.8907,-2.9465,-3.0067,-3.1556,-3.2629,-3.3171,-3.3171,-3.2785,-3.2495,-3.2386,-3.2133,-3.1928,-3.1807,-3.1662,-3.1517,-3.1372,-3.0986,-3.0865,-3.1022,-3.0769,-3.0636,-3.0636,-3.0491,-3.0431,-3.0419,0.0,-3.0057,-2.9815,-3.0105,-2.99,-2.9417,-2.9562,-2.9369,-2.8982,-2.8717,-2.8548,-2.8415,-2.8294,-2.8149,-2.8005,-2.7884,-2.7655,-2.7401,-2.7235,-2.709,-2.7018,-2.7162,-2.709,-2.6981,-2.6981,-2.6981,-2.6981,-2.6981,-2.6981,-2.6755,-2.5867,-2.5685,-2.5685,-2.5685,-2.5685,-2.6004,-2.7105,-2.7332,-2.7468,-2.7965,-2.8056,-2.8198,-2.861,-2.798,-2.7595,-2.7826,-2.6146,-2.5507,-2.6828,-2.482,-2.3499,-2.3499,-2.1628,-2.0072,-1.9027,-1.9864,-1.9954,-1.9026,-1.8188,-1.8242,-1.9272,-1.838,-1.7884,-1.7741,-1.7741,-1.8233,-1.1775,-1.2216,-1.2569,-1.237,-1.3111,-1.3851,-1.3761,-1.3444,-1.3288,-1.3835,-1.3702,-1.3608,-1.4037,-1.4624,-1.5391,-1.6361,-1.7557,-1.8998,-2.0921,-2.0763,-2.2668,-2.8626,-2.7897,-2.8548,-3.2805,-3.3074,-3.2954,-3.2881,-3.2592,-3.2326,-3.2205,-3.206,-3.194,-3.1807,-3.1602,-3.1397,-3.1191,-3.0986,-3.0998,-3.1203,-3.0998,-3.0938,-3.0986,-3.0793,-3.066,-3.06,-3.0395,-3.0117,-2.9815,-3.0105,-2.9936,-2.9513,-2.9719,-2.9477,-2.8982,-2.8717,-2.862,-2.862,-2.862,-2.8475,-2.8294,-2.8222,-2.7932,-2.7594,-2.7534,-2.7377,-2.721,-2.7461,-2.7365,-2.715,-2.709,-2.703,-2.6981,-2.6981,-2.6981,-2.6981,-2.6981,-2.6981,-2.6981,-2.6981,-2.6981,-2.6981,-2.6981,-2.7042,-2.719,-2.748,-2.7608,-2.7814,-2.8249,-2.8294,-2.852,-2.8957,-2.7586,-2.7447,-2.9573,-2.6828,-2.502,-2.502,-2.4052,-2.2844,-2.1338,-2.1308,-2.1058,-2.0518,-1.9286,-1.9116,-2.0107,-1.8845,-1.8103,-1.7981,-1.7981,-1.8717,-1.225,-1.2379,-1.2413,-1.2839,-1.3111,-1.335,-1.3538,-1.3572,-1.3749,-1.434,-1.4333,-1.419,-1.4089,-1.4787,-1.5628,-1.6395,-2.0625,-2.3149,-2.1197,-2.4947,-2.8139,-2.8705,-2.9048,-3.0154,-3.2445,-3.2857,-3.2881,-3.2628,-3.2821,-3.2724,-3.2229,-3.241,-3.2314,-3.1831,-3.1795,-3.1771,-3.1747,-3.1735,-3.1372,-3.066,-3.0648,-3.0769,-3.0998,-3.0974,-3.0841,-3.0612,-3.0588,-3.0286,-2.9815,-3.0105,-3.0033,-2.9767,-2.9791,-2.9477,-2.8982,-2.8717,-2.862,-2.862,-2.862,-2.8608,-2.8548,-2.8282,-2.8174,-2.8101,-2.786,-2.7775,-2.7763,-2.7775,-2.7775,-2.7703,-2.7461,-2.7162,-2.6981,-2.6981,-2.6981,-2.6981,-2.6981,-2.6981,-2.6981,-2.6981,-2.6981,-2.6981,-2.6981,-2.7232,-2.7317,-2.7063,-2.7278,-2.7476,-2.7719,-2.7785,-2.7965,-2.8474,-2.8417,-2.8584,-2.9182,-2.9367,-2.9444,-2.9444,-2.568,-2.3465,-2.3288,-2.3458,-2.2674,-2.0817,-2.0851,-2.0039,-1.8384,-1.8261,-1.8168,-1.8198,-1.8198,-1.8245,-1.2006,-1.2386,-1.2744,-1.2717,-1.3132,-1.3668,-1.398,-1.4116,-1.4401,-1.5181,-1.516,-1.5004,-1.5038,-1.5398,-1.5872,-1.6429,-1.9725,-2.2056,-2.148,-2.3077,-2.5498,-2.8718,-2.7838,-2.8504,-3.2263,-3.2531,-3.2519,-3.2592,-3.2531,-3.241,-3.2205,-3.229,-3.2181,-3.1819,-3.1638,-3.1541,-3.1541,-3.1384,-3.124,-3.1095,-3.1276,-3.1409,-3.1493,-3.1155,-3.0938,-3.0829,-3.0503,-3.025,-3.0081,-3.0346,-3.0298,-3.002,-2.9682,-2.9429,-2.9212,-2.8777,-2.862,-2.862,-2.862,-2.862,-2.856,-2.85,-2.8343,-2.8186,-2.8089,-2.7944,-2.7848,-2.8005,-2.7944,-2.7787,-2.7691,-2.7594,-2.751,-2.751,-2.751,-2.7473,-2.7259,-2.7235,-2.7174,-2.7018,-2.7114,-2.7235,-2.7235,-2.7486,-2.757,-2.7271,-2.7365,-2.7374,-2.7278,-2.7254,-2.7423,-2.7965,-2.7172,-2.6707,-2.6876,-2.7057,-2.7715,-2.897,-2.8066,-2.6945,-2.5711,-2.5771,-2.4822,-2.282,-2.2856,-2.254,-2.1803,-2.0612,-2.001,-1.9964,-1.8773,-1.8867,-1.202,-1.2386,-1.2792,-1.2779,-1.3247,-1.3802,-1.4387,-1.4618,-1.4964,-1.5867,-1.5683,-1.5486,-1.573,-1.5859,-1.6069,-1.6524,-1.9023,-2.0819,-2.0474,-2.1112,-2.3184,-2.7484,-2.6499,-2.7317,-3.2034,-3.2302,-3.2242,-3.2338,-3.2326,-3.2254,-3.2085,-3.2229,-3.2169,-3.1819,-3.1626,-3.1517,-3.1517,-3.1336,-3.1348,-3.1529,-3.1722,-3.1807,-3.1795,-3.1421,-3.1203,-3.1095,-3.066,-3.0419,-3.0346,-3.0443,-3.0383,-3.0165,-2.961,-2.9405,-2.9357,-2.891,-2.8644,-2.8584,-2.8717,-2.8693,-2.862,-2.862,-2.85,-2.8331,-2.8331,-2.821,-2.8101,-2.8282,-2.821,-2.8065,-2.8065,-2.7944,-2.7811,-2.7811,-2.7811,-2.7763,-2.7582,-2.7546,-2.7498,-2.7304,-2.7425,-2.7546,-2.7546,-2.7763,-2.7848,-2.7582,-2.7546,-2.7486,-2.7304,-2.709,-2.7118,-2.7423,-2.6719,-2.6196,-2.6196,-2.6332,-2.6752,-2.7501,-2.8178,-2.8256,-2.7702,-2.785,-2.6979,-2.5013,-2.4967,-2.4648,-2.4008,-2.2678,-2.2034,-2.1988,-2.0019,-1.9834,-1.2413,-1.2393,-1.2474,-1.3214,-1.3403,-1.3688,-1.4785,-1.5132,-1.5404,-1.6164,-1.5839,-1.5554,-1.6001,-1.609,-1.6232,-1.6628,-1.9197,-2.0279,-1.7916,-1.9915,-2.2498,-2.4862,-2.5336,-2.7256,-3.1718,-3.2193,-3.2085,-3.1831,-3.229,-3.2362,-3.1843,-3.2302,-3.235,-3.1831,-3.1807,-3.1807,-3.1807,-3.1807,-3.1807,-3.1807,-3.1807,-3.1807,-3.1807,-3.1807,-3.165,-3.1372,-3.1107,-3.0841,-3.0588,-3.0322,-3.0214,-3.0165,-2.9622,-2.9405,-2.9369,-2.9115,-2.885,-2.862,-2.8922,-2.885,-2.8572,-2.8572,-2.8572,-2.862,-2.862,-2.862,-2.862,-2.862,-2.862,-2.862,-2.862,-2.8222,-2.7824,-2.7824,-2.7824,-2.7824,-2.7811,-2.7811,-2.7811,-2.7811,-2.7811,-2.7811,-2.7811,-2.8029,-2.8113,-2.786,-2.7811,-2.7811,-2.7811,-2.7307,-2.6994,-2.6981,-2.7377,-2.7694,-2.7694,-2.8158,-2.7636,-2.5639,-2.5503,-2.6604,-2.9047,-2.9644,-2.8944,-2.7012,-2.7024,-2.606,-2.4008,-2.4008,-2.4008,-2.3962,-2.1988,-2.1121,-1.1809,-1.2149,-1.2678,-1.301,-1.3722,-1.4464,-1.514,-1.5472,-1.5949,-1.6754,-1.6456,-1.6117,-1.6347,-1.6476,-1.654,-1.6675,-1.9197,-2.0326,-1.8115,-1.99,-2.1702,-2.2592,-2.4028,-2.6196,-2.9181,-3.0938,-3.1964,-3.2073,-3.2229,-3.2254,-3.2097,-3.2229,-3.2157,-3.1819,-3.1807,-3.1807,-3.1807,-3.1807,-3.1807,-3.1807,-3.1807,-3.1807,-3.1807,-3.1602,-3.1372,-3.1095,-3.0841,-3.0576,-3.0322,-3.025,-3.0322,-3.0419,-2.9695,-2.9405,-2.9369,-2.9115,-2.897,-2.8934,-2.92,-2.9115,-2.8898,-2.8898,-2.8777,-2.862,-2.862,-2.862,-2.862,-2.862,-2.862,-2.862,-2.862,-2.85,-2.8379,-2.8379,-2.8379,-2.8331,-2.8125,-2.8089,-2.8029,-2.7848,-2.7956,-2.8089,-2.8089,-2.8318,-2.8403,-2.8125,-2.8089,-2.7956,-2.7582,-2.7401,-2.6671,-2.5149,-2.507,-2.5161,-2.5161,-2.5298,-2.5719,-2.6504,-2.6855,-2.6888,-2.6604,-2.7057,-2.7069,-2.6537,-2.8178,-2.8076,-2.6105,-2.6105,-2.6105,-2.6014,-2.2668,-2.1121,-1.2115,-1.2583,-1.3125,-1.3492,-1.4116,-1.4828,-1.552,-1.5906,-1.6307,-1.6971,-1.668,-1.6374,-1.652,-1.6588,-1.6662,-1.6844,-1.8444,-1.9241,-1.8053,-1.9117,-2.0456,-2.15,-2.3561,-2.583,-2.8219,-3.0492,-3.1879,-3.2036,-3.2145,-3.2157,-3.2048,-3.2048,-3.1976,-3.1819,-3.1698,-3.1698,-3.1807,-3.1807,-3.1807,-3.1807,-3.1807,-3.1807,-3.1795,-3.1517,-3.13,-3.1131,-3.0769,-3.0455,-3.0214,-3.0214,-3.0238,-3.0238,-2.9755,-2.9501,-2.9393,-2.9344,-2.9188,-2.9055,-2.9308,-2.9163,-2.8862,-2.8862,-2.8753,-2.862,-2.862,-2.862,-2.862,-2.862,-2.862,-2.862,-2.862,-2.862,-2.862,-2.862,-2.862,-2.8572,-2.8403,-2.8367,-2.8318,-2.8162,-2.8258,-2.8367,-2.8367,-2.8512,-2.8524,-2.8246,-2.8113,-2.7896,-2.7473,-2.7425,-2.6846,-2.5434,-2.5263,-2.5263,-2.5263,-2.5263,-2.54,-2.5822,-2.6128,-2.5889,-2.4956,-2.5593,-2.5912,-2.598,-2.6649,-2.6785,-2.6423,-2.6423,-2.6423,-2.6366,-2.4191,-2.2632,-1.2914,-1.3315,-1.3693,-1.434,-1.4563,-1.4882,-1.5845,-1.6279,-1.6578,-1.6931,-1.6639,-1.6422,-1.6682,-1.6635,-1.6734,-1.7148,-1.7351,-1.7555,-1.7881,-1.7989,-1.8901,-2.1096,-2.3568,-2.5932,-2.8129,-3.0466,-3.1807,-3.1807,-3.2036,-3.2048,-3.1783,-3.1771,-3.1759,-3.1735,-3.1505,-3.1517,-3.1771,-3.1795,-3.1807,-3.1807,-3.1807,-3.1807,-3.1795,-3.1517,-3.136,-3.1288,-3.0793,-3.0443,-3.0214,-3.0214,-3.0069,-2.9827,-2.9803,-2.9646,-2.9465,-2.9682,-2.9465,-2.9079,-2.932,-2.9079,-2.8656,-2.8632,-2.8656,-2.8572,-2.8656,-2.8644,-2.862,-2.862,-2.862,-2.862,-2.862,-2.862,-2.862,-2.862,-2.862,-2.862,-2.862,-2.862,-2.862,-2.862,-2.862,-2.862,-2.862,-2.862,-2.8536,-2.8282,-2.8041,-2.7787,-2.751,-2.7461,-2.7295,-2.7018,-2.6981,-2.6981,-2.6981,-2.7018,-2.6278,-2.4476,-2.4406,-2.4315,-2.411,-2.4967,-2.5457,-2.5457,-2.3849,-2.3758,-2.5229,-2.5412,-2.5412,-2.5218,-2.5753,-2.475,-1.2142,-1.2684,-1.3444,-1.4163,-1.4964,-1.567,-1.5901,-1.6092,-1.6361,-1.7012,-1.6788,-1.6605,-1.7019,-1.7168,-1.7256,-1.7358,-1.7595,-1.7847,-1.7902,-1.7901,-1.8129,-1.8675,-2.2341,-2.5064,-2.5608,-2.9384,-3.1807,-3.1807,-3.1855,-3.1771,-3.1493,-3.1481,-3.1384,-3.1179,-3.1312,-3.1421,-3.1481,-3.1698,-3.1807,-3.1807,-3.1807,-3.1807,-3.1795,-3.1517,-3.1167,-3.0757,-3.0443,-3.0262,-3.0214,-3.0214,-3.0177,-3.0105,-2.9888,-2.9755,-2.9695,-2.955,-2.9417,-2.9332,-2.9381,-2.92,-2.897,-2.9175,-2.8958,-2.8656,-2.8862,-2.8789,-2.862,-2.862,-2.862,-2.862,-2.862,-2.862,-2.862,-2.862,-2.862,-2.862,-2.862,-2.862,-2.862,-2.862,-2.862,-2.862,-2.862,-2.862,-2.8608,-2.8548,-2.8487,-2.8331,-2.798,-2.7811,-2.7546,-2.703,-2.6981,-2.6981,-2.6981,-2.728,-2.7133,-2.6403,-2.6568,-2.5937,-2.4156,-2.4648,-2.4933,-2.4944,-2.6446,-2.5889,-2.3229,-2.4774,-2.4671,-2.3152,-2.331,-2.3091,-1.2152,-1.2868,-1.3709,-1.4604,-1.5343,-1.5901,-1.5901,-1.6017,-1.6232,-1.6761,-1.6686,-1.6612,-1.6924,-1.7107,-1.7256,-1.7399,-1.7548,-1.7704,-1.7902,-1.7915,-1.7846,-1.7772,-2.092,-2.3547,-2.4585,-2.7973,-3.0549,-3.1508,-3.1735,-3.1686,-3.1409,-3.1264,-3.1191,-3.1191,-3.1071,-3.1131,-3.1384,-3.1409,-3.1481,-3.1614,-3.1614,-3.1541,-3.1421,-3.1264,-3.0914,-3.0407,-3.0274,-3.0214,-3.0214,-3.0214,-3.0129,-2.9996,-2.9851,-2.9791,-2.9767,-2.9501,-2.9405,-2.9381,-2.926,-2.9043,-2.885,-2.8982,-2.8934,-2.8813,-2.8825,-2.8813,-2.8777,-2.8656,-2.862,-2.862,-2.862,-2.862,-2.862,-2.862,-2.862,-2.862,-2.862,-2.862,-2.862,-2.862,-2.862,-2.862,-2.862,-2.8512,-2.8463,-2.8608,-2.8331,-2.8077,-2.7968,-2.7872,-2.7606,-2.7042,-2.6981,-2.6981,-2.6981,-2.7667,-2.792,-2.7558,-2.7582,-2.7012,-2.5731,-2.5903,-2.5525,-2.4487,-2.4796,-2.443,-2.3321,-2.3356,-2.2851,-2.184,-2.2116,-2.1563,-1.2321,-1.3173,-1.4072,-1.5092,-1.5574,-1.5867,-1.5867,-1.5983,-1.611,-1.6354,-1.6469,-1.6527,-1.6702,-1.6917,-1.71,-1.7344,-1.7426,-1.7548,-1.7792,-1.7902,-1.7812,-1.7609,-1.9764,-2.21,-2.4324,-2.6807,-2.8969,-3.0646,-3.1437,-3.1343,-3.0206,-3.0689,-3.089,-3.0644,-3.0598,-3.0817,-3.1252,-3.1083,-3.1107,-3.1324,-3.1324,-3.1179,-3.0926,-3.0926,-3.0672,-3.0214,-3.0214,-3.0214,-3.0214,-3.0214,-3.0081,-2.9864,-2.9815,-2.9791,-2.9755,-2.9453,-2.9332,-2.9308,-2.9091,-2.8874,-2.8657,-2.8801,-2.8946,-2.9043,-2.8825,-2.8874,-2.8958,-2.8693,-2.862,-2.862,-2.862,-2.862,-2.862,-2.862,-2.862,-2.862,-2.862,-2.862,-2.862,-2.862,-2.862,-2.862,-2.862,-2.8427,-2.8355,-2.8584,-2.8125,-2.7787,-2.7932,-2.7787,-2.751,-2.703,-2.6981,-2.7054,-2.7247,-2.7897,-2.8294,-2.8174,-2.8029,-2.7811,-2.7498,-2.7403,-2.6524,-2.4725,-2.2984,-2.277,-2.411,-2.2448,-2.125,-2.0603,-2.1333,-2.0409,-1.1813,-1.2976,-1.4197,-1.4908,-1.535,-1.5621,-1.5621,-1.5778,-1.5942,-1.5983,-1.6252,-1.6612,-1.6897,-1.7066,-1.7175,-1.7216,-1.7446,-1.7575,-1.7615,-1.7792,-1.7812,-1.7609,-1.9713,-2.196,-2.4055,-2.658,-2.8207,-2.8387,-3.0509,-2.9854,-2.5381,-2.8887,-2.9901,-2.7572,-2.9529,-3.0636,-3.0708,-3.0902,-3.101,-3.1046,-3.1046,-3.0914,-3.066,-3.066,-3.0491,-3.0214,-3.0214,-3.0214,-3.0214,-3.0214,-3.0189,-3.0129,-2.9888,-2.9791,-2.9743,-2.9248,-2.9067,-2.9055,-2.9031,-2.8994,-2.9031,-2.9489,-2.9513,-2.9344,-2.9308,-2.9163,-2.8958,-2.8693,-2.862,-2.862,-2.862,-2.862,-2.862,-2.862,-2.862,-2.862,-2.862,-2.862,-2.862,-2.862,-2.862,-2.862,-2.862,-2.8596,-2.8584,-2.8572,-2.8548,-2.8487,-2.8512,-2.7656,-2.7066,-2.6994,-2.6981,-2.7355,-2.8331,-2.7644,-2.7572,-2.85,-2.8524,-2.8294,-2.7775,-2.7546,-2.7263,-2.6997,-2.6451,-2.5503,-2.411,-2.3835,-2.1886,-1.8524,-2.0372,-2.0094,-1.2338,-1.3186,-1.4027,-1.4875,-1.5235,-1.5432,-1.5553,-1.575,-1.5928,-1.601,-1.6205,-1.6469,-1.6686,-1.6917,-1.71,-1.7182,-1.7378,-1.7467,-1.7467,-1.765,-1.765,-1.7419,-1.9439,-2.172,-2.3893,-2.6291,-2.7704,-2.7564,-2.8793,-2.8454,-2.6055,-2.7819,-2.8934,-2.8974,-2.9884,-3.0455,-3.0612,-3.0576,-3.0636,-3.0781,-3.0624,-3.0576,-3.06,-3.0455,-3.0322,-3.0202,-3.0045,-3.0069,-3.0189,-2.9888,-2.9851,-2.9936,-2.9526,-2.9441,-2.9513,-2.8982,-2.8982,-2.9212,-2.9067,-2.9115,-2.9272,-2.9501,-2.9598,-2.9574,-2.9272,-2.9212,-2.9151,-2.8741,-2.862,-2.862,-2.862,-2.862,-2.862,-2.862,-2.8729,-2.8801,-2.8608,-2.862,-2.862,-2.862,-2.862,-2.862,-2.862,-2.862,-2.862,-2.862,-2.862,-2.862,-2.862,-2.7644,-2.6981,-2.6981,-2.6981,-2.7415,-2.8536,-2.815,-2.8125,-2.8596,-2.862,-2.8439,-2.8041,-2.7775,-2.757,-2.7379,-2.7114,-2.6561,-2.573,-2.4613,-2.3183,-2.1471,-2.1204,-2.0001,-1.2454,-1.3051,-1.3566,-1.4496,-1.4903,-1.5133,-1.5309,-1.5581,-1.5833,-1.5934,-1.6117,-1.6307,-1.649,-1.6741,-1.6971,-1.7114,-1.7263,-1.7365,-1.7365,-1.744,-1.744,-1.7222,-1.8771,-2.089,-2.3624,-2.5009,-2.597,-2.6369,-2.6672,-2.6231,-2.4797,-2.6359,-2.7799,-2.8786,-2.9699,-3.031,-3.0503,-3.031,-3.031,-3.0503,-3.031,-3.0322,-3.0503,-3.0298,-3.0214,-3.0202,-2.9996,-2.9984,-3.0081,-2.967,-2.9622,-2.9755,-2.9296,-2.9272,-2.9441,-2.8994,-2.9067,-2.9381,-2.926,-2.9344,-2.9501,-2.9501,-2.9634,-2.9695,-2.9175,-2.9151,-2.9212,-2.8753,-2.862,-2.862,-2.862,-2.862,-2.862,-2.862,-2.8825,-2.8958,-2.8765,-2.8669,-2.862,-2.862,-2.862,-2.862,-2.862,-2.862,-2.862,-2.862,-2.862,-2.862,-2.862,-2.7885,-2.7283,-2.7018,-2.7222,-2.7717,-2.8512,-2.862,-2.862,-2.862,-2.862,-2.8524,-2.8318,-2.8053,-2.7787,-2.7522,-2.7256,-2.7054,-2.6981,-2.5548,-2.4567,-2.4064,-2.254,-2.0788,-1.1484,-1.2121,-1.2712,-1.3336,-1.4092,-1.4721,-1.4735,-1.512,-1.5479,-1.558,-1.5893,-1.6185,-1.6469,-1.6601,-1.6757,-1.6965,-1.7114,-1.7202,-1.7202,-1.7338,-1.7372,-1.7209,-1.7308,-1.9031,-2.3211,-2.2082,-2.1881,-2.3847,-2.4361,-2.2593,-1.7992,-2.3795,-2.6254,-2.4019,-2.8042,-3.0226,-3.0238,-3.0226,-3.0226,-3.0238,-3.0226,-3.0226,-3.0238,-3.0226,-3.0214,-3.0214,-3.0202,-3.0045,-2.9815,-2.9791,-2.9779,-2.9767,-2.9489,-2.955,-2.9743,-2.9465,-2.9381,-2.9441,-2.967,-2.9767,-2.9779,-2.9779,-2.9791,-2.9695,-2.9175,-2.9019,-2.8982,-2.8705,-2.862,-2.862,-2.862,-2.862,-2.862,-2.862,-2.8825,-2.9006,-2.8994,-2.8801,-2.862,-2.862,-2.862,-2.862,-2.862,-2.862,-2.862,-2.862,-2.862,-2.862,-2.862,-2.8524,-2.8149,-2.709,-2.7885,-2.856,-2.862,-2.862,-2.862,-2.862,-2.862,-2.8572,-2.8596,-2.8331,-2.8065,-2.7799,-2.7534,-2.7235,-2.6981,-2.6891,-2.5913,-2.411,-2.3973,-2.2862,-1.1435,-1.1911,-1.2424,-1.3078,-1.3715,-1.4194,-1.4484,-1.5018,-1.5425,-1.5479,-1.573,-1.6044,-1.6198,-1.6466,-1.675,-1.6958,-1.71,-1.7161,-1.7066,-1.7182,-1.7222,-1.7073,-1.8355,-1.9778,-2.1319,-2.2159,-2.2298,-2.1621,-2.169,-2.1019,-1.9285,-2.2818,-2.5171,-2.5707,-2.8603,-3.0214,-3.0214,-3.0214,-3.0214,-3.0214,-3.0214,-3.0214,-3.0214,-3.0214,-3.0214,-3.0214,-3.0214,-3.0153,-3.0033,-2.9682,-2.955,-2.9538,-2.9441,-2.9357,-2.9308,-2.9381,-2.9513,-2.967,-2.9767,-2.9912,-3.0069,-3.0069,-3.0069,-2.9996,-2.9622,-2.9513,-2.9465,-2.92,-2.9127,-2.9127,-2.9127,-2.9006,-2.8922,-2.9091,-2.92,-2.926,-2.926,-2.9055,-2.8874,-2.8874,-2.9006,-2.9091,-2.8922,-2.8729,-2.862,-2.862,-2.862,-2.862,-2.862,-2.862,-2.8428,-2.8089,-2.8343,-2.862,-2.862,-2.862,-2.862,-2.862,-2.862,-2.862,-2.862,-2.8355,-2.8162,-2.8065,-2.7799,-2.7461,-2.6981,-2.6981,-2.6664,-2.5958,-2.5958,-2.4898,-1.1266,-1.1681,-1.2149,-1.2847,-1.3322,-1.3777,-1.4373,-1.4821,-1.5153,-1.5303,-1.5574,-1.5845,-1.6042,-1.6368,-1.6615,-1.687,-1.7026,-1.7087,-1.6992,-1.706,-1.7087,-1.6992,-1.8327,-1.9454,-2.0227,-2.0955,-2.1059,-2.0331,-1.9665,0.0,-1.9278,-2.2143,-2.5116,-2.8063,-2.9487,-3.0214,-3.0214,-3.0214,-3.0214,-3.0214,-3.0298,-3.0346,-3.0346,-3.0346,-3.0346,-3.0346,-3.025,-3.0165,-3.0045,-2.9682,-2.9538,-2.9538,-2.9538,-2.9489,-2.9441,-2.961,-2.9791,-2.9936,-2.9936,-3.0057,-3.0202,-3.0105,-3.0069,-3.002,-2.9743,-2.967,-2.9634,-2.9453,-2.9405,-2.9405,-2.9405,-2.9272,-2.9188,-2.9369,-2.9405,-2.9405,-2.9405,-2.9224,-2.9055,-2.9019,-2.9224,-2.9369,-2.9199,-2.8898,-2.862,-2.862,-2.862,-2.862,-2.862,-2.862,-2.862,-2.862,-2.862,-2.862,-2.862,-2.862,-2.862,-2.862,-2.862,-2.862,-2.862,-2.8439,-2.8294,-2.821,-2.8029,-2.7727,-2.7292,-2.7162,-2.7066,-2.6981,-2.6981,-2.5958,0.0,0.0,0.0,-1.251,-1.2929,-1.3383,-1.4251,-1.4468,-1.4604,-1.5052,-1.5391,-1.5648,-1.6001,-1.6191,-1.6395,-1.6628,-1.6863,-1.6971,-1.6971,-1.6971,-1.6978,-1.6978,-1.6978,-1.7856,-1.9967,-1.8275,-1.7915,-2.0027,-1.8361,-1.7195,-1.7202,-2.1674,-2.6116,-3.0355,-3.032,-3.0238,-3.0226,-3.0238,-3.0238,-3.0238,-3.0491,-3.0624,-3.0624,-3.0624,-3.0624,-3.06,-3.0334,-3.0069,-2.9815,-2.9815,-2.9803,-2.9791,-2.9803,-2.9972,-3.0202,-3.0214,-3.0214,-3.0214,-3.0214,-3.0214,-3.0165,-2.99,-2.9803,-2.9755,-2.9501,-2.9429,-2.9429,-2.9429,-2.9429,-2.9429,-2.9417,-2.9417,-2.9429,-2.9417,-2.9405,-2.9405,-2.9417,-2.9223,-2.9078,-2.9055,-2.9248,-2.9429,-2.9429,-2.9006,-2.8656,-2.8572,-2.862,-2.862,-2.862,-2.862,-2.862,-2.862,-2.862,-2.862,-2.862,-2.8584,-2.8644,-2.8644,-2.8644,-2.8644,-2.8584,-2.8584,-2.85,-2.8222,-2.821,-2.8089,-2.7824,-2.7558,-2.7304,-2.7006,-2.7006,-2.6027,-1.0961,0.0,0.0,0.0,0.0,0.0,-1.3003,-1.3397,-1.3804,-1.4099,-1.4536,-1.495,-1.5357,-1.5825,-1.6171,-1.6252,-1.6483,-1.6686,-1.6743,-1.6763,-1.6856,-1.6971,-1.6978,-1.7241,-1.7856,-1.7339,-1.7282,0.0,-1.7533,-1.7243,-1.7351,-2.1689,-2.5381,-2.7998,-2.9831,-3.0696,-3.0503,-3.0684,-3.0781,-3.0781,-3.0853,-3.089,-3.089,-3.089,-3.089,-3.0877,-3.0612,-3.0455,-3.0371,-3.0177,-2.9984,-2.9815,-3.002,-3.002,-2.9936,-3.0141,-3.0214,-3.0214,-3.0214,-3.0214,-3.0202,-3.0129,-3.0105,-3.0081,-3.002,-2.9996,-2.9996,-2.9996,-2.9996,-2.9948,-2.9743,-2.9839,-2.9936,-2.9743,-2.9441,-2.9296,-2.9622,-2.9501,-2.9381,-2.955,-2.9803,-2.9996,-2.9996,-2.9876,-2.9513,-2.8741,-2.862,-2.862,-2.862,-2.862,-2.862,-2.862,-2.862,-2.862,-2.862,-2.897,-2.9139,-2.8958,-2.9115,-2.9103,-2.891,-2.891,-2.8777,-2.8512,-2.8512,-2.8367,-2.8101,-2.7836,-2.7667,-2.7594,-2.7594,-2.7316,-1.136,-1.1624,-1.2047,-1.2155,0.0,0.0,-1.2963,-1.3186,-1.3424,-1.3851,-1.4346,-1.478,-1.5091,-1.5629,-1.6037,-1.6037,-1.6185,-1.6415,-1.6574,-1.6601,-1.6635,-1.6775,-1.6849,-1.6883,-1.6883,-1.6944,-1.7039,-1.7182,-1.7249,-1.7808,-1.894,-2.1454,-2.4287,-2.7343,-2.8801,-2.9914,-3.0769,-3.0926,-3.0998,-3.0998,-3.1107,-3.1155,-3.1155,-3.1155,-3.1155,-3.1143,-3.0877,-3.0708,-3.06,-3.0443,-3.0214,-2.9984,-3.0153,-3.0117,-2.9984,-3.0153,-3.0214,-3.0214,-3.0214,-3.0214,-3.0214,-3.0214,-3.0214,-3.0214,-3.0214,-3.0214,-3.0238,-3.0346,-3.0383,-3.0322,-3.0045,-3.0093,-3.0141,-2.9864,-2.9695,-2.9622,-2.9719,-2.9743,-2.9743,-2.9743,-2.9996,-3.0214,-3.0214,-3.0214,-2.9851,-2.8777,-2.862,-2.862,-2.862,-2.862,-2.862,-2.862,-2.862,-2.8717,-2.8934,-2.9224,-2.9357,-2.9211,-2.9344,-2.9284,-2.9019,-2.9019,-2.8886,-2.8632,-2.862,-2.8548,-2.8379,-2.8113,-2.792,-2.7811,-2.7811,-2.7811,-1.1983,-1.2169,0.0,0.0,0.0,0.0,-1.3396,-1.339,-1.335,-1.3819,-1.4384,-1.4813,-1.4881,-1.5364,-1.5751,-1.5751,-1.5922,-1.613,-1.6469,-1.6537,-1.6544,-1.6493,-1.6628,-1.6716,-1.6702,-1.6876,-1.7019,-1.7182,-1.7351,-1.8409,-2.0748,-2.0947,-2.2893,-2.6951,-2.7419,-2.8532,-3.057,-3.0954,-3.1071,-3.1046,-3.1312,-3.1433,-3.1433,-3.1433,-3.1433,-3.1421,-3.1155,-3.0914,-3.0696,-3.066,-3.0479,-3.0214,-3.0214,-3.0214,-3.0214,-3.0214,-3.0214,-3.0214,-3.0214,-3.0214,-3.0214,-3.0214,-3.0214,-3.0214,-3.0214,-3.0238,-3.031,-3.0539,-3.0612,-3.0539,-3.0286,-3.0214,-3.0153,-2.99,-3.0008,-3.0081,-2.9791,-2.9888,-2.9972,-2.9767,-2.9996,-3.0214,-3.0214,-3.0214,-2.99,-2.8946,-2.8801,-2.8801,-2.8801,-2.8801,-2.8801,-2.8801,-2.8801,-2.897,-2.9369,-2.9465,-2.9477,-2.9453,-2.9477,-2.9381,-2.9115,-2.9067,-2.8934,-2.8669,-2.8644,-2.862,-2.862,-2.8367,-2.8125,-2.7908,-2.7908,-2.7908,-1.2665,-1.2861,-1.3119,-1.284,0.0,0.0,-1.2381,-1.2712,-1.3111,-1.2712,-1.3057,-1.354,-1.393,-1.4448,-1.4774,-1.4774,-1.5208,-1.5771,-1.6429,-1.6625,-1.6707,-1.6655,-1.6842,-1.689,-1.6709,-1.6723,-1.6904,-1.7175,-1.7392,-1.7738,-1.8157,-2.0008,-2.1396,-2.2102,-2.5955,-2.8065,-2.8184,-3.0458,-3.1541,-3.1312,-3.159,-3.1722,-3.1722,-3.1722,-3.1722,-3.171,-3.1433,-3.1288,-3.1215,-3.101,-3.0648,-3.0214,-3.0214,-3.0214,-3.0214,-3.0214,-3.0214,-3.0214,-3.0214,-3.0214,-3.0214,-3.0214,-3.0214,-3.0214,-3.0214,-3.0358,-3.0539,-3.06,-3.0612,-3.0539,-3.0286,-3.0214,-3.0202,-3.0153,-2.9948,-2.9839,-3.0057,-2.9489,-2.9163,-2.996,-3.0165,-3.0214,-3.0214,-3.0214,-3.0141,-2.9936,-2.99,-2.99,-2.99,-2.99,-2.99,-2.99,-2.99,-2.9767,-2.9429,-2.9803,-2.996,-2.9731,-2.9936,-2.9936,-2.9658,-2.9441,-2.9212,-2.8946,-2.8729,-2.862,-2.862,-2.8572,-2.8512,-2.8463,-2.8463,-2.8463,0.0,0.0,-1.3512,-1.3512,0.0,0.0,0.0,-1.2949,-1.2969,-1.3051,-1.3064,-1.3288,-1.3844,-1.4143,-1.434,-1.4489,-1.495,-1.5452,-1.5906,-1.6103,-1.6225,-1.6293,-1.6442,-1.653,-1.6479,-1.654,-1.6761,-1.7066,-1.7297,-1.7419,-1.7419,-1.8632,-1.9815,-2.0854,-2.3395,-2.5175,-2.6129,-2.8735,-2.9991,-2.9854,-3.1189,-3.1807,-3.1807,-3.1807,-3.1807,-3.1807,-3.1662,-3.1517,-3.1384,-3.124,-3.0877,-3.0407,-3.0407,-3.0334,-3.0238,-3.0358,-3.0407,-3.0431,-3.0564,-3.0515,-3.0407,-3.0407,-3.0322,-3.0238,-3.0371,-3.0684,-3.0938,-3.0684,-3.0696,-3.0708,-3.0322,-3.0214,-3.0214,-3.0214,-3.0069,-2.9996,-3.0177,-2.9791,-2.9574,-3.0117,-3.0214,-3.0214,-3.0214,-3.0214,-3.0214,-3.0214,-3.0214,-3.0214,-3.0214,-3.0214,-3.0214,-3.0214,-3.0214,-3.0105,-2.9827,-3.0057,-3.0153,-3.002,-3.0141,-3.0093,-2.9803,-2.967,-2.9417,-2.9019,-2.9019,-2.8886,-2.862,-2.8753,-2.8753,-2.862,-2.862,-2.862,0.0,0.0,0.0,0.0,0.0,-1.3688,0.0,0.0,0.0,-1.3497,-1.3363,0.0,0.0,0.0,0.0,-1.4251,0.0,0.0,0.0,-1.5242,0.0,-1.5826,-1.6022,-1.6185,-1.6218,-1.6246,-1.6435,-1.6863,-1.689,-1.7012,-1.7223,-1.7379,-1.8333,-2.0285,-2.0947,-2.2117,-2.4009,-2.6853,-2.8274,-2.8231,-3.0637,-3.1807,-3.1807,-3.1807,-3.1807,-3.1807,-3.1855,-3.1759,-3.1541,-3.1541,-3.1264,-3.0829,-3.0672,-3.0479,-3.0322,-3.0527,-3.0636,-3.0708,-3.0926,-3.0829,-3.0612,-3.0612,-3.0467,-3.0334,-3.0539,-3.0938,-3.1215,-3.0745,-3.0757,-3.0817,-3.0334,-3.0214,-3.0214,-3.0214,-3.0214,-3.0214,-3.0214,-3.0214,-3.0214,-3.0214,-3.0214,-3.0214,-3.0214,-3.0214,-3.0214,-3.0214,-3.0214,-3.0214,-3.0214,-3.0214,-3.0214,-3.0214,-3.0214,-3.0214,-3.0214,-3.0214,-3.0214,-3.0214,-3.0214,-3.0117,-2.9888,-2.9827,-2.9574,-2.9103,-2.9296,-2.92,-2.8777,-2.8934,-2.8886,-2.862,-2.862,-2.862,0.0,0.0,0.0,0.0,-1.493,0.0,0.0,0.0,-1.3715,-1.2963,0.0,0.0,0.0,0.0,0.0,0.0,0.0,0.0,-1.3991,-1.4336,-1.4896,-1.5533,-1.6144,-1.632,-1.599,-1.556,-1.5676,-1.651,-1.6103,-1.606,-1.6736,-1.6971,-1.722,-1.7609,-1.9776,-2.1041,-2.1148,-2.5884,-2.8199,-2.7994,-3.0556,-3.1807,-3.1807,-3.1807,-3.1807,-3.1819,-3.2048,-3.2133,-3.2109,-3.2109,-3.194,-3.1602,-3.089,-3.0588,-3.0564,-3.06,-3.0757,-3.0962,-3.0986,-3.0829,-3.0612,-3.0612,-3.0588,-3.0564,-3.06,-3.0817,-3.0986,-3.0684,-3.0624,-3.0588,-3.0286,-3.0214,-3.0214,-3.0214,-3.0214,-3.0214,-3.0214,-3.0214,-3.0214,-3.0214,-3.0214,-3.0214,-3.0214,-3.0214,-3.0214,-3.0214,-3.0214,-3.0214,-3.0214,-3.0214,-3.0214,-3.0214,-3.0214,-3.0214,-3.0214,-3.0214,-3.0214,-3.0214,-3.0214,-3.0202,-3.0165,-2.9924,-2.9658,-2.9369,-2.9393,-2.9381,-2.932,-2.9115,-2.8886,-2.862,-2.862,-2.862,0.0,0.0,0.0,0.0,0.0,0.0,0.0,0.0,-1.3519,0.0,0.0,0.0,0.0,0.0,0.0,0.0,-1.3702,0.0,0.0,0.0,-1.4536,0.0,0.0,0.0,-1.5391,-1.5289,-1.5445,-1.6083,-1.5825,-1.5877,-1.6533,-1.6849,-1.7005,-1.7066,-1.8245,-1.8901,-1.8889,-2.236,-2.4773,-2.6105,-2.8586,-3.0488,-3.1807,-3.1807,-3.1891,-3.2036,-3.1988,-3.206,-3.2181,-3.2036,-3.1904,-3.1759,-3.1252,-3.0974,-3.0853,-3.101,-3.1131,-3.1252,-3.1409,-3.1191,-3.0781,-3.0479,-3.0479,-3.0612,-3.0612,-3.0793,-3.0938,-3.0684,-3.0612,-3.0539,-3.0286,-3.0214,-3.0214,-3.0214,-3.0214,-3.0214,-3.0214,-3.0214,-3.0214,-3.0214,-3.0214,-3.0214,-3.0214,-3.0214,-3.0214,-3.0214,-3.0214,-3.0214,-3.0214,-3.0214,-3.0214,-3.0214,-3.0214,-3.0214,-3.0214,-3.0214,-3.0214,-3.0214,-3.0214,-3.0214,-3.0214,-3.0105,-2.9912,-2.9634,-2.9791,-2.9719,-2.9405,-2.9441,-2.9332,-2.9067,-2.8765,-2.862,-1.7966,0.0,0.0,0.0,0.0,0.0,0.0,0.0,0.0,0.0,0.0,0.0,0.0,0.0,0.0,0.0,0.0,-1.3734,0.0,0.0,0.0,0.0,0.0,0.0,0.0,-1.4814,-1.5025,-1.5731,-1.5486,-1.5614,-1.6422,-1.6714,-1.6876,-1.6917,-1.7202,-1.7412,-1.7467,-1.9915,-2.2016,-2.3828,-2.6863,-2.9178,-3.0874,-3.154,-3.1916,-3.2085,-3.1964,-3.2024,-3.2193,-3.2073,-3.1976,-3.1904,-3.1771,-3.1517,-3.124,-3.1348,-3.1433,-3.1529,-3.1735,-3.1505,-3.1034,-3.0576,-3.0612,-3.0793,-3.0648,-3.0793,-3.0926,-3.06,-3.0503,-3.0467,-3.0358,-3.0322,-3.0322,-3.0322,-3.0322,-3.0298,-3.0238,-3.0214,-3.0214,-3.0214,-3.0214,-3.0214,-3.0214,-3.0214,-3.0214,-3.0214,-3.0214,-3.0214,-3.0214,-3.0214,-3.0214,-3.0214,-3.0214,-3.0214,-3.0214,-3.0214,-3.025,-3.0322,-3.0322,-3.0322,-3.0322,-3.025,-3.0117,-2.9912,-3.0117,-3.002,-2.9634,-2.9743,-2.9695,-2.9501,-2.9043,-2.8837,0.0,0.0,0.0,-1.8438,0.0,0.0,0.0,0.0,-1.4143,0.0,0.0,0.0,0.0,0.0,0.0,0.0,0.0,0.0,0.0,0.0,0.0,0.0,0.0,0.0,0.0,-1.4058,-1.4119,0.0,-1.4882,-1.5065,-1.6252,-1.6456,-1.6605,-1.6702,-1.7046,-1.7202,-1.7209,-1.9792,-2.1146,-2.1262,-2.6027,-2.836,-2.8468,-3.0767,-3.1807,-3.1831,-3.2085,-3.2193,-3.2217,-3.2459,-3.241,-3.2217,-3.2459,-3.2242,-3.1747,-3.1481,-3.1553,-3.1795,-3.1807,-3.1614,-3.1324,-3.1059,-3.1155,-3.1264,-3.0757,-3.0793,-3.089,-3.0371,-3.0226,-3.0286,-3.0527,-3.06,-3.06,-3.06,-3.06,-3.0527,-3.0274,-3.0214,-3.0214,-3.0214,-3.0214,-3.0214,-3.0214,-3.0214,-3.0214,-3.0214,-3.0214,-3.0214,-3.0214,-3.0214,-3.0214,-3.0214,-3.0214,-3.0214,-3.0214,-3.0214,-3.0322,-3.0576,-3.06,-3.06,-3.06,-3.0346,-3.0214,-3.0202,-3.0214,-3.0202,-3.0189,-2.9924,-2.9791,-2.9779,-2.9501,-2.9381,0.0,0.0,-2.5165,-2.1537,0.0,0.0,0.0,0.0,0.0,0.0,0.0,0.0,0.0,0.0,0.0,0.0,0.0,0.0,0.0,0.0,0.0,0.0,0.0,0.0,0.0,0.0,0.0,0.0,-1.5018,0.0,-1.6017,-1.6429,-1.6554,-1.6463,-1.6842,-1.71,-1.7188,-1.9731,-2.0958,-2.1012,-2.5957,-2.822,-2.8252,-3.0861,-3.2157,-3.2326,-3.2423,-3.2459,-3.2447,-3.2362,-3.2278,-3.2193,-3.2109,-3.2073,-3.206,-3.1964,-3.1879,-3.1783,-3.159,-3.1469,-3.1348,-3.1083,-3.1059,-3.1059,-3.0708,-3.0672,-3.066,-3.031,-3.0334,-3.0491,-3.0588,-3.0733,-3.0865,-3.0865,-3.0733,-3.0539,-3.0274,-3.0214,-3.0214,-3.0214,-3.0214,-3.0214,-3.0214,-3.0503,-3.0612,-3.0262,-3.0214,-3.0334,-3.0684,-3.0636,-3.0512,-3.0512,-3.0503,-3.0407,-3.0238,-3.0371,-3.0515,-3.06,-3.0769,-3.0793,-3.0612,-3.0527,-3.0395,-3.0214,-3.0214,-3.0214,-3.0214,-3.0117,-3.0069,-3.0069,-2.9984,-2.9743,-2.6317,-2.7155,0.0,-2.4339,-2.4314,0.0,-1.9356,0.0,0.0,0.0,0.0,0.0,0.0,0.0,0.0,0.0,0.0,0.0,0.0,-1.2935,0.0,0.0,0.0,0.0,0.0,0.0,-1.4102,-1.476,-1.4943,0.0,0.0,-1.6293,-1.6479,-1.6388,-1.672,-1.6992,-1.7188,-1.8763,-2.0044,-2.102,-2.5073,-2.7384,-2.8262,-3.0954,-3.229,-3.2459,-3.2555,-3.2531,-3.2459,-3.2471,-3.2314,-3.2073,-3.2181,-3.2157,-3.206,-3.206,-3.1952,-3.1783,-3.1602,-3.1541,-3.1505,-3.1336,-3.1288,-3.124,-3.0962,-3.0877,-3.0829,-3.0564,-3.0612,-3.0769,-3.0865,-3.101,-3.1143,-3.1143,-3.101,-3.0817,-3.0552,-3.0419,-3.0358,-3.0358,-3.0286,-3.025,-3.0334,-3.0636,-3.0708,-3.0286,-3.0431,-3.0624,-3.0708,-3.0696,-3.0648,-3.0512,-3.0503,-3.0395,-3.0226,-3.0624,-3.0841,-3.0745,-3.0986,-3.1022,-3.0757,-3.0745,-3.0624,-3.0358,-3.0443,-3.0491,-3.0491,-3.0491,-3.0443,-3.0358,-3.0358,-3.0117]},{"header":{"parameterUnit":"m.s-1","parameterCategory":1,"la1":30.6,"la2":29.2853,"lo1":-89.7004,"lo2":-87.6739,"dy":0.0162,"dx":0.0183,"nx":112,"ny":82,"refTime":"2024-06-13T18:00:00:Z","depth":0,"parameterNumber":3,"parameterNumberName":"V-component_of_WINDS"},"data":[0.0,0.0,0.0,0.0,0.0,0.0,0.0,0.0,0.0,0.0,0.0,0.0,0.0,0.0,0.0,0.0,0.0,0.0,0.0,0.0,0.0,0.0,0.0,0.0,0.0,0.0,0.0,0.0,0.0,0.0,0.0,0.0,0.0,0.0,0.0,0.0,0.0,0.0,0.0,0.0,0.0,0.0,0.0,0.0,0.0,0.0,0.0,0.0,0.0,0.0,0.0,0.0,0.0,0.0,0.0,0.0,0.0,0.0,0.0,0.0,0.0,0.0,0.0,0.0,0.0,0.0,0.0,0.0,0.0,0.0,0.0,0.0,0.0,0.0,0.0,0.0,0.0,0.0,0.0,0.0,0.0,0.0,0.0,0.0,0.0,0.0,0.0,0.0,0.0,0.0,0.0,4.3151,4.6531,4.8025,4.7079,4.6103,4.4233,4.1191,0.0,0.0,0.0,0.0,0.0,0.0,0.0,0.0,0.0,0.0,0.0,0.0,0.0,0.0,0.0,0.0,0.0,0.0,0.0,0.0,0.0,0.0,0.0,0.0,0.0,0.0,0.0,0.0,0.0,0.0,0.0,0.0,0.0,0.0,0.0,0.0,0.0,0.0,0.0,0.0,0.0,0.0,0.0,0.0,0.0,0.0,0.0,0.0,0.0,0.0,0.0,0.0,0.0,0.0,0.0,0.0,0.0,0.0,0.0,0.0,0.0,0.0,0.0,0.0,0.0,0.0,0.0,0.0,0.0,0.0,0.0,0.0,0.0,0.0,0.0,0.0,0.0,0.0,0.0,0.0,0.0,0.0,0.0,0.0,0.0,0.0,0.0,0.0,0.0,0.0,0.0,0.0,0.0,0.0,0.0,0.0,0.0,0.0,0.0,0.0,0.0,0.0,0.0,0.0,3.9095,4.4721,4.7725,4.8701,4.7117,4.5578,4.3851,4.1929,0.0,0.0,0.0,0.0,0.0,0.0,0.0,0.0,0.0,0.0,0.0,0.0,0.0,0.0,0.0,0.0,0.0,0.0,0.0,0.0,0.0,0.0,0.0,0.0,0.0,0.0,0.0,0.0,0.0,0.0,0.0,0.0,0.0,0.0,0.0,0.0,0.0,0.0,0.0,0.0,0.0,0.0,0.0,0.0,0.0,0.0,0.0,0.0,0.0,0.0,0.0,0.0,0.0,0.0,0.0,0.0,0.0,0.0,0.0,0.0,0.0,0.0,0.0,0.0,0.0,0.0,0.0,0.0,0.0,0.0,0.0,0.0,0.0,0.0,0.0,0.0,0.0,0.0,0.0,0.0,0.0,0.0,0.0,0.0,0.0,0.0,0.0,0.0,0.0,0.0,0.0,0.0,0.0,0.0,0.0,0.0,0.0,0.0,0.0,0.0,0.0,0.0,0.0,4.0259,4.2137,4.6568,4.8514,4.8814,4.7154,4.5465,4.3769,4.2117,3.7318,0.0,0.0,0.0,0.0,0.0,0.0,0.0,0.0,0.0,0.0,0.0,0.0,0.0,0.0,0.0,0.0,0.0,0.0,0.0,0.0,0.0,0.0,0.0,0.0,0.0,0.0,0.0,0.0,0.0,0.0,0.0,0.0,0.0,0.0,0.0,0.0,0.0,0.0,0.0,0.0,0.0,0.0,0.0,0.0,0.0,0.0,0.0,0.0,0.0,0.0,0.0,0.0,0.0,0.0,0.0,0.0,0.0,0.0,0.0,0.0,0.0,0.0,0.0,0.0,0.0,0.0,0.0,0.0,0.0,0.0,0.0,0.0,0.0,0.0,0.0,0.0,0.0,0.0,0.0,0.0,0.0,0.0,0.0,0.0,0.0,0.0,0.0,0.0,0.0,0.0,0.0,0.0,0.0,0.0,0.0,0.0,0.0,0.0,0.0,0.0,0.0,0.0,4.3595,4.4759,4.7883,4.8964,4.8814,4.7154,4.5277,4.3513,4.1817,3.6304,0.0,0.0,0.0,0.0,0.0,0.0,0.0,0.0,0.0,0.0,0.0,0.0,0.0,0.0,0.0,0.0,0.0,0.0,0.0,0.0,0.0,0.0,0.0,0.0,0.0,0.0,0.0,0.0,0.0,0.0,0.0,0.0,0.0,0.0,0.0,0.0,0.0,0.0,0.0,0.0,0.0,0.0,0.0,0.0,0.0,0.0,0.0,0.0,0.0,0.0,0.0,0.0,0.0,0.0,0.0,0.0,0.0,0.0,0.0,0.0,0.0,0.0,0.0,0.0,0.0,0.0,0.0,0.0,0.0,0.0,0.0,0.0,0.0,0.0,0.0,0.0,0.0,0.0,0.0,0.0,0.0,0.0,0.0,0.0,0.0,0.0,0.0,0.0,0.0,0.0,0.0,0.0,0.0,0.0,0.0,0.0,0.0,0.0,0.0,0.0,0.0,0.0,4.3025,4.539,4.7913,4.8964,4.8814,4.7154,4.4796,4.2656,4.1004,3.5409,0.0,0.0,0.0,0.0,0.0,0.0,0.0,0.0,0.0,0.0,0.0,0.0,0.0,0.0,0.0,0.0,0.0,0.0,0.0,0.0,0.0,0.0,0.0,0.0,0.0,0.0,0.0,0.0,0.0,0.0,0.0,0.0,0.0,0.0,0.0,0.0,0.0,0.0,0.0,0.0,0.0,0.0,0.0,0.0,0.0,0.0,0.0,0.0,0.0,0.0,0.0,0.0,0.0,0.0,0.0,0.0,0.0,0.0,0.0,0.0,0.0,0.0,0.0,0.0,0.0,0.0,0.0,0.0,0.0,0.0,0.0,0.0,0.0,0.0,0.0,0.0,0.0,0.0,0.0,0.0,0.0,0.0,0.0,0.0,0.0,0.0,0.0,0.0,0.0,0.0,0.0,0.0,0.0,0.0,0.0,0.0,0.0,0.0,0.0,0.0,0.0,0.0,4.3625,4.5653,0.0,4.9302,4.8814,4.7154,4.5202,4.31,4.0929,0.0,0.0,0.0,0.0,0.0,0.0,0.0,0.0,0.0,0.0,0.0,0.0,0.0,0.0,0.0,0.0,0.0,0.0,0.0,0.0,0.0,0.0,0.0,0.0,0.0,0.0,0.0,0.0,0.0,0.0,0.0,0.0,0.0,0.0,0.0,0.0,0.0,0.0,0.0,0.0,0.0,0.0,0.0,0.0,0.0,0.0,0.0,0.0,0.0,0.0,0.0,0.0,0.0,0.0,0.0,0.0,0.0,0.0,0.0,0.0,0.0,0.0,0.0,0.0,0.0,0.0,0.0,0.0,0.0,0.0,0.0,0.0,0.0,0.0,0.0,0.0,0.0,0.0,0.0,0.0,0.0,0.0,0.0,0.0,0.0,0.0,0.0,0.0,0.0,0.0,0.0,0.0,0.0,0.0,0.0,0.0,0.0,0.0,0.0,0.0,0.0,0.0,4.2581,4.4233,4.6066,0.0,4.949,4.8814,4.7154,4.524,4.3062,4.0597,0.0,0.0,0.0,0.0,0.0,0.0,0.0,0.0,0.0,0.0,0.0,0.0,0.0,0.0,0.0,0.0,0.0,0.0,0.0,0.0,0.0,0.0,0.0,0.0,0.0,0.0,0.0,0.0,0.0,0.0,0.0,0.0,0.0,0.0,0.0,0.0,0.0,0.0,0.0,0.0,0.0,0.0,0.0,0.0,0.0,0.0,0.0,0.0,0.0,0.0,0.0,0.0,0.0,0.0,0.0,0.0,0.0,0.0,0.0,0.0,0.0,0.0,0.0,0.0,0.0,0.0,0.0,0.0,0.0,0.0,0.0,0.0,0.0,0.0,0.0,0.0,0.0,0.0,0.0,0.0,0.0,0.0,0.0,0.0,0.0,0.0,0.0,0.0,0.0,0.0,0.0,0.0,0.0,0.0,0.0,0.0,0.0,0.0,0.0,0.0,0.0,0.0,4.27,4.4728,4.6681,4.9227,4.949,4.8814,4.7154,4.4721,4.2256,0.0,0.0,0.0,0.0,0.0,0.0,0.0,0.0,0.0,0.0,0.0,0.0,0.0,0.0,0.0,0.0,0.0,0.0,0.0,0.0,0.0,0.0,0.0,0.0,0.0,0.0,0.0,0.0,0.0,0.0,0.0,0.0,0.0,0.0,0.0,0.0,0.0,0.0,0.0,0.0,0.0,0.0,0.0,0.0,0.0,0.0,0.0,0.0,0.0,0.0,0.0,0.0,0.0,0.0,0.0,0.0,0.0,0.0,0.0,0.0,0.0,0.0,0.0,0.0,0.0,0.0,0.0,0.0,0.0,0.0,0.0,0.0,0.0,0.0,0.0,0.0,0.0,0.0,0.0,0.0,0.0,0.0,0.0,0.0,0.0,0.0,0.0,0.0,0.0,0.0,0.0,0.0,0.0,0.0,0.0,0.0,0.0,0.0,0.0,0.0,0.0,0.0,0.0,4.3533,4.5772,4.7555,4.9325,4.9656,4.9254,4.7973,4.5652,4.3195,4.0603,0.0,0.0,0.0,0.0,0.0,0.0,0.0,0.0,0.0,0.0,0.0,0.0,0.0,0.0,0.0,0.0,0.0,0.0,0.0,0.0,0.0,0.0,0.0,0.0,0.0,0.0,0.0,0.0,0.0,0.0,0.0,0.0,0.0,0.0,0.0,0.0,0.0,0.0,0.0,0.0,0.0,0.0,0.0,0.0,0.0,0.0,0.0,0.0,0.0,0.0,0.0,0.0,0.0,0.0,0.0,0.0,0.0,0.0,0.0,0.0,0.0,0.0,0.0,0.0,0.0,0.0,0.0,0.0,0.0,0.0,0.0,0.0,0.0,0.0,0.0,0.0,0.0,0.0,0.0,0.0,0.0,0.0,0.0,0.0,0.0,0.0,0.0,0.0,0.0,0.0,0.0,0.0,0.0,0.0,0.0,0.0,0.0,0.0,0.0,0.0,0.0,0.0,4.4113,4.6863,4.8833,5.001,5.0275,4.9969,4.8954,4.6683,4.4058,4.1141,0.0,0.0,0.0,0.0,0.0,0.0,0.0,0.0,0.0,0.0,0.0,0.0,0.0,0.0,0.0,0.0,0.0,0.0,0.0,0.0,0.0,0.0,0.0,0.0,0.0,0.0,0.0,0.0,0.0,0.0,0.0,0.0,0.0,0.0,0.0,0.0,0.0,0.0,0.0,0.0,0.0,0.0,0.0,0.0,0.0,0.0,0.0,0.0,0.0,0.0,0.0,0.0,0.0,0.0,0.0,0.0,0.0,0.0,0.0,0.0,0.0,0.0,0.0,0.0,0.0,0.0,0.0,0.0,0.0,0.0,0.0,0.0,0.0,0.0,0.0,0.0,0.0,0.0,0.0,0.0,0.0,0.0,0.0,0.0,0.0,0.0,0.0,0.0,0.0,0.0,0.0,0.0,0.0,0.0,0.0,0.0,0.0,0.0,0.0,0.0,0.0,0.0,4.4693,4.7934,5.0261,5.1144,5.1164,5.083,5.0082,4.7738,4.4976,4.1747,0.0,0.0,0.0,0.0,0.0,0.0,0.0,0.0,0.0,0.0,0.0,0.0,0.0,0.0,0.0,0.0,0.0,0.0,0.0,0.0,0.0,0.0,0.0,0.0,0.0,0.0,0.0,0.0,0.0,0.0,0.0,0.0,0.0,0.0,0.0,0.0,0.0,0.0,0.0,0.0,0.0,0.0,0.0,0.0,0.0,0.0,0.0,0.0,0.0,0.0,0.0,0.0,0.0,0.0,0.0,0.0,0.0,0.0,0.0,0.0,4.9314,0.0,0.0,0.0,0.0,0.0,0.0,0.0,0.0,0.0,0.0,0.0,0.0,0.0,0.0,0.0,0.0,0.0,0.0,0.0,0.0,0.0,0.0,0.0,0.0,0.0,0.0,0.0,0.0,0.0,0.0,0.0,0.0,0.0,0.0,0.0,0.0,0.0,0.0,0.0,0.0,0.0,4.6284,4.8833,5.0698,5.1999,5.1757,5.1339,5.0892,4.8663,4.6376,4.4262,3.977,0.0,0.0,0.0,0.0,0.0,0.0,0.0,0.0,0.0,0.0,0.0,0.0,0.0,0.0,0.0,0.0,0.0,0.0,0.0,0.0,0.0,0.0,0.0,0.0,0.0,0.0,0.0,0.0,0.0,0.0,0.0,0.0,0.0,0.0,0.0,0.0,0.0,0.0,0.0,0.0,0.0,0.0,0.0,0.0,0.0,0.0,0.0,0.0,0.0,0.0,0.0,0.0,0.0,0.0,0.0,0.0,0.0,0.0,0.0,0.0,5.3322,0.0,0.0,0.0,0.0,0.0,0.0,0.0,0.0,0.0,0.0,0.0,0.0,0.0,0.0,0.0,0.0,0.0,0.0,0.0,0.0,0.0,0.0,0.0,0.0,0.0,0.0,0.0,0.0,0.0,0.0,0.0,0.0,0.0,0.0,0.0,0.0,0.0,0.0,0.0,0.0,4.6566,4.9639,5.1953,5.3077,5.2953,5.2749,5.2576,5.0303,4.8149,4.6408,4.2716,0.0,0.0,0.0,0.0,0.0,0.0,0.0,0.0,0.0,0.0,0.0,0.0,0.0,0.0,0.0,0.0,0.0,0.0,0.0,0.0,0.0,0.0,0.0,0.0,0.0,0.0,0.0,0.0,0.0,0.0,0.0,0.0,0.0,0.0,0.0,0.0,0.0,0.0,0.0,0.0,0.0,0.0,0.0,0.0,0.0,0.0,0.0,0.0,0.0,0.0,0.0,0.0,0.0,6.5493,6.6435,6.7133,6.6396,6.6852,6.7936,6.3161,6.0331,5.8942,5.7193,0.0,0.0,0.0,0.0,0.0,0.0,0.0,0.0,0.0,0.0,0.0,0.0,0.0,0.0,0.0,0.0,0.0,0.0,0.0,0.0,0.0,0.0,0.0,0.0,5.311,5.3148,0.0,0.0,0.0,0.0,0.0,0.0,0.0,0.0,0.0,0.0,0.0,0.0,4.7106,5.0703,5.3339,5.4218,5.418,5.4104,5.4104,5.1888,4.9857,4.8329,4.5775,4.2725,0.0,0.0,0.0,0.0,0.0,0.0,0.0,0.0,0.0,0.0,0.0,0.0,0.0,0.0,0.0,0.0,0.0,0.0,0.0,0.0,0.0,0.0,0.0,0.0,0.0,0.0,0.0,0.0,0.0,0.0,0.0,0.0,5.3318,5.3318,0.0,0.0,0.0,0.0,0.0,0.0,0.0,0.0,0.0,0.0,0.0,0.0,0.0,6.609,6.6083,6.8513,6.943,6.8871,7.1185,7.2385,7.25,7.2385,7.2423,7.2661,7.2538,0.0,6.2494,6.0748,0.0,0.0,0.0,0.0,0.0,0.0,0.0,0.0,0.0,0.0,0.0,0.0,0.0,0.0,0.0,0.0,0.0,0.0,0.0,0.0,0.0,0.0,5.7727,5.6129,5.6587,5.674,0.0,5.1576,4.8449,4.4977,4.3859,0.0,0.0,0.0,0.0,0.0,0.0,0.0,5.0315,5.269,5.4256,5.5129,5.4562,5.4104,5.4104,5.2455,5.1003,5.001,4.7553,4.5605,4.435,4.1361,0.0,0.0,0.0,0.0,0.0,0.0,0.0,0.0,0.0,0.0,0.0,0.0,0.0,0.0,0.0,0.0,0.0,0.0,0.0,0.0,0.0,0.0,0.0,0.0,0.0,0.0,0.0,0.0,0.0,5.4703,5.6626,5.4703,5.6588,5.7126,0.0,0.0,0.0,0.0,0.0,0.0,0.0,0.0,0.0,6.8821,7.0975,7.2091,7.2091,7.4137,7.5245,7.5399,7.6507,7.7315,7.7746,7.6746,7.6592,7.7007,7.6438,7.4245,7.0898,6.7256,6.3995,6.1229,0.0,0.0,0.0,0.0,6.0112,6.0501,6.1729,6.0719,0.0,5.8519,0.0,0.0,0.0,0.0,0.0,0.0,0.0,0.0,0.0,0.0,6.0325,5.9568,6.0064,6.0363,5.914,5.7351,5.4416,0.0,4.8563,4.7794,4.4126,0.0,0.0,0.0,0.0,4.8028,5.1194,5.3072,5.4448,5.532,5.5052,5.483,5.483,5.3722,5.2614,5.1773,4.9786,4.8061,4.6768,4.4399,4.1915,0.0,0.0,0.0,0.0,0.0,0.0,0.0,0.0,0.0,0.0,0.0,0.0,0.0,0.0,0.0,0.0,0.0,0.0,0.0,0.0,0.0,0.0,0.0,0.0,0.0,0.0,0.0,0.0,5.905,6.0281,5.7126,6.0281,6.1166,0.0,0.0,0.0,0.0,0.0,0.0,7.0199,7.2168,7.3476,7.413,7.6207,7.7284,7.7284,7.8754,7.9785,8.0439,8.0669,8.1093,8.1708,8.0408,8.0062,8.0362,7.9131,7.833,7.7553,7.2668,6.9256,6.6947,6.5442,6.4686,6.4576,6.5414,6.5498,6.5428,6.7581,6.6914,6.4845,6.3431,6.1844,5.9727,5.5522,0.0,0.0,0.0,0.0,6.0141,6.1638,6.2471,6.2815,6.2357,6.293,6.3236,6.2166,6.1478,5.93,0.0,5.2919,5.2002,4.7373,0.0,0.0,0.0,0.0,5.0098,5.1996,5.3531,5.4677,5.532,5.5396,5.5396,5.5396,5.4409,5.3492,5.2849,5.1238,4.9742,4.8481,4.6844,4.4862,4.2531,0.0,0.0,0.0,0.0,0.0,0.0,0.0,0.0,0.0,0.0,0.0,0.0,0.0,0.0,0.0,0.0,0.0,0.0,0.0,0.0,0.0,0.0,0.0,0.0,0.0,0.0,0.0,0.0,0.0,6.316,6.5891,0.0,0.0,0.0,0.0,6.9167,7.2315,7.4546,7.5553,7.7977,7.9354,7.9431,8.0362,8.0823,8.0823,8.167,8.2131,8.217,8.3024,8.3447,8.3486,8.337,8.2909,8.217,8.2093,8.1131,7.9354,7.5084,7.2276,7.0545,6.9699,6.8891,6.8231,6.9115,6.9891,7.0314,6.8885,6.7776,6.7192,6.858,6.6779,6.413,6.4583,6.3071,0.0,0.0,6.4993,6.5222,6.6132,6.6399,6.6025,6.4466,6.4695,6.484,6.319,6.2808,6.1738,0.0,5.632,5.49,5.3798,0.0,4.9754,5.2008,5.1162,5.1123,5.3645,5.4785,5.5358,5.5396,5.5396,5.5396,5.5396,5.3836,5.2849,5.2811,5.1238,5.0245,5.0168,4.8558,4.6877,4.513,4.2608,0.0,0.0,0.0,0.0,0.0,0.0,0.0,0.0,0.0,0.0,0.0,0.0,0.0,0.0,0.0,0.0,0.0,0.0,0.0,0.0,0.0,0.0,0.0,0.0,0.0,0.0,0.0,0.0,6.9206,7.2052,0.0,7.0122,7.1668,7.3783,7.6046,7.7315,7.9085,8.1585,8.2585,8.3316,8.3854,8.4709,8.5132,8.5132,8.5978,8.614,8.5593,8.5901,8.5747,8.5209,8.5209,8.4747,8.3978,8.3978,8.3324,8.2093,8.0015,7.7515,7.4983,7.4707,7.3707,7.2469,7.2815,7.2783,7.2469,7.1892,7.1468,7.1224,7.1134,6.9143,6.6823,6.6988,6.5635,6.4344,6.5834,6.6254,6.6445,6.7247,6.7477,6.7332,6.672,6.6797,6.6713,6.5605,6.4917,6.4,6.2288,6.0148,5.781,5.5365,5.4371,5.3842,5.3683,5.4034,5.4874,5.6358,5.6816,5.6778,5.6243,5.6167,5.5976,5.5435,5.4333,5.3416,5.2849,5.1735,5.0888,5.0321,4.9213,4.7837,4.6118,4.4126,4.1452,0.0,0.0,0.0,0.0,0.0,0.0,0.0,0.0,0.0,0.0,0.0,0.0,0.0,0.0,0.0,0.0,0.0,0.0,0.0,0.0,0.0,0.0,0.0,0.0,0.0,7.1745,7.4553,7.3983,7.7176,7.84,7.5853,7.74,7.94,8.1354,8.1777,8.3046,8.5593,8.6017,8.644,8.6978,8.7555,8.7825,8.7825,8.841,8.841,8.7825,8.7825,8.7363,8.6555,8.6555,8.6247,8.5747,8.5747,8.5401,8.4832,8.3939,8.2093,7.9746,7.8592,7.7246,7.5976,7.5976,7.5476,7.4707,7.4123,7.3738,7.3378,7.2738,7.1136,6.9466,6.9322,6.825,6.7209,6.7775,6.7966,6.808,6.8623,6.8738,6.8661,6.8394,6.8325,6.8088,6.7286,6.6445,6.5681,6.5146,6.2975,6.0523,5.83,5.8383,5.8345,5.7237,5.8001,5.8842,5.9109,5.8918,5.8421,5.7542,5.7205,5.6702,5.5861,5.5021,5.4027,5.2887,5.204,5.1194,5.0359,4.9786,4.8837,4.7417,4.5692,4.3629,4.1146,0.0,0.0,0.0,0.0,0.0,0.0,0.0,0.0,0.0,0.0,0.0,0.0,0.0,0.0,0.0,0.0,0.0,0.0,0.0,0.0,0.0,0.0,0.0,7.1437,7.4784,7.7522,7.7522,8.1216,8.2747,8.0323,8.2324,8.4132,8.497,8.5778,8.6594,8.7478,8.8325,8.8795,8.8795,8.8795,8.8795,8.8795,8.8795,8.8756,8.8756,8.8756,8.8295,8.744,8.7478,8.744,8.744,8.744,8.744,8.7363,8.6517,8.567,8.4624,8.1239,7.9361,7.86,7.86,7.8023,7.7061,7.5361,7.4238,7.3584,7.3584,7.2868,7.205,7.205,7.1282,7.0419,7.0411,7.0411,7.0411,7.0411,7.0411,7.0181,6.9425,6.9234,6.9005,6.8134,6.7324,6.6789,6.6743,6.4718,6.2999,6.2961,6.2923,6.2884,6.2884,6.2884,0.0,6.1745,6.095,6.0102,5.9255,5.8421,5.7581,5.6747,5.5861,5.4639,5.2964,5.204,5.1194,5.0359,5.0321,4.9901,4.9104,4.7417,4.5354,4.2947,0.0,0.0,0.0,0.0,0.0,0.0,0.0,0.0,0.0,0.0,0.0,0.0,0.0,0.0,0.0,0.0,0.0,0.0,0.0,0.0,0.0,7.3976,7.7015,7.5714,7.9177,8.2101,8.2747,8.4901,8.6324,8.6247,8.691,8.7632,8.847,8.8739,8.9239,9.0094,9.0364,9.0517,9.0517,9.0517,9.0517,9.0517,9.0517,9.021,8.9547,8.9547,8.9133,8.8372,8.894,8.8902,8.8333,8.8333,8.8333,8.8295,8.7401,8.6901,8.644,8.3632,8.167,8.04,8.04,7.91,7.7215,7.6746,7.6015,7.5308,7.5249,7.4205,7.2924,7.2847,7.1741,7.053,7.0427,7.0411,7.0411,7.0411,7.0411,7.0334,7.0105,7.0067,6.9846,6.9005,6.8661,6.8317,6.7668,6.6522,6.5261,6.4038,6.3312,6.2884,6.2884,6.2884,0.0,6.2579,6.1784,6.1172,6.0943,5.9637,5.8682,5.8414,5.5976,5.4256,5.376,5.1811,5.0812,5.1232,5.0621,4.9901,4.9104,4.8028,4.7106,0.0,0.0,0.0,0.0,0.0,0.0,0.0,0.0,0.0,0.0,0.0,0.0,0.0,0.0,0.0,0.0,0.0,0.0,0.0,0.0,0.0,0.0,7.9054,8.1631,8.1554,8.3324,8.5093,8.6324,8.7632,8.8786,8.9671,8.9748,8.994,9.0393,9.0778,9.121,9.171,9.2056,9.2249,9.2249,9.2249,9.2249,9.2249,9.2249,9.1979,9.1479,9.1171,9.0556,8.9748,8.9855,8.9624,8.921,8.921,8.9402,8.9633,8.844,8.8132,0.0,0.0,0.0,0.0,0.0,8.0169,7.8792,7.8061,7.7246,7.6538,7.6417,7.5211,7.3707,7.3244,7.2138,7.0981,7.0503,7.0411,7.0411,7.0411,7.0411,7.0411,7.0411,7.0411,7.0258,6.9807,6.9425,6.9043,6.8547,6.7782,0.0,6.5918,6.5031,6.4611,6.4955,6.4993,6.4879,6.4527,6.3732,6.293,6.2204,6.0936,5.9866,5.9179,5.7008,0.0,0.0,0.0,5.1964,5.2117,5.162,0.0,0.0,0.0,0.0,0.0,0.0,0.0,0.0,4.8596,4.9207,0.0,0.0,0.0,0.0,0.0,0.0,0.0,0.0,0.0,0.0,0.0,0.0,0.0,0.0,0.0,0.0,8.467,8.6709,8.7555,8.7094,8.7209,8.8671,8.9556,9.0393,9.1248,9.1364,9.1364,9.1479,9.221,9.2633,9.2633,0.0,0.0,0.0,0.0,9.371,9.371,9.371,9.371,9.3672,9.2979,9.221,9.1441,9.0586,9.0201,9.0163,8.997,9.0393,9.1095,8.9479,8.921,8.9509,8.7055,8.5624,8.4624,8.2247,8.1246,8.0862,7.9331,0.0,0.0,7.7201,7.601,7.4473,7.3551,7.262,7.1675,7.0801,7.0602,7.0678,7.0563,7.0602,7.0678,7.0563,7.0563,7.0525,7.0411,6.9846,6.9349,6.9349,6.8631,6.8058,6.8058,6.7286,6.6942,6.7676,6.7676,6.7362,6.6636,6.5796,6.4726,6.3343,0.0,0.0,5.9637,5.8536,5.7275,5.5778,5.4868,5.4027,5.3269,5.3307,5.3683,5.4371,5.583,5.625,5.5556,5.7122,5.7199,5.574,5.2416,5.1773,0.0,0.0,0.0,0.0,0.0,0.0,0.0,0.0,0.0,0.0,0.0,0.0,0.0,0.0,0.0,8.2986,8.6102,8.8479,8.9278,8.9902,9.0086,8.9701,9.0441,9.1287,9.2172,9.2249,9.2518,9.3172,9.3364,9.348,9.348,9.3633,9.371,9.371,9.371,9.371,9.371,9.371,9.371,9.371,0.0,0.0,9.3172,9.2364,9.2018,9.1902,9.0509,9.0393,9.1133,9.0094,8.9363,8.8748,8.6824,8.5624,8.4739,8.3555,8.2247,8.1054,8.0708,7.9554,7.8169,7.7462,7.6562,7.5518,7.4527,7.3629,0.0,7.1721,7.1947,7.2329,7.165,7.1947,7.2329,7.1612,7.1459,7.1259,7.0563,7.0296,7.0181,7.0181,6.9502,6.8929,6.8929,6.7706,6.6743,6.6904,6.633,6.5834,6.5681,6.4924,6.458,6.4879,6.293,6.1745,6.212,5.9529,5.7772,5.7428,5.6594,5.6059,5.5868,5.6556,5.6664,5.6135,5.6441,5.6517,5.6365,5.739,5.8077,5.8338,5.5664,5.5326,0.0,0.0,0.0,0.0,0.0,0.0,0.0,0.0,0.0,0.0,0.0,7.6938,7.99,0.0,8.4439,8.6978,8.8479,8.9594,9.0432,9.0932,9.1047,9.0586,9.1325,9.2018,9.2441,9.2864,9.3249,9.3681,9.4104,9.4527,9.498,9.5365,9.5788,9.6249,9.6249,9.6249,9.6249,9.6249,9.6019,9.5595,9.5172,9.4749,9.4335,9.348,9.2864,9.2441,9.1595,9.121,9.1171,9.074,8.9556,8.8025,8.7555,8.6632,8.5401,8.4555,8.3708,8.2901,8.2016,8.0862,7.9669,7.8785,7.7585,7.634,7.537,7.4416,7.3516,7.263,7.2682,7.2902,7.2452,7.2682,7.2911,7.2452,7.2338,7.2108,7.1221,7.1068,7.0916,7.0487,7.0067,6.9807,6.9807,6.8776,6.7821,6.7362,6.6598,6.6063,6.6063,6.5299,6.481,6.481,6.3663,6.2892,6.2884,6.0599,5.8803,5.7963,5.7886,5.7657,5.7282,5.8077,5.8307,5.7848,5.8275,5.8696,5.9109,5.9988,6.0599,6.0974,5.9713,5.937,0.0,0.0,0.0,0.0,0.0,0.0,0.0,7.2342,7.4868,7.8099,8.0092,8.2516,8.6632,8.7248,8.8055,9.0979,9.097,9.0816,9.1364,9.1441,9.1402,9.121,9.1979,9.2556,9.271,9.348,9.4018,9.4172,9.4989,9.5788,9.6519,9.7326,9.8057,9.8788,9.8788,9.8788,9.8788,9.8788,9.8365,9.748,9.6826,9.6095,9.522,9.4364,9.3595,9.2979,9.2633,9.2095,9.1441,9.1095,8.9633,8.7709,8.8256,8.7478,8.6017,8.5354,8.5008,8.4662,8.3093,8.2016,8.1162,8.0061,7.8721,7.7352,7.6227,7.5378,7.4537,7.3556,7.3395,7.3463,7.3293,7.3361,7.3437,7.3284,7.3093,7.2758,7.1879,7.1573,7.1221,7.0525,7.0411,7.0411,7.0411,6.9838,6.912,6.8287,6.7477,6.6942,6.6942,6.6178,6.5413,6.4733,6.4389,6.3854,6.2961,6.1669,6.03,5.8956,5.9484,5.9561,5.8918,5.9484,5.9828,5.9828,6.0523,6.1211,6.186,6.2739,6.3159,6.3159,6.3496,6.3075,6.4588,6.6359,6.8757,7.2687,7.2768,7.3882,0.0,8.1493,8.0862,8.3516,8.5363,8.6709,8.7286,8.9171,9.1018,9.2172,9.2864,9.3056,9.2441,9.2364,9.2056,9.1287,9.1979,9.2787,9.348,9.4335,9.5181,9.5942,9.6749,9.725,9.7365,9.8173,9.8711,9.8788,9.8788,9.8788,9.8788,9.8788,9.8365,9.7519,9.7403,9.6942,9.6134,9.5249,9.4797,9.4643,9.3133,9.2441,9.221,9.0663,8.9479,8.8487,8.7825,8.694,8.6094,8.6017,8.5517,8.4739,8.3793,8.2909,8.19,8.0308,7.9646,7.9161,7.747,7.6862,7.6439,7.4714,7.4749,7.5107,7.4295,7.4622,7.5013,7.424,7.3514,7.2758,7.1879,7.1107,7.0525,7.0411,7.0411,7.0411,7.0411,7.0334,6.999,6.9196,6.8325,6.779,6.779,6.7056,6.6514,6.6437,6.5077,6.3854,6.2961,6.2732,6.2541,6.235,6.2426,6.2426,6.235,6.2426,6.2464,6.2464,6.2579,6.2655,6.277,6.3618,6.4045,6.4084,6.5566,6.5413,7.1534,7.3399,7.4606,7.5911,7.7929,8.0254,8.2833,8.3733,8.4593,8.6671,8.8055,8.9171,9.0171,9.1248,9.221,9.3056,9.348,9.3403,9.2595,9.2479,9.2172,9.1287,9.1979,9.2826,9.3633,9.4489,9.5566,9.6903,9.7326,9.7942,9.8952,9.9375,9.975,10.0212,10.0289,10.0289,10.0289,10.0289,9.9827,9.9029,9.9029,9.8288,9.698,9.6634,9.5634,9.4181,9.3018,9.221,9.1672,9.0979,8.9863,8.8679,8.8295,8.7325,8.6094,8.6094,8.5901,8.5401,8.4055,8.337,8.2793,8.1093,8.0177,7.9515,7.8253,7.7445,7.6733,7.5433,7.5298,7.5438,7.5059,7.5242,7.5395,7.5042,7.4707,7.4095,7.2758,7.2176,7.1603,7.0602,7.0411,7.0411,7.0411,7.0411,7.0296,6.9952,6.9196,6.8669,6.8669,6.7935,6.7209,6.6743,6.6063,6.5108,6.377,6.3656,6.3427,6.2923,6.3388,6.3427,6.2923,6.3388,6.3656,6.3656,6.3656,6.3885,6.4344,6.4726,6.5154,6.5681,6.6369,6.633,7.5784,7.7861,7.9138,7.8754,8.1977,8.5016,8.4247,8.567,8.7555,8.9094,8.9863,9.0701,9.221,9.2672,9.3095,9.3912,9.4249,9.4057,9.2979,9.2826,9.2441,9.1325,9.1748,9.2441,9.3287,9.4373,9.5605,9.7057,9.7596,9.8519,9.999,10.0298,10.0712,10.1279,10.1279,10.1279,10.1279,10.1279,10.0904,10.0106,10.0106,9.9298,9.7865,9.7596,9.6365,9.4364,9.3287,9.2479,9.1864,9.1402,9.0325,8.9017,8.8795,8.7786,8.644,8.6209,8.6094,8.5901,8.4439,8.3793,8.337,8.19,8.0823,7.9899,7.8738,7.7905,7.7092,7.5948,7.5574,7.5497,7.5518,7.5509,7.5509,7.5509,7.5318,7.4821,7.359,7.2979,7.2253,7.0992,7.0563,7.0411,7.0411,7.0411,7.0411,7.0411,6.9914,6.954,6.954,6.8776,6.7943,6.7133,6.7018,6.6445,6.5001,6.4886,6.4535,6.3648,6.4191,6.4229,6.3618,6.4191,6.4657,6.4886,6.4886,6.5299,6.6101,6.6101,6.6407,6.7018,6.7018,6.7171,7.5399,7.7823,8.1208,8.1939,8.4132,8.6478,8.8141,8.9171,9.0047,9.0941,9.1133,9.1441,9.2326,9.3133,9.3941,9.4835,9.5672,9.5634,9.3903,9.3672,9.3056,9.1402,9.121,9.1595,9.2441,9.4027,9.5365,9.6288,9.7827,9.9144,10.0106,10.0789,10.1289,10.1279,10.1279,10.1279,10.1279,10.1279,10.0904,10.0106,10.0106,9.9644,9.8711,9.7904,9.7019,9.6134,9.4403,9.3633,9.348,9.1864,9.0663,8.9778,8.8979,8.8132,8.7248,8.6401,8.6094,8.5978,8.5162,8.4324,8.3447,8.2554,8.1708,8.0746,7.9015,7.8423,7.7991,7.6215,7.5666,7.5574,7.5535,7.5509,7.5509,7.5509,7.4851,7.4231,7.4155,7.2902,7.1726,7.1688,7.0992,7.0411,7.0411,7.0411,7.0411,7.0411,7.0372,7.0372,7.0372,6.9655,6.8822,6.7981,6.7867,6.7515,6.6674,6.6628,6.6254,6.5375,6.5337,6.5337,6.5337,6.5337,6.5757,6.659,6.6628,6.7018,6.7828,6.7828,6.7828,6.7867,6.7867,6.8325,7.9361,8.2016,8.4478,8.4747,8.6739,8.8778,8.9363,9.0171,9.0663,9.0393,8.9902,8.9633,8.9911,9.0633,9.1633,9.3095,9.5018,9.5903,9.472,9.5518,9.5172,9.2402,9.2518,9.2556,9.171,9.2672,9.4403,9.6903,9.7634,9.8788,10.0789,10.1212,10.1597,10.2097,10.1799,10.198,10.302,10.2106,10.1607,10.1712,10.0188,9.925,9.874,9.7531,9.6401,9.5365,9.421,9.3403,9.2826,9.1672,9.0364,8.9094,8.8795,8.7825,8.6517,8.6209,8.6094,8.5978,8.5162,8.4709,8.4209,8.2785,8.2131,8.1469,7.9146,7.8383,7.7949,7.6126,7.5583,7.5659,7.6159,7.5891,7.5624,7.615,7.5662,7.4889,7.4307,7.3781,7.3017,7.1917,7.1459,7.1068,7.0487,7.0411,7.0411,7.0411,7.0411,7.0411,7.0411,7.0143,6.9693,6.8852,6.8738,6.8432,6.7553,6.7515,6.737,6.7095,6.7064,6.6827,6.6292,6.6254,6.6407,6.6705,6.6705,6.7095,6.7905,6.7362,6.7362,6.7905,6.7905,6.8058,8.2631,8.4863,8.6709,8.7316,8.8932,9.0278,8.997,9.0316,9.0316,8.8855,8.8132,8.7594,8.6987,8.7555,8.8855,9.121,9.348,9.5057,9.5403,9.6403,9.6172,9.3672,9.3835,9.3758,9.2672,9.289,9.4206,9.6856,9.7904,9.9288,10.1202,10.1587,10.202,10.2597,10.2511,10.2884,10.3905,10.2692,10.2117,10.2087,10.0697,9.9557,9.8779,9.7848,9.6718,9.5403,9.4527,9.3599,9.2575,9.173,9.0273,8.8577,8.8451,8.7547,8.6298,8.6159,8.6094,8.6017,8.5517,8.5124,8.4709,8.3593,8.2824,8.1931,7.9953,7.8883,7.8034,7.655,7.5863,7.5672,7.6173,7.5935,7.5659,7.6159,7.5891,7.5356,7.4775,7.4431,7.3896,7.2788,7.2108,7.1535,7.0954,7.0602,7.0411,7.0411,7.0411,7.0411,7.0411,7.0411,7.0181,6.9693,6.9616,6.9273,6.844,6.8363,6.8249,6.7905,6.7905,6.7676,6.7133,6.7133,6.7286,6.7591,6.7591,6.7859,6.8363,6.8126,6.8126,6.8363,6.8363,6.8508,8.5008,8.6286,8.7979,8.9586,9.0586,9.0979,9.0086,8.9893,8.9162,8.6624,8.6,8.5423,8.3708,8.4192,8.5906,8.9137,9.1385,9.3548,9.5991,9.6462,9.6202,9.5192,9.5106,9.5106,9.5029,9.462,9.4979,9.6404,0.0,10.0317,10.1288,10.2096,10.2605,10.2712,10.35,10.3885,10.3982,10.3097,10.2212,10.1279,10.1298,10.0423,9.8788,9.8769,9.7846,9.6249,9.5374,9.4235,9.289,9.206,9.0465,8.8442,8.8046,8.7412,8.6631,8.6183,8.6035,8.6035,8.6035,8.556,8.4931,8.4854,8.3708,8.2208,8.1277,7.9846,7.8276,7.7423,7.6523,7.583,7.5739,7.5714,7.5651,7.5574,7.5509,7.5509,7.5509,7.4851,7.4231,7.4193,7.2864,7.1688,7.1688,7.0992,7.0411,7.0411,7.0411,7.0411,7.0411,7.0411,7.0411,7.0411,7.0411,7.0105,6.9311,6.9273,6.889,6.8096,6.802,6.802,6.7981,6.7981,6.8363,6.9196,6.9196,6.9234,6.9273,6.999,6.9952,6.9196,6.9196,6.9616,8.6401,8.8479,9.0325,9.074,9.1056,9.0979,9.0086,8.9893,8.9162,8.6624,8.4822,8.3105,8.1122,8.2741,8.4853,8.6241,9.1471,9.5646,9.6476,9.8592,9.9085,9.6559,9.6795,9.668,9.5396,9.6292,9.7544,9.9029,9.8357,9.8978,10.1503,10.2383,10.3317,10.4395,10.4194,10.4287,10.4789,10.3289,10.2212,10.1317,10.0885,10.0014,9.8779,9.8333,9.7483,9.6249,9.5374,9.4434,9.3409,9.2641,9.1202,8.9391,8.8315,8.7432,8.6561,8.5467,8.5078,8.5078,8.5078,8.538,8.5593,8.4324,8.364,8.2854,8.0722,7.9721,7.9198,7.8242,7.7818,7.7648,7.7623,7.7067,7.6556,7.6561,7.6012,7.5509,7.5509,7.5318,7.4966,7.4316,7.2864,7.1688,7.1688,7.0992,7.0411,7.0411,7.0411,7.0411,7.0411,7.0411,7.0411,7.0411,7.0411,7.0334,7.0105,7.0105,6.999,6.9769,6.9761,6.9502,6.889,6.8852,6.8967,6.9196,6.9196,6.9502,7.0105,6.9693,6.9387,6.9196,6.9196,6.9311,8.8248,8.9825,9.121,9.121,9.0893,9.0201,8.8585,8.797,8.6629,8.2766,8.1155,7.9408,7.6029,7.8094,8.0945,8.2894,8.85,9.3733,9.6805,9.8725,9.9594,9.8972,9.8988,9.8926,9.8587,9.8956,9.9729,10.0891,10.011,10.0398,10.2605,10.341,10.4221,10.5097,10.4818,10.4287,10.3585,10.2891,10.1905,10.0581,10.0815,9.9846,9.8057,9.8001,9.7084,9.5533,0.0,9.419,9.316,9.2322,9.0938,8.9288,8.8053,8.7208,8.6581,8.5642,8.5317,8.5296,8.5061,8.5357,8.5622,8.4701,8.4046,8.3324,8.1853,8.0645,7.963,7.9121,7.8683,7.8359,7.8325,7.7922,7.7403,7.6935,7.6415,7.593,7.5586,7.5509,7.5242,7.4384,7.3437,7.2673,7.2338,7.1871,7.1527,7.1527,7.1221,7.0954,7.0954,7.064,7.0411,7.0411,7.0411,7.0411,7.0411,7.0411,7.0411,7.0411,7.0411,7.0181,6.9769,6.9731,6.9731,6.9731,6.9731,6.9769,6.9884,6.9769,6.954,6.9196,6.9578,6.9731,9.0201,9.0778,9.1364,9.1364,9.047,8.897,8.6624,8.5132,8.2773,7.7726,7.6804,7.5448,7.0693,7.3049,7.6795,8.019,8.5129,9.0759,9.7066,9.8204,9.9159,10.1202,10.0996,10.1197,10.2298,10.1509,10.1305,10.2208,10.2485,10.3008,10.3684,10.4489,10.4906,10.4893,10.4816,10.37,10.1617,10.2003,10.1293,9.962,10.0577,9.974,9.727,9.7686,9.6736,9.4755,9.4642,9.3874,9.2613,9.1748,9.0507,8.8955,8.7538,8.686,8.6563,8.5954,8.5721,8.5675,8.5238,8.5187,8.5278,8.5164,8.4413,8.353,8.3308,8.1758,8.0014,7.9907,7.9369,7.8792,7.8566,7.8486,7.8207,7.7147,7.6826,7.6512,7.5815,7.5586,7.528,7.4507,7.4269,7.3972,7.3284,7.3055,7.2979,7.2979,7.2376,7.1841,7.1726,7.0954,7.0411,7.0411,7.0411,7.0411,7.0411,7.0411,7.0411,7.0411,7.0411,7.0411,7.0411,7.0411,7.0411,7.0411,7.0411,7.0075,6.9349,7.0075,7.0029,6.9387,7.0067,7.0411,9.1864,9.2172,9.2287,9.2287,9.0056,8.7517,8.6363,8.3277,7.9929,7.7245,7.5625,7.3649,7.041,7.4198,7.8736,8.1474,8.7285,9.3072,9.7679,9.9883,10.0811,10.0298,10.1197,10.1715,10.1504,10.1302,10.1694,10.3014,10.3121,10.2988,10.2689,10.349,10.3802,10.3585,10.299,10.2101,10.102,10.0391,9.9958,9.962,9.9807,9.9262,9.8077,9.7513,9.6666,9.5563,9.4894,0.0,9.311,9.229,9.1382,9.026,8.7571,8.6501,8.6214,8.4366,8.3706,8.3692,8.362,8.4129,8.4685,8.399,8.3617,8.3188,8.1782,8.1344,8.1154,8.0483,8.0481,8.0469,7.9746,7.9499,7.9196,7.8245,7.7433,7.679,7.655,7.5968,7.5471,7.5318,7.4698,7.4155,7.401,7.3437,7.2979,7.2979,7.2864,7.2529,7.1803,7.0954,7.0411,7.0411,7.0411,7.0411,7.0411,7.0411,7.0411,7.0411,7.0411,7.0411,7.0411,7.0411,7.0411,7.0411,7.0411,7.0334,7.0181,7.0334,7.0334,7.0181,7.0334,7.0411,9.2133,9.2172,9.1825,9.1825,8.9248,8.6286,8.4516,8.0862,7.697,7.3975,7.2868,7.1488,6.8379,7.2175,7.6514,7.8614,8.3138,8.863,9.5073,9.7009,9.8592,10.0901,10.2115,10.2791,10.3014,10.2715,10.2787,10.3489,10.3179,10.3201,10.3497,10.389,10.3888,10.3307,10.2511,10.15,10.0389,9.9872,9.9302,9.8723,9.9316,9.8607,9.6809,9.6699,9.5842,9.4317,9.3941,0.0,9.3101,9.2238,9.156,9.0866,8.8562,8.7289,8.6594,8.5143,8.4337,8.396,8.3651,8.387,8.4192,8.3802,8.3706,8.3578,8.2531,8.1762,8.1144,8.0773,8.0505,8.0324,8.0049,7.9981,7.9781,7.9067,7.8164,7.7464,7.7382,7.7067,7.68,7.68,7.6456,7.618,7.618,7.5462,7.4927,7.4927,7.4163,7.3323,7.249,7.2024,7.1412,7.0487,7.0411,7.0411,7.0411,7.0411,7.0411,7.0411,7.0411,7.0411,7.0411,7.0411,7.0411,7.0411,7.0411,7.0411,7.0411,7.0411,7.0411,7.0411,7.0411,7.0411,9.1902,9.1864,9.1479,9.1479,8.8517,8.4978,8.2785,7.8477,7.3973,7.0737,7.0193,6.9455,6.6526,6.9901,7.3944,7.6424,7.9535,8.4465,9.2588,9.4731,9.7008,10.1185,10.2795,10.3714,10.4192,10.3808,10.3497,10.3497,10.2987,10.3087,10.4101,10.4199,10.3784,10.2916,10.2085,10.1091,9.9734,9.9396,9.8801,9.7909,9.8831,9.7996,9.568,9.5955,9.5048,9.3248,9.3062,0.0,0.0,9.2059,9.147,9.0938,8.9313,8.7896,8.6694,8.5889,8.5058,8.433,8.3896,8.3817,8.3896,8.3777,8.3827,8.3824,8.3494,8.2271,8.0992,8.0904,8.0304,7.9762,8.0033,8.0093,7.9962,7.9435,7.871,7.814,7.8031,7.7993,7.8022,7.8022,7.8022,7.7937,7.7755,7.7296,7.6876,7.6494,7.5462,7.4393,7.3361,7.3246,7.2673,7.1098,7.0793,7.0602,7.0411,7.0563,7.0686,7.0686,7.0831,7.0869,7.0686,7.0686,7.0686,7.0686,7.0686,7.0686,7.0686,7.0686,7.0686,7.0686,7.0686,7.0686,9.1479,9.1825,9.2364,9.2364,8.8055,8.3563,8.2516,7.663,7.0976,6.9528,6.8889,6.8105,6.6327,6.9456,7.3889,7.8683,8.1849,8.6094,9.2827,9.7312,9.9808,9.9443,10.2408,10.4078,10.2987,10.2792,10.2793,10.2793,10.272,10.2813,10.2882,10.2882,10.251,10.1691,10.089,9.9982,9.9185,9.8436,9.7992,9.7892,9.7992,9.7509,9.648,9.5805,9.4987,9.4065,9.3322,0.0,0.0,9.2059,9.1237,9.0409,8.8809,8.7166,8.5626,8.4844,8.4025,8.3318,8.3297,8.355,8.383,8.3418,8.3281,8.3303,8.3368,8.2428,8.1307,8.0999,8.0315,7.9708,7.9741,7.9751,7.9647,7.9171,7.8816,7.8549,7.8191,7.8038,7.8022,7.8022,7.8022,7.7755,7.6953,7.7411,7.7373,7.5853,7.6112,7.5883,7.4316,7.4078,7.3743,7.2864,7.207,7.1259,7.0487,7.1145,7.1573,7.1573,7.2338,7.2414,7.1612,7.1573,7.1573,7.1573,7.1573,7.1573,7.1573,7.1573,7.1573,7.1573,7.1573,7.1573,9.1364,9.1864,9.1595,9.1056,8.7248,8.3101,8.1208,7.5668,7.064,6.9644,6.8894,6.8363,6.8249,7.0183,7.3022,7.68,7.8169,8.0806,8.6602,9.0423,9.3507,9.5872,9.9321,10.2011,10.3387,10.3019,10.2721,10.2721,10.2721,10.2721,10.2721,10.2721,10.261,10.2183,10.1012,10.0121,9.9824,9.8523,9.7892,9.7892,9.7372,9.6666,9.5848,9.5031,9.4251,9.3471,9.3136,0.0,0.0,9.2616,9.1985,9.1093,8.9979,8.853,8.6932,8.5595,8.4592,8.3849,8.3381,8.3318,8.3494,8.3583,8.341,8.3208,8.324,8.278,8.1982,8.1053,8.0393,7.9882,7.9418,7.943,7.9496,7.9242,7.9084,7.8998,7.9039,7.9051,7.9129,7.9428,7.9513,7.9398,7.9054,7.8443,7.7755,7.7105,7.6838,7.6074,7.4422,7.508,7.5004,7.317,7.2682,7.2329,7.1985,7.2291,7.249,7.249,7.2788,7.2834,7.249,7.249,7.249,7.249,7.249,7.249,7.249,7.1956,7.1688,7.1688,7.1145,7.1183,8.9787,9.071,9.0556,8.9432,8.6363,8.287,8.0054,7.5399,7.1283,6.9975,6.9206,6.8968,6.959,7.0708,7.2404,7.5015,7.6208,7.8304,8.2607,8.6517,9.0107,9.3323,9.6861,9.9982,10.2498,10.2718,10.2721,10.2721,10.2721,10.2721,10.2721,10.2721,10.2721,10.2721,10.1106,10.0307,10.0307,9.8709,9.7892,9.7892,9.7037,9.6183,9.5365,9.4585,9.3768,9.2988,9.2988,0.0,0.0,9.2988,9.2356,9.1279,9.0722,8.9347,8.7527,8.6115,8.5075,8.4257,8.3492,8.3195,8.3268,8.3606,8.3466,8.3195,8.3195,8.285,8.2318,8.1512,8.0971,8.038,7.9567,7.9549,7.9613,7.9305,7.9112,7.9138,7.952,7.9505,7.9643,8.0169,8.0248,8.0249,8.0143,7.936,7.8557,7.8061,7.7717,7.6953,7.5501,7.615,7.6036,7.4278,7.3866,7.356,7.3055,7.3208,7.3361,7.3361,7.359,7.3628,7.3361,7.3361,7.3361,7.3361,7.3361,7.3361,7.3361,7.275,7.2444,7.2406,7.1794,7.1871,8.617,8.8009,8.9509,8.7825,8.5486,8.2716,7.9292,7.5899,7.2776,7.0206,6.9706,6.9706,6.9706,7.0762,7.2269,7.4268,7.7856,8.1016,8.292,8.8528,9.246,9.2491,9.573,9.8466,9.9806,10.1605,10.2721,10.2721,10.2721,0.0,10.2721,10.2721,10.2721,10.2721,10.1106,10.0307,10.0307,9.8709,9.7892,9.7892,9.7037,9.6183,9.5365,9.4585,9.3768,9.2988,0.0,0.0,0.0,9.2988,9.2022,9.0499,9.0499,8.8976,8.6709,8.5892,8.5075,8.4257,8.3492,8.3195,8.3195,8.3195,8.3195,8.3195,8.3195,8.2637,8.2098,8.2564,8.2083,8.1282,8.0418,8.0193,8.0005,7.9178,7.8816,7.8727,7.9218,7.9085,7.9061,7.9583,7.9708,7.963,7.938,7.998,7.9895,7.8252,7.8719,7.8949,7.8061,7.722,7.6685,7.6647,7.5968,7.4783,7.3132,7.3743,7.4193,7.4193,7.5013,7.508,7.4231,7.4193,7.4193,7.4193,7.4193,7.4193,7.4193,7.4193,7.4155,7.4155,7.4155,7.4155,8.2208,8.367,8.4286,8.2631,8.1131,7.9369,7.6553,7.4207,7.2206,7.0821,7.009,6.986,7.0437,7.086,7.2453,7.6476,7.876,8.064,8.2569,8.7555,9.1194,9.163,9.782,10.1975,10.1794,10.2922,10.3297,10.2703,10.2721,10.2721,10.2721,10.2721,10.2406,10.1904,10.0901,10.0009,9.9489,9.8412,9.7892,9.7892,9.6443,9.5663,9.5365,9.3991,9.3248,0.0,0.0,0.0,0.0,9.2988,9.2319,9.1279,9.0722,8.9681,8.827,8.6301,8.5446,8.5038,8.3678,8.3195,8.3195,8.3195,8.3195,8.3195,8.3195,8.326,8.3209,8.2819,8.1858,8.097,8.1067,8.0797,8.0532,8.0501,8.0196,7.9823,7.957,7.9433,7.9325,7.9162,7.9133,7.9221,7.9543,7.9312,7.9071,7.8903,7.9101,7.8987,7.8099,7.829,7.8261,7.764,7.7373,7.6532,7.486,7.4936,7.508,7.508,7.5356,7.5395,7.5089,7.508,7.508,7.508,7.508,7.508,7.508,7.4507,7.4193,7.4193,7.4813,7.5386,7.8207,8.0246,8.1016,7.9669,7.8669,7.7445,7.5207,7.3668,7.236,7.1168,7.0514,7.0321,7.0821,7.1437,7.274,7.5323,7.83,8.0714,8.1859,8.7069,9.1529,9.3666,9.8964,10.2388,10.209,10.2978,10.3316,10.2703,10.2406,10.2183,10.2183,10.2015,10.1403,10.0604,10.0418,10.0084,9.9563,9.8449,9.7743,9.7372,9.6034,9.5254,9.4883,9.3582,9.2988,0.0,0.0,0.0,0.0,9.2653,9.2022,9.1167,9.035,8.957,8.8604,8.6747,8.5855,8.5409,8.4124,8.3455,8.3195,8.3195,8.3195,8.3195,8.3195,8.3418,8.3566,8.3219,8.2546,8.1907,8.193,8.1684,8.1391,8.1072,8.0753,8.0406,7.9999,7.9888,7.9712,7.9261,7.9152,7.9304,7.9764,7.9456,7.9331,7.9967,7.9964,7.9694,7.9151,7.9228,7.9101,7.8557,7.8213,7.7564,7.6532,7.6159,7.5968,7.5968,7.5968,7.5968,7.5968,7.5968,7.5815,7.5509,7.5815,7.5968,7.5968,7.573,7.5462,7.5157,7.5692,7.6044,0.0,7.7169,7.8861,7.7984,7.733,7.6399,7.4668,7.3815,0.0,7.1168,7.086,7.0975,7.1206,7.2399,7.3137,7.2554,7.7374,8.1278,8.1522,8.753,9.3543,9.7956,9.9442,10.0398,10.1191,10.2107,10.2721,10.2721,10.2015,10.1495,10.1495,10.0697,9.9972,9.9229,9.9861,10.0195,10.0121,9.8598,9.7409,9.6591,9.5737,9.492,9.4177,9.3359,9.2988,0.0,0.0,0.0,0.0,9.2133,9.1279,9.0424,8.9681,8.8864,8.7973,8.7118,8.6301,8.5483,8.4666,8.3864,8.3195,8.3195,8.3195,8.3195,8.3195,8.3195,8.3275,8.3747,8.3857,8.3682,8.2971,8.277,8.2438,8.1224,8.0805,8.0688,8.0643,8.0541,8.0296,7.9818,7.9701,7.9786,8.0103,8.0167,8.0392,8.1168,8.1099,8.0919,8.0843,8.0043,7.9475,7.9332,7.8692,7.8204,7.8099,7.7296,7.68,7.68,7.68,7.6791,7.6717,7.6782,7.6409,7.5656,7.6409,7.68,7.68,7.7602,7.764,7.6876,7.6876,7.6494,6.8866,0.0,7.186,7.0968,7.1591,7.1975,0.0,7.1245,7.2014,7.0321,7.0475,7.1706,7.4322,7.3014,7.3813,8.0926,8.2028,8.3466,8.7597,9.2523,9.7123,10.1008,10.1783,10.2289,10.3008,10.2906,10.2721,10.2721,10.2015,10.1495,10.1495,10.0697,10.0195,10.0009,9.9601,9.9081,9.8486,9.7446,9.6814,9.6591,9.5143,9.4362,9.4177,9.3359,9.2988,0.0,0.0,0.0,9.2988,9.2765,9.1836,9.0462,9.0276,8.9347,8.7973,8.7118,8.6301,8.5483,8.4666,8.3864,8.3195,8.3195,8.3195,8.3195,8.3195,8.3195,8.3224,8.3318,8.3361,8.3401,8.3578,8.3338,8.3074,8.3117,8.2827,8.2458,8.2117,8.2009,8.1734,8.0824,8.0675,8.0661,8.0631,8.0631,8.079,8.1242,8.1245,8.0993,8.0354,8.0992,8.1035,7.9754,8.0391,8.0391,7.9101,7.8213,7.7678,7.7678,7.7678,7.7503,7.7096,7.7475,7.7417,7.683,7.7408,7.7678,7.7678,7.7908,7.8252,7.8681,7.8681,7.8605,6.6558,6.8629,7.0821,7.0776,7.143,7.193,7.1392,7.1168,7.0898,7.036,7.0283,7.1283,7.4322,7.4284,7.5564,8.0796,8.2992,8.6209,9.2389,9.5974,9.919,10.2605,10.3102,10.3196,10.321,10.2881,10.2721,10.2721,10.1607,10.0883,10.0883,9.9861,9.9192,9.9192,9.8783,9.8523,9.8449,9.7223,9.6406,9.6034,9.4808,9.3991,9.3619,9.3211,9.2988,0.0,0.0,0.0,9.2393,9.2393,9.1428,8.9942,8.9942,8.9198,8.8047,8.7564,8.6858,8.6078,8.5632,8.474,8.3752,8.3752,8.3492,8.3195,8.3195,8.3195,8.3195,8.3195,8.3195,8.3268,8.3522,8.3404,8.3268,8.3522,8.339,8.3119,8.2893,8.2837,8.252,8.1522,8.1308,8.1288,8.1139,8.1124,8.1294,8.1735,8.1689,8.1428,8.095,8.1395,8.1424,8.0519,8.0997,8.1074,8.0282,7.9551,7.8978,7.8634,7.8596,7.8465,7.8168,7.8446,7.8332,7.7813,7.8694,7.9228,7.9388,8.0001,8.0124,7.9866,7.9866,7.9445,6.6359,6.9475,7.2552,7.2399,7.293,7.3546,7.3699,7.193,7.0437,7.0975,7.0552,7.0937,7.3738,7.5822,7.7445,7.8484,8.3421,8.9362,9.5769,9.813,10.0299,10.3094,10.3484,10.3401,10.29,10.2794,10.2721,10.2721,10.131,10.0418,10.0307,9.8895,9.804,9.7892,9.7892,9.8226,9.8895,9.726,9.5997,9.5217,9.44,9.3657,9.2988,9.2988,9.2988,9.2988,0.0,0.0,9.1725,9.1836,9.0945,8.9459,8.9459,8.8976,8.827,8.8158,8.7527,8.6784,8.6672,8.5706,8.4555,8.4458,8.3923,8.3381,8.3232,8.3195,8.3195,8.3195,8.3195,8.3195,8.3195,8.3195,8.3195,8.3195,8.3195,8.321,8.3275,8.3289,8.306,8.22,8.2059,8.1986,8.1768,8.1723,8.1883,8.236,8.2259,8.202,8.1763,8.1666,8.1477,8.1239,8.1152,8.1207,8.1281,8.0883,8.0314,7.9666,7.9524,7.9484,7.9484,7.9543,7.937,7.9018,8.0258,8.103,8.1317,8.2451,8.2273,8.0888,8.0888,8.0047,6.8513,7.1668,7.3168,6.8282,7.0321,7.2776,7.0007,7.1199,7.2738,7.2129,7.1905,7.3021,7.6984,7.6899,7.8092,8.3824,8.874,9.3071,9.6451,9.8574,10.0502,10.2391,10.2673,10.2985,10.3514,10.2985,10.2721,10.2721,10.1774,10.1012,10.0307,9.9415,9.8598,9.7929,9.7892,9.7966,9.8077,9.6406,9.518,9.4362,9.3582,9.3099,9.2988,9.2988,9.2988,9.2988,0.0,9.2505,9.1762,9.2505,9.1799,9.0313,9.0313,8.983,8.9013,8.836,8.7527,8.6709,8.6004,8.5632,8.5298,8.4629,8.431,8.4072,8.3418,8.3195,8.3195,8.3195,8.3195,8.3195,8.3195,8.3195,8.3195,8.3195,8.3195,8.3289,8.372,8.3777,8.3739,8.36,8.3562,8.3372,8.2772,8.2689,8.268,8.268,8.2616,8.2299,8.1391,8.2304,8.2398,8.0879,8.1698,8.2059,8.1368,8.1207,8.1118,8.1005,8.0587,8.0315,8.0315,8.0593,8.0922,8.1289,8.2158,8.2626,8.2673,8.2894,8.2884,8.2617,8.2617,8.2111,6.7321,7.0437,7.236,6.8282,7.2122,7.6354,7.4322,7.3668,7.3892,7.5329,7.4514,7.4707,7.8515,8.0092,8.2862,8.9171,9.1969,9.4471,9.7664,9.9593,10.1082,10.2282,10.318,10.3576,10.3213,10.251,10.209,10.209,10.0901,10.0009,9.9675,9.8895,9.8263,9.7892,9.7446,9.7,9.6554,9.5365,9.4994,9.5477,9.4697,9.4288,9.4288,9.3842,9.3657,9.3619,0.0,9.2505,9.1762,9.2653,9.2022,9.0536,9.0982,9.0387,8.9198,8.8381,8.7861,8.7452,8.7081,8.6635,8.6189,8.5818,8.5112,8.4332,8.3975,8.3529,8.3306,8.3752,8.3529,8.3195,8.3195,8.3195,8.3195,8.3195,8.3195,8.3268,8.3466,8.3522,8.3522,8.3522,8.3522,8.3424,8.3113,8.3039,8.2994,8.2828,8.2798,8.2625,8.207,8.2576,8.2623,8.1679,8.1986,8.2146,8.1807,8.15,8.128,8.128,8.1071,8.1068,8.1399,8.1561,8.174,8.2001,8.3111,8.3579,8.3268,8.3989,8.4136,8.3687,8.3687,8.3101,6.6782,6.9283,7.1283,6.993,7.4123,7.8554,7.8292,7.6245,7.5361,7.8715,7.7707,7.6931,7.9354,8.2939,8.7286,9.2787,9.4158,9.5511,9.8426,10.0096,10.1203,10.1712,10.321,10.3599,10.229,10.1793,10.1421,10.1198,10.0307,9.9489,9.9118,9.8672,9.83,9.7892,9.726,9.6629,9.5997,9.5365,9.5403,9.6034,9.5403,9.5217,9.5365,9.4771,9.4362,9.4177,9.3545,9.2691,9.1762,9.2653,9.2133,9.0833,9.1465,9.0722,8.9198,8.8381,8.8084,8.8084,8.8084,8.7638,8.7081,8.6858,8.5966,8.4926,8.474,8.4257,8.3901,8.4518,8.422,8.3715,8.3529,8.3343,8.3195,8.3195,8.3195,8.3195,8.3195,8.3195,8.3195,8.3195,8.3195,8.3195,8.3195,8.3381,8.3373,8.3031,8.3113,8.3126,8.2773,8.2758,8.268,8.2487,8.2296,8.2178,8.2226,8.1807,8.152,8.152,8.1363,8.1508,8.1955,8.2205,8.235,8.2486,8.3745,8.4265,8.3954,8.5006,8.5167,8.4594,8.4594,8.3994,6.9475,7.0206,7.0398,7.2584,7.4123,7.5469,7.7022,7.7215,7.7977,8.1323,8.1285,8.0477,7.99,8.3862,8.8632,9.2979,9.5493,9.7123,9.7887,9.9136,9.9983,10.0106,10.1511,10.2003,10.06,10.1124,10.1198,10.0418,10.1012,10.0715,9.9192,9.9749,9.9452,9.7966,9.7855,9.778,9.7706,9.7669,9.6554,9.4362,9.4325,9.4697,9.5403,9.5328,9.492,9.4214,9.414,9.3211,9.1762,9.2653,9.2431,9.1613,9.1688,9.0722,8.9198,8.8381,8.8084,8.8084,8.8084,8.8047,8.7861,8.7044,8.6709,8.6486,8.5743,8.5483,8.5446,8.5483,8.5483,8.5261,8.4518,8.3752,8.3195,8.3195,8.3195,8.3195,8.3195,8.3195,8.3195,8.3195,8.3195,8.3195,8.3195,8.3812,8.4072,8.3292,8.3797,8.3938,8.2993,8.2889,8.2828,8.2696,8.2674,8.2575,8.2407,8.2217,8.2148,8.2148,8.1601,8.1331,8.1382,8.2146,8.2811,8.3297,8.4215,8.4893,8.5347,8.5453,8.5473,8.5387,8.5387,8.5377,6.809,7.0244,7.2045,7.1892,7.4476,7.7515,7.9285,8.0054,8.167,8.6094,8.5978,8.5093,8.5286,8.7325,9.0017,9.3172,9.5882,9.8218,9.9984,10.071,10.1092,10.1402,10.189,10.1706,10.0413,10.0121,10.0084,10.0307,10.0121,9.9749,9.9118,9.9378,9.9043,9.7929,9.7372,9.7074,9.7074,9.6591,9.6146,9.57,9.6257,9.6666,9.6926,9.5886,9.5217,9.4883,9.3879,9.3099,9.2579,9.3397,9.3248,9.2393,9.1353,9.0573,8.9904,8.8567,8.8084,8.8084,8.8084,8.8084,8.8062,8.7712,8.723,8.6747,8.6449,8.6004,8.5706,8.6189,8.6004,8.5521,8.5223,8.4926,8.4666,8.4666,8.4666,8.4555,8.4049,8.3975,8.3789,8.3306,8.3604,8.3975,8.3975,8.4592,8.4852,8.4087,8.422,8.4094,8.318,8.3106,8.3009,8.2828,8.301,8.3119,8.3024,8.2965,8.283,8.2523,8.2092,8.2015,8.2328,8.2678,8.3131,8.3703,8.4017,8.4304,8.4498,8.4836,8.498,8.4991,8.5342,8.5322,6.8167,7.0244,7.2315,7.2476,7.513,7.8523,8.1593,8.2901,8.4863,8.9701,8.894,8.7825,8.921,8.994,9.1133,9.371,9.6462,9.9006,10.0913,10.1499,10.1687,10.1905,10.2005,10.1505,10.0076,9.9415,9.9229,9.9526,9.9489,9.9266,9.8746,9.9192,9.9006,9.7929,9.7334,9.7,9.7,9.6443,9.648,9.7037,9.7632,9.7892,9.7855,9.6703,9.6034,9.57,9.4362,9.3619,9.3397,9.3694,9.3508,9.2839,9.113,9.0499,9.035,8.8976,8.8323,8.8137,8.8381,8.8307,8.8084,8.8084,8.7712,8.7192,8.7192,8.6821,8.6486,8.7044,8.6821,8.6375,8.6375,8.6004,8.5595,8.5595,8.5595,8.5446,8.4889,8.4778,8.4629,8.4035,8.4406,8.4778,8.4778,8.5446,8.5706,8.4889,8.4778,8.4592,8.4035,8.3529,8.3151,8.3009,8.3157,8.3241,8.3241,8.3198,8.3105,8.2942,8.2715,8.2647,8.2793,8.2784,8.3032,8.3604,8.3618,8.3712,8.3898,8.4267,8.4438,8.445,8.5018,8.5062,7.0398,7.0283,7.0744,7.4938,7.6015,7.763,8.3585,8.5547,8.7363,9.1672,8.9825,8.8209,9.0748,9.1248,9.2056,9.4604,9.7344,9.9397,10.0009,10.0984,10.1481,10.0888,10.1616,10.1279,9.9275,9.9081,9.8746,9.7966,9.9378,9.9601,9.8003,9.9415,9.9563,9.7966,9.7892,9.7892,9.7892,9.7892,9.7892,9.7892,9.7892,9.7892,9.7892,9.7892,9.7409,9.6554,9.5737,9.492,9.414,9.3322,9.2988,9.2839,9.1167,9.0499,9.0387,8.9607,8.879,8.8248,8.9013,8.879,8.81,8.81,8.81,8.8084,8.8084,8.8084,8.8084,8.8084,8.8084,8.8084,8.8084,8.6858,8.5632,8.5632,8.5632,8.5632,8.5595,8.5595,8.5595,8.5595,8.5595,8.5595,8.5595,8.6264,8.6524,8.5743,8.5595,8.5595,8.5595,8.4198,8.3232,8.3195,8.3024,8.2919,8.2919,8.2804,8.2897,8.3373,8.3415,8.3111,8.2455,8.2284,8.245,8.298,8.3017,8.3284,8.3898,8.3898,8.3898,8.3911,8.445,8.4711,6.6974,6.8898,7.1898,7.3783,7.7823,8.2293,8.5863,8.7748,9.0163,9.5018,9.3326,9.1402,9.271,9.3441,9.4104,9.4874,9.7344,9.9627,10.0807,10.0908,10.1015,10.138,10.0809,9.9944,9.891,9.8497,9.8375,9.8709,9.9192,9.9266,9.8783,9.9192,9.8969,9.7929,9.7892,9.7892,9.7892,9.7892,9.7892,9.7892,9.7892,9.7892,9.7892,9.726,9.6554,9.57,9.492,9.4102,9.3322,9.3099,9.3322,9.3619,9.139,9.0499,9.0387,8.9607,8.9161,8.905,8.9867,8.9607,8.8938,8.8938,8.8567,8.8084,8.8084,8.8084,8.8084,8.8084,8.8084,8.8084,8.8084,8.7712,8.7341,8.7341,8.7341,8.7192,8.6561,8.6449,8.6264,8.5706,8.6041,8.6449,8.6449,8.7155,8.7415,8.6561,8.6449,8.6041,8.4889,8.4332,8.3951,8.3726,8.3628,8.36,8.36,8.3559,8.3471,8.3266,8.3113,8.3061,8.3111,8.2965,8.3002,8.3215,8.2715,8.2708,8.3269,8.3269,8.3269,8.3298,8.423,8.4711,6.8706,7.136,7.4675,7.6515,8.0054,8.4093,8.8017,9.021,9.2479,9.6249,9.4595,9.2864,9.3989,9.4373,9.4797,9.5835,9.7728,9.9564,10.1096,10.1297,10.1394,10.1697,10.0798,9.9878,9.9229,9.8391,9.8115,9.8598,9.8932,9.8969,9.8635,9.8635,9.8412,9.7929,9.7557,9.7557,9.7892,9.7892,9.7892,9.7892,9.7892,9.7892,9.7855,9.7,9.6331,9.5811,9.4697,9.3731,9.2988,9.2988,9.3062,9.3062,9.1576,9.0796,9.0462,9.0313,8.983,8.9421,9.0202,8.9756,8.8827,8.8827,8.8493,8.8084,8.8084,8.8084,8.8084,8.8084,8.8084,8.8084,8.8084,8.8084,8.8084,8.8084,8.8084,8.7935,8.7415,8.7304,8.7155,8.6672,8.6969,8.7304,8.7304,8.775,8.7787,8.6932,8.6524,8.5855,8.4555,8.4406,8.4182,8.3681,8.361,8.361,8.361,8.361,8.3569,8.348,8.3344,8.3378,8.358,8.3387,8.3289,8.3349,8.3097,8.3053,8.3169,8.3169,8.3169,8.3146,8.3845,8.428,7.3007,7.5515,7.7907,8.1323,8.2593,8.4401,8.9863,9.2326,9.4018,9.6019,9.4364,9.3133,9.4912,9.4643,9.4903,9.725,9.8404,9.9558,10.1087,10.202,10.2292,10.1702,10.1078,10.0497,9.9945,9.8685,9.7892,9.7892,9.8598,9.8635,9.7817,9.778,9.7743,9.7669,9.6963,9.7,9.778,9.7855,9.7892,9.7892,9.7892,9.7892,9.7855,9.7,9.6517,9.6294,9.4771,9.3694,9.2988,9.2988,9.2542,9.1799,9.1725,9.1242,9.0685,9.1353,9.0685,8.9496,9.0239,8.9496,8.8195,8.8285,8.8195,8.81,8.8195,8.8158,8.8084,8.8084,8.8084,8.8084,8.8084,8.8084,8.8084,8.8084,8.8084,8.8084,8.8084,8.8084,8.8084,8.8084,8.8084,8.8084,8.8084,8.8084,8.7824,8.7044,8.6301,8.5521,8.4666,8.4518,8.4161,8.3306,8.3195,8.3195,8.3195,8.3306,8.3502,8.3803,8.3905,8.3932,8.3909,8.3618,8.3429,8.3429,8.3862,8.3888,8.3498,8.3443,8.3443,8.3461,8.342,8.3723,6.8859,7.1937,7.6245,8.0323,8.4863,8.8585,8.9893,9.097,9.2787,9.648,9.5211,9.4172,9.6519,9.7365,9.7865,9.8442,9.9788,10.0894,10.1202,10.152,10.1519,10.138,10.0516,9.9831,9.9693,9.8605,9.7892,9.7892,9.804,9.778,9.6926,9.6889,9.6591,9.596,9.6369,9.6703,9.6889,9.7557,9.7892,9.7892,9.7892,9.7892,9.7855,9.7,9.5923,9.466,9.3694,9.3136,9.2988,9.2988,9.2876,9.2653,9.1985,9.1576,9.139,9.0945,9.0536,9.0276,9.0424,8.9867,8.9161,8.9793,8.9124,8.8195,8.8827,8.8604,8.8084,8.8084,8.8084,8.8084,8.8084,8.8084,8.8084,8.8084,8.8084,8.8084,8.8084,8.8084,8.8084,8.8084,8.8084,8.8084,8.8084,8.8084,8.8047,8.7861,8.7675,8.7192,8.6115,8.5595,8.4778,8.3343,8.3195,8.3195,8.3195,8.396,8.4131,8.3421,8.3943,8.418,8.3896,8.3712,8.3669,8.3706,8.3244,8.3378,8.4117,8.3634,8.3624,8.4017,8.4054,8.4155,6.9135,7.2976,7.7746,8.2824,8.7017,8.9893,8.9893,9.0547,9.2056,9.5057,9.4634,9.421,9.598,9.7019,9.7865,9.8673,9.9519,10.0404,10.1202,10.1279,10.1212,10.0789,10.0302,9.9758,9.9065,9.8568,9.8005,9.7332,9.7669,9.752,9.6666,9.622,9.5997,9.5997,9.5626,9.5811,9.6591,9.6666,9.6889,9.7297,9.7297,9.7074,9.6703,9.622,9.5143,9.3582,9.3174,9.2988,9.2988,9.2988,9.2728,9.2319,9.1873,9.1688,9.1613,9.0796,9.0499,9.0424,9.0053,8.9384,8.879,8.9198,8.905,8.8678,8.8716,8.8678,8.8567,8.8195,8.8084,8.8084,8.8084,8.8084,8.8084,8.8084,8.8084,8.8084,8.8084,8.8084,8.8084,8.8084,8.8084,8.8084,8.8084,8.775,8.7601,8.8047,8.7192,8.6412,8.6078,8.5781,8.4963,8.3381,8.3195,8.3195,8.3195,8.5149,8.5929,8.4815,8.4889,8.4703,8.4162,8.4068,8.398,8.3841,8.3709,8.3817,8.4092,8.4041,8.418,8.4448,8.4376,8.4519,7.0097,7.4945,8.0062,8.5593,8.8325,8.9701,8.9701,9.0355,9.1364,9.2749,9.3403,9.4027,9.5027,9.5942,9.698,9.8365,9.8827,9.9519,10.0904,10.1202,10.1019,10.0183,10.0218,9.9689,9.8244,9.8325,9.7995,9.6828,9.7478,9.7549,9.6721,9.5872,9.5602,9.6091,9.4875,9.4845,9.6183,9.5663,9.5737,9.6406,9.6406,9.596,9.518,9.518,9.44,9.2988,9.2988,9.2988,9.2988,9.2988,9.2579,9.191,9.1762,9.1688,9.1576,9.0647,9.0276,9.0202,8.9533,8.8864,8.836,8.8641,8.9087,8.9384,8.8716,8.8864,8.9124,8.8307,8.8084,8.8084,8.8084,8.8084,8.8084,8.8084,8.8084,8.8084,8.8084,8.8084,8.8084,8.8084,8.8084,8.8084,8.8084,8.749,8.7267,8.7973,8.6561,8.5521,8.5966,8.5521,8.4666,8.3343,8.3195,8.3418,8.4012,8.6019,8.7081,8.6709,8.6264,8.5595,8.4629,8.4495,8.4284,8.3975,8.4306,8.4242,8.3909,8.4329,8.4639,8.4798,8.4578,8.4805,6.7212,7.3591,8.0516,8.4277,8.7055,8.8872,8.8872,8.9479,9.0124,9.0355,9.2172,9.421,9.5826,9.6788,9.7403,9.7634,9.8942,9.999,10.0221,10.0904,10.1019,10.0183,9.9671,9.88,9.7385,9.7496,9.7567,9.7392,9.769,9.7647,9.7048,9.5981,9.5015,9.4212,9.4191,9.4288,9.4511,9.5105,9.544,9.5551,9.5551,9.5143,9.4362,9.4362,9.3842,9.2988,9.2988,9.2988,9.2988,9.2988,9.2914,9.2728,9.1985,9.1688,9.1539,9.0016,8.9459,8.9421,8.9347,8.9236,8.9347,9.0759,9.0833,9.0313,9.0202,8.9756,8.9124,8.8307,8.8084,8.8084,8.8084,8.8084,8.8084,8.8084,8.8084,8.8084,8.8084,8.8084,8.8084,8.8084,8.8084,8.8084,8.8084,8.801,8.7973,8.81,8.7861,8.7675,8.775,8.5276,8.3455,8.3232,8.3195,8.4347,8.7192,8.5238,8.5016,8.7712,8.7787,8.7081,8.5483,8.4778,8.4376,8.4339,8.3734,8.3578,8.3909,8.3988,8.4436,8.5317,8.4854,8.492,6.9975,7.4784,7.9554,8.4362,8.6401,8.7517,8.8487,8.9325,9.0047,9.0509,9.1902,9.3403,9.4634,9.5942,9.698,9.7442,9.8557,9.9375,9.9375,10.0096,10.0096,9.8788,9.857,9.7973,9.65,9.6644,9.6614,9.6126,9.6621,9.664,9.5979,9.5442,9.4824,9.4036,9.3709,9.3731,9.4214,9.4102,9.4288,9.4734,9.4251,9.4102,9.4177,9.3731,9.3322,9.2951,9.2468,9.2542,9.2914,9.1985,9.1873,9.2133,9.087,9.061,9.0833,8.9198,8.9198,8.9904,8.9459,8.9607,9.009,9.0796,9.1093,9.1019,9.009,8.9904,8.9719,8.8455,8.8084,8.8084,8.8084,8.8084,8.8084,8.8084,8.8418,8.8641,8.8211,8.8084,8.8084,8.8084,8.8084,8.8084,8.8084,8.8084,8.8084,8.8084,8.8084,8.8084,8.8084,8.5238,8.3195,8.3195,8.3195,8.4532,8.7824,8.6799,8.6561,8.801,8.8084,8.7527,8.6301,8.5483,8.4852,8.4421,8.3604,8.3289,8.3508,8.3763,8.413,8.4542,8.465,8.4942,7.0629,7.4014,7.6938,8.2208,8.4516,8.5824,8.7102,8.8363,8.9509,9.0364,9.1402,9.2479,9.3518,9.4941,9.6249,9.7057,9.7904,9.8481,9.8481,9.9221,9.9221,9.7673,9.7705,9.7234,9.5641,9.6055,9.6083,9.5286,9.5972,9.6215,9.5666,9.5248,9.4797,9.4339,9.3481,9.3285,9.3879,9.3285,9.3285,9.3879,9.3285,9.3322,9.3879,9.3248,9.2988,9.2951,9.2319,9.2282,9.2579,9.1316,9.1167,9.1576,9.0164,9.009,9.061,8.9236,8.9459,9.0424,9.0053,9.0313,9.0796,9.0796,9.1205,9.139,8.9793,8.9719,8.9904,8.8493,8.8084,8.8084,8.8084,8.8084,8.8084,8.8084,8.8716,8.9124,8.853,8.8233,8.8084,8.8084,8.8084,8.8084,8.8084,8.8084,8.8084,8.8084,8.8084,8.8084,8.8084,8.5982,8.4124,8.3306,8.3938,8.5461,8.7914,8.8084,8.8084,8.8084,8.8084,8.7787,8.7155,8.6338,8.5521,8.4703,8.3886,8.3418,8.3195,8.3564,8.3777,8.3922,8.4304,8.4753,6.5128,6.8744,7.2091,7.563,8.0177,8.3755,8.3832,8.5747,8.7786,8.8641,9.0133,9.1787,9.3403,9.445,9.5335,9.6211,9.7057,9.7557,9.7557,9.8327,9.8519,9.7596,9.7538,9.6779,9.4857,9.5888,9.6455,9.5867,9.6584,9.7134,9.7375,9.588,9.4871,9.4576,9.3543,9.3025,9.3062,9.3025,9.3025,9.3062,9.3025,9.3025,9.3062,9.3025,9.2988,9.2988,9.2951,9.2468,9.1762,9.1688,9.165,9.1613,9.0759,9.0945,9.1539,9.0685,9.0424,9.061,9.1316,9.1613,9.165,9.165,9.1688,9.139,8.9793,8.931,8.9198,8.8344,8.8084,8.8084,8.8084,8.8084,8.8084,8.8084,8.8716,8.9273,8.9236,8.8641,8.8084,8.8084,8.8084,8.8084,8.8084,8.8084,8.8084,8.8084,8.8084,8.8084,8.8084,8.7951,8.6635,8.3529,8.5982,8.7898,8.8084,8.8084,8.8084,8.8084,8.8084,8.81,8.801,8.7192,8.6375,8.5558,8.474,8.3975,8.3195,8.3224,8.3452,8.3909,8.3949,8.4218,6.5057,6.7552,7.0238,7.4168,7.7784,8.0754,8.2408,8.517,8.7478,8.7786,8.921,9.0701,9.1864,9.3681,9.5297,9.6172,9.698,9.7326,9.6788,9.7442,9.7673,9.6826,9.6393,9.5872,9.518,9.5269,9.5397,9.5553,9.5858,9.6047,9.6131,9.5274,9.4558,9.409,9.3373,9.2988,9.2988,9.2988,9.2988,9.2988,9.2988,9.2988,9.2988,9.2988,9.2988,9.2988,9.2988,9.2802,9.2431,9.1353,9.0945,9.0907,9.061,9.035,9.0202,9.0424,9.0833,9.1316,9.1613,9.2059,9.2542,9.2542,9.2542,9.2319,9.1167,9.0833,9.0685,8.9867,8.9644,8.9644,8.9644,8.9273,8.9013,8.9533,8.9867,9.0053,9.0053,8.9421,8.8864,8.8864,8.9273,8.9533,8.9177,8.8583,8.8084,8.8084,8.8084,8.8084,8.8084,8.8084,8.7654,8.6449,8.7394,8.8084,8.8084,8.8084,8.8084,8.8084,8.8084,8.8084,8.8084,8.7267,8.6672,8.6375,8.5558,8.4518,8.3195,8.3195,8.3297,8.3438,8.3438,8.372,6.4095,6.6244,6.8898,7.286,7.5553,7.813,8.1516,8.4055,8.594,8.6786,8.8325,8.9863,9.0979,9.2826,9.4527,9.5672,9.6557,9.6903,9.6365,9.6749,9.6903,9.6365,9.5961,9.5619,9.5418,9.5261,9.5238,9.5396,9.5855,0.0,9.6093,9.5674,9.4977,9.3986,9.3344,9.2988,9.2988,9.2988,9.2988,9.2988,9.3248,9.3397,9.3397,9.3397,9.3397,9.3397,9.3099,9.2839,9.2468,9.1353,9.0907,9.0907,9.0907,9.0759,9.061,9.113,9.1688,9.2133,9.2133,9.2505,9.2951,9.2653,9.2542,9.2393,9.1539,9.1316,9.1205,9.0647,9.0499,9.0499,9.0499,9.009,8.983,9.0387,9.0499,9.0499,9.0499,8.9942,8.9421,8.931,8.9942,9.0387,9.0032,8.8938,8.8084,8.8084,8.8084,8.8084,8.8084,8.8084,8.8084,8.8084,8.8084,8.8084,8.8084,8.8084,8.8084,8.8084,8.8084,8.8084,8.8084,8.7527,8.7081,8.6821,8.6264,8.5335,8.3997,8.3752,8.3455,8.3195,8.3195,8.3438,0.0,0.0,0.0,7.1174,7.3322,7.5899,8.0823,8.2054,8.2824,8.5363,8.7286,8.9026,9.0748,9.1825,9.2979,9.4604,9.5634,9.6249,9.6249,9.6249,9.6288,9.6288,9.6288,9.6049,9.5473,9.5971,9.6078,9.5501,9.671,9.7519,9.7557,9.7263,9.6206,9.4297,9.3487,9.3062,9.3025,9.3062,9.3062,9.3062,9.3842,9.4251,9.4251,9.4251,9.4251,9.4177,9.3359,9.2542,9.1762,9.1762,9.1725,9.1688,9.1725,9.2245,9.2951,9.2988,9.2988,9.2988,9.2988,9.2988,9.2839,9.2022,9.1725,9.1576,9.0796,9.0573,9.0573,9.0573,9.0573,9.0573,9.0536,9.0536,9.0573,9.0536,9.0499,9.0499,9.0536,9.0106,8.966,8.9421,9.0016,9.0573,9.0573,8.9273,8.8195,8.81,8.8084,8.8084,8.8084,8.8084,8.8084,8.8084,8.8084,8.8084,8.8084,8.8137,8.8158,8.8158,8.8158,8.8158,8.8137,8.8137,8.7712,8.6858,8.6821,8.6449,8.5632,8.4815,8.4035,8.3269,8.3269,8.3498,6.2364,0.0,0.0,0.0,0.0,0.0,7.3745,7.5976,7.8284,8.0215,8.2439,8.4786,8.7094,8.9748,9.171,9.2172,9.348,9.4634,9.5258,9.5374,9.5595,9.6249,9.6288,9.6241,9.6049,9.6184,9.6472,0.0,9.726,9.7788,9.8404,9.7579,9.6402,9.4901,9.4792,9.4474,9.3879,9.4437,9.4734,9.4734,9.4957,9.5068,9.5068,9.5068,9.5068,9.5031,9.4214,9.3731,9.3471,9.2876,9.2282,9.1762,9.2393,9.2393,9.2133,9.2765,9.2988,9.2988,9.2988,9.2988,9.2951,9.2728,9.2653,9.2579,9.2393,9.2319,9.2319,9.2319,9.2319,9.2171,9.1539,9.1836,9.2133,9.1539,9.061,9.0164,9.1167,9.0796,9.0424,9.0945,9.1725,9.2319,9.2319,9.1948,9.0833,8.8455,8.8084,8.8084,8.8084,8.8084,8.8084,8.8084,8.8084,8.8084,8.8084,8.9161,8.9681,8.9289,8.9607,8.957,8.8976,8.8976,8.8567,8.775,8.775,8.7304,8.6486,8.5669,8.5149,8.4926,8.4926,8.5016,6.4634,6.6134,6.8321,6.8936,0.0,0.0,7.3514,7.4784,7.613,7.8554,8.1362,8.3824,8.5316,8.8355,9.0663,9.0663,9.1787,9.3095,9.4296,9.445,9.4643,9.5134,9.5557,9.5749,9.5749,9.6095,9.6634,9.7442,9.7827,9.8481,9.9463,9.8551,9.7408,9.6148,9.5885,9.5421,9.4697,9.518,9.5403,9.5403,9.5737,9.5886,9.5886,9.5886,9.5886,9.5848,9.5031,9.4511,9.4177,9.3694,9.2988,9.2282,9.2802,9.2691,9.2282,9.2802,9.2988,9.2988,9.2988,9.2988,9.2988,9.2988,9.2988,9.2988,9.2988,9.2988,9.3062,9.3397,9.3508,9.3322,9.2468,9.2616,9.2765,9.191,9.139,9.1167,9.1465,9.1539,9.1539,9.1539,9.2319,9.2988,9.2988,9.2988,9.1873,8.8567,8.8084,8.8084,8.8084,8.8084,8.8084,8.8084,8.8084,8.8381,8.905,8.9942,9.035,9.0069,9.0313,9.0127,8.931,8.931,8.8901,8.8121,8.8084,8.7861,8.7341,8.6524,8.5929,8.5595,8.5595,8.5595,6.8174,6.9013,0.0,0.0,0.0,0.0,7.6214,7.5938,7.5469,7.8123,8.1316,8.3739,8.4124,8.6855,8.9047,8.9047,9.0009,9.1479,9.3403,9.3787,9.3826,9.3835,9.4604,9.5104,9.5027,9.5711,9.6519,9.7442,9.8404,9.9324,10.0298,9.9618,9.8668,9.7597,9.6817,9.6128,9.55,9.5622,9.5626,9.5551,9.6369,9.674,9.674,9.674,9.674,9.6703,9.5886,9.5143,9.4474,9.4362,9.3805,9.2988,9.2988,9.2988,9.2988,9.2988,9.2988,9.2988,9.2988,9.2988,9.2988,9.2988,9.2988,9.2988,9.2988,9.3062,9.3285,9.3991,9.4214,9.3991,9.3211,9.2988,9.2802,9.2022,9.2356,9.2579,9.1688,9.1985,9.2245,9.1613,9.2319,9.2988,9.2988,9.2988,9.2022,8.9087,8.8641,8.8641,8.8641,8.8641,8.8641,8.8641,8.8641,8.9161,9.0387,9.0685,9.0722,9.0647,9.0722,9.0424,8.9607,8.9459,8.905,8.8233,8.8158,8.8084,8.8084,8.7304,8.6561,8.5892,8.5892,8.5892,7.2059,7.2937,7.4399,7.2822,0.0,0.0,7.0443,7.2091,7.4123,7.2091,7.3815,7.6546,7.9254,8.1939,8.3785,8.3785,8.6247,8.944,9.3172,9.4287,9.4749,9.4758,9.5518,9.5788,9.5066,9.5143,9.5865,9.7403,9.8952,9.9644,9.9172,9.9173,9.8803,9.7927,9.7503,9.6876,9.6109,9.6969,9.7074,9.6369,9.7223,9.7632,9.7632,9.7632,9.7632,9.7595,9.674,9.6294,9.6071,9.544,9.4325,9.2988,9.2988,9.2988,9.2988,9.2988,9.2988,9.2988,9.2988,9.2988,9.2988,9.2988,9.2988,9.2988,9.2988,9.3434,9.3991,9.4177,9.4214,9.3991,9.3211,9.2988,9.2951,9.2802,9.2171,9.1836,9.2505,9.0759,8.9756,9.2208,9.2839,9.2988,9.2988,9.2988,9.2765,9.2133,9.2022,9.2022,9.2022,9.2022,9.2022,9.2022,9.2022,9.1613,9.0573,9.1725,9.2208,9.1502,9.2133,9.2133,9.1279,9.061,8.9904,8.9087,8.8418,8.8084,8.8084,8.7935,8.775,8.7601,8.7601,8.7601,0.0,0.0,7.663,7.663,0.0,0.0,0.0,7.3437,7.3553,7.4014,7.4091,7.5123,7.8515,8.0208,8.1323,8.217,8.4786,8.7632,9.021,9.1325,9.2018,9.2402,9.3249,9.3749,9.3758,9.4104,9.5057,9.6788,9.8096,9.8788,9.8788,9.9322,9.9332,9.864,9.8871,9.8675,9.7942,9.8186,9.8096,9.7647,9.7803,9.7892,9.7892,9.7892,9.7892,9.7892,9.7446,9.7,9.6591,9.6146,9.5031,9.3582,9.3582,9.3359,9.3062,9.3434,9.3582,9.3657,9.4065,9.3917,9.3582,9.3582,9.3322,9.3062,9.3471,9.4437,9.5217,9.4437,9.4474,9.4511,9.3322,9.2988,9.2988,9.2988,9.2542,9.2319,9.2876,9.1688,9.1019,9.2691,9.2988,9.2988,9.2988,9.2988,9.2988,9.2988,9.2988,9.2988,9.2988,9.2988,9.2988,9.2988,9.2988,9.2653,9.1799,9.2505,9.2802,9.2393,9.2765,9.2616,9.1725,9.1316,9.0536,8.931,8.931,8.8901,8.8084,8.8493,8.8493,8.8084,8.8084,8.8084,0.0,0.0,0.0,0.0,0.0,7.763,0.0,0.0,0.0,7.6791,7.5784,0.0,0.0,0.0,0.0,8.0823,0.0,0.0,0.0,8.6717,0.0,8.947,9.0864,9.1787,9.1979,9.2133,9.321,9.5634,9.5788,9.648,9.799,9.8875,9.9219,9.8878,9.9618,9.9765,9.9287,9.892,9.8604,9.8454,9.81,9.7892,9.7892,9.7892,9.7892,9.7892,9.804,9.7743,9.7074,9.7074,9.622,9.4883,9.44,9.3805,9.3322,9.3954,9.4288,9.4511,9.518,9.4883,9.4214,9.4214,9.3768,9.3359,9.3991,9.5217,9.6071,9.4622,9.466,9.4845,9.3359,9.2988,9.2988,9.2988,9.2988,9.2988,9.2988,9.2988,9.2988,9.2988,9.2988,9.2988,9.2988,9.2988,9.2988,9.2988,9.2988,9.2988,9.2988,9.2988,9.2988,9.2988,9.2988,9.2988,9.2988,9.2988,9.2988,9.2988,9.2988,9.2691,9.1985,9.1799,9.1019,8.957,9.0164,8.9867,8.8567,8.905,8.8901,8.8084,8.8084,8.8084,0.0,0.0,0.0,0.0,8.467,0.0,0.0,0.0,7.7784,7.3752,0.0,0.0,0.0,0.0,0.0,0.0,0.0,0.0,7.96,8.1562,8.4478,8.8372,9.1556,9.2556,9.0393,8.8248,8.8902,9.3633,9.1325,9.1373,9.522,9.6249,9.7038,9.7683,9.8025,9.8201,9.8178,9.8532,9.8341,9.7628,9.7839,9.7892,9.7892,9.7892,9.7892,9.7929,9.8635,9.8895,9.882,9.882,9.83,9.726,9.5068,9.414,9.4065,9.4177,9.466,9.5291,9.5365,9.4883,9.4214,9.4214,9.414,9.4065,9.4177,9.4845,9.5365,9.4437,9.4251,9.414,9.3211,9.2988,9.2988,9.2988,9.2988,9.2988,9.2988,9.2988,9.2988,9.2988,9.2988,9.2988,9.2988,9.2988,9.2988,9.2988,9.2988,9.2988,9.2988,9.2988,9.2988,9.2988,9.2988,9.2988,9.2988,9.2988,9.2988,9.2988,9.2988,9.2951,9.2839,9.2096,9.1279,9.0387,9.0462,9.0424,9.0239,8.9607,8.8901,8.8084,8.8084,8.8084,0.0,0.0,0.0,0.0,0.0,0.0,0.0,0.0,7.6669,0.0,0.0,0.0,0.0,0.0,0.0,0.0,7.7707,0.0,0.0,0.0,8.2439,0.0,0.0,0.0,8.7008,8.6431,8.7594,9.121,8.9748,9.0334,9.4066,9.5557,9.6442,9.6788,9.7845,9.8675,9.9194,9.907,9.8897,9.8716,9.8474,9.8188,9.7892,9.7892,9.8152,9.8598,9.8449,9.8672,9.9043,9.8598,9.8189,9.7743,9.6183,9.5328,9.4957,9.544,9.5811,9.6183,9.6666,9.5997,9.4734,9.3805,9.3805,9.4214,9.4214,9.4771,9.5217,9.4437,9.4214,9.3991,9.3211,9.2988,9.2988,9.2988,9.2988,9.2988,9.2988,9.2988,9.2988,9.2988,9.2988,9.2988,9.2988,9.2988,9.2988,9.2988,9.2988,9.2988,9.2988,9.2988,9.2988,9.2988,9.2988,9.2988,9.2988,9.2988,9.2988,9.2988,9.2988,9.2988,9.2988,9.2653,9.2059,9.1205,9.1688,9.1465,9.0499,9.061,9.0276,8.9459,8.853,8.8084,8.8308,0.0,0.0,0.0,0.0,0.0,0.0,0.0,0.0,0.0,0.0,0.0,0.0,0.0,0.0,0.0,0.0,7.8138,0.0,0.0,0.0,0.0,0.0,0.0,0.0,8.4016,8.5209,8.8932,8.7825,8.8833,9.3133,9.4788,9.5711,9.5942,9.7557,9.875,9.9375,9.9272,9.9307,9.9491,9.8958,9.8504,9.8108,9.7978,9.8226,9.8746,9.8375,9.856,9.9081,9.8709,9.8412,9.8189,9.778,9.7,9.6146,9.648,9.674,9.7037,9.7669,9.6963,9.5514,9.4102,9.4214,9.4771,9.4325,9.4771,9.518,9.4177,9.3879,9.3768,9.3434,9.3322,9.3322,9.3322,9.3322,9.3248,9.3062,9.2988,9.2988,9.2988,9.2988,9.2988,9.2988,9.2988,9.2988,9.2988,9.2988,9.2988,9.2988,9.2988,9.2988,9.2988,9.2988,9.2988,9.2988,9.2988,9.3099,9.3322,9.3322,9.3322,9.3322,9.3099,9.2691,9.2059,9.2691,9.2393,9.1205,9.1539,9.139,9.0796,8.9384,8.8753,0.0,0.0,0.0,8.3816,0.0,0.0,0.0,0.0,8.0208,0.0,0.0,0.0,0.0,0.0,0.0,0.0,0.0,0.0,0.0,0.0,0.0,0.0,0.0,0.0,0.0,7.9985,8.0331,0.0,8.4401,8.544,9.2172,9.3326,9.4172,9.5027,9.6673,9.7557,9.7596,9.8659,9.9217,9.9232,9.8858,9.8701,9.867,9.8142,9.7892,9.7966,9.8746,9.9081,9.9155,9.9898,9.9749,9.9155,9.9898,9.9229,9.7706,9.6889,9.7112,9.7855,9.7892,9.7297,9.6406,9.5588,9.5886,9.622,9.466,9.4771,9.5068,9.3471,9.3025,9.3211,9.3954,9.4177,9.4177,9.4177,9.4177,9.3954,9.3174,9.2988,9.2988,9.2988,9.2988,9.2988,9.2988,9.2988,9.2988,9.2988,9.2988,9.2988,9.2988,9.2988,9.2988,9.2988,9.2988,9.2988,9.2988,9.2988,9.3322,9.4102,9.4177,9.4177,9.4177,9.3397,9.2988,9.2951,9.2988,9.2951,9.2914,9.2096,9.1688,9.165,9.0796,9.0424,0.0,0.0,9.3306,8.6781,0.0,0.0,0.0,0.0,0.0,0.0,0.0,0.0,0.0,0.0,0.0,0.0,0.0,0.0,0.0,0.0,0.0,0.0,0.0,0.0,0.0,0.0,0.0,0.0,8.517,0.0,9.0547,9.3172,9.4181,9.3364,9.5518,9.698,9.748,9.8074,9.8338,9.8327,9.8593,9.8416,9.792,9.844,9.8969,9.9489,9.9786,9.9898,9.9861,9.9601,9.9341,9.9081,9.882,9.8709,9.8672,9.8375,9.8115,9.7817,9.7223,9.6852,9.648,9.5663,9.5588,9.5588,9.4511,9.44,9.4362,9.3285,9.3359,9.3842,9.414,9.4585,9.4994,9.4994,9.4585,9.3991,9.3174,9.2988,9.2988,9.2988,9.2988,9.2988,9.2988,9.3879,9.4214,9.3136,9.2988,9.3359,9.4437,9.4288,9.4082,9.4082,9.3879,9.3582,9.3062,9.3471,9.3917,9.4177,9.4697,9.4771,9.4214,9.3954,9.3545,9.2988,9.2988,9.2988,9.2988,9.2691,9.2542,9.2542,9.2282,9.1539,9.3313,9.3927,0.0,8.8511,8.6572,0.0,8.0237,0.0,0.0,0.0,0.0,0.0,0.0,0.0,0.0,0.0,0.0,0.0,0.0,7.336,0.0,0.0,0.0,0.0,0.0,0.0,7.9977,8.3708,8.4747,0.0,0.0,9.2402,9.3758,9.2941,9.4826,9.6365,9.748,9.7667,9.797,9.8365,9.8499,9.8328,9.7957,9.8738,9.9378,9.9898,10.0195,10.0121,9.9898,9.9935,9.9452,9.8709,9.9043,9.8969,9.8672,9.8672,9.8338,9.7817,9.726,9.7074,9.6963,9.6443,9.6294,9.6146,9.5291,9.5031,9.4883,9.4065,9.4214,9.4697,9.4994,9.544,9.5848,9.5848,9.544,9.4845,9.4028,9.3619,9.3434,9.3434,9.3211,9.3099,9.3359,9.4288,9.4511,9.3211,9.3657,9.4251,9.4511,9.4474,9.4325,9.4082,9.3879,9.3545,9.3025,9.4251,9.492,9.4622,9.5365,9.5477,9.466,9.4622,9.4251,9.3434,9.3694,9.3842,9.3842,9.3842,9.3694,9.3434,9.3434,9.2691]}]]